<?xml version="1.0" encoding="UTF-8" standalone="no" ?>
<gpx xmlns="http://www.topografix.com/GPX/1/1" xmlns:xsi="http://www.w3.org/2001/XMLSchema-instance" xsi:schemaLocation="http://www.topografix.com/GPX/1/1 http://www.topografix.com/GPX/1/1/gpx.xsd" version="1.1" creator="VisuGPX - https://www.visugpx.com">
  <metadata>
    <name>SSOL22/1</name>
    <desc><![CDATA[Sortie club du 22 janvier
Temps doux, sec, assez gras]]></desc>
  </metadata>
  <trk>
    <name><![CDATA[2012-01-22T07:45:48Z]]></name>
    <trkseg>
      <trkpt lat="47.71725" lon="7.39452">
        <ele>259.6933594</ele>
        <time>2012-01-22T07:45:48Z</time>
      </trkpt>
      <trkpt lat="47.71725" lon="7.39452">
        <ele>259.2126465</ele>
        <time>2012-01-22T07:45:49Z</time>
      </trkpt>
      <trkpt lat="47.71725" lon="7.39452">
        <ele>258.7319336</ele>
        <time>2012-01-22T07:45:50Z</time>
      </trkpt>
      <trkpt lat="47.71724" lon="7.39452">
        <ele>258.7319336</ele>
        <time>2012-01-22T07:45:53Z</time>
      </trkpt>
      <trkpt lat="47.7172" lon="7.39459">
        <ele>259.6933594</ele>
        <time>2012-01-22T07:45:56Z</time>
      </trkpt>
      <trkpt lat="47.7172" lon="7.39481">
        <ele>261.1352539</ele>
        <time>2012-01-22T07:46:01Z</time>
      </trkpt>
      <trkpt lat="47.71724" lon="7.39512">
        <ele>263.0578613</ele>
        <time>2012-01-22T07:46:08Z</time>
      </trkpt>
      <trkpt lat="47.71729" lon="7.39541">
        <ele>262.0965576</ele>
        <time>2012-01-22T07:46:13Z</time>
      </trkpt>
      <trkpt lat="47.7173" lon="7.39567">
        <ele>261.6159668</ele>
        <time>2012-01-22T07:46:16Z</time>
      </trkpt>
      <trkpt lat="47.71718" lon="7.39604">
        <ele>259.2126465</ele>
        <time>2012-01-22T07:46:20Z</time>
      </trkpt>
      <trkpt lat="47.71705" lon="7.39625">
        <ele>258.2513428</ele>
        <time>2012-01-22T07:46:23Z</time>
      </trkpt>
      <trkpt lat="47.71704" lon="7.39634">
        <ele>257.770752</ele>
        <time>2012-01-22T07:46:24Z</time>
      </trkpt>
      <trkpt lat="47.71695" lon="7.39661">
        <ele>255.3673096</ele>
        <time>2012-01-22T07:46:29Z</time>
      </trkpt>
      <trkpt lat="47.71691" lon="7.39669">
        <ele>255.3673096</ele>
        <time>2012-01-22T07:46:32Z</time>
      </trkpt>
      <trkpt lat="47.71699" lon="7.39666">
        <ele>256.8093262</ele>
        <time>2012-01-22T07:46:35Z</time>
      </trkpt>
      <trkpt lat="47.71706" lon="7.39655">
        <ele>257.2900391</ele>
        <time>2012-01-22T07:46:38Z</time>
      </trkpt>
      <trkpt lat="47.71706" lon="7.39627">
        <ele>257.770752</ele>
        <time>2012-01-22T07:46:42Z</time>
      </trkpt>
      <trkpt lat="47.71715" lon="7.39607">
        <ele>259.2126465</ele>
        <time>2012-01-22T07:46:45Z</time>
      </trkpt>
      <trkpt lat="47.71728" lon="7.3959">
        <ele>261.1352539</ele>
        <time>2012-01-22T07:46:48Z</time>
      </trkpt>
      <trkpt lat="47.7173" lon="7.39583">
        <ele>261.6159668</ele>
        <time>2012-01-22T07:46:49Z</time>
      </trkpt>
      <trkpt lat="47.71732" lon="7.39568">
        <ele>262.0965576</ele>
        <time>2012-01-22T07:46:51Z</time>
      </trkpt>
      <trkpt lat="47.71731" lon="7.39561">
        <ele>262.5771484</ele>
        <time>2012-01-22T07:46:52Z</time>
      </trkpt>
      <trkpt lat="47.71729" lon="7.39541">
        <ele>264.0192871</ele>
        <time>2012-01-22T07:46:55Z</time>
      </trkpt>
      <trkpt lat="47.71727" lon="7.3953">
        <ele>264.4998779</ele>
        <time>2012-01-22T07:46:57Z</time>
      </trkpt>
      <trkpt lat="47.71722" lon="7.39514">
        <ele>265.4613037</ele>
        <time>2012-01-22T07:47:00Z</time>
      </trkpt>
      <trkpt lat="47.71716" lon="7.39472">
        <ele>267.3839111</ele>
        <time>2012-01-22T07:47:08Z</time>
      </trkpt>
      <trkpt lat="47.71721" lon="7.39465">
        <ele>266.4224854</ele>
        <time>2012-01-22T07:47:12Z</time>
      </trkpt>
      <trkpt lat="47.7172" lon="7.39466">
        <ele>269.3065186</ele>
        <time>2012-01-22T07:47:20Z</time>
      </trkpt>
      <trkpt lat="47.71718" lon="7.39465">
        <ele>274.1130371</ele>
        <time>2012-01-22T07:47:27Z</time>
      </trkpt>
      <trkpt lat="47.71716" lon="7.39461">
        <ele>282.2843018</ele>
        <time>2012-01-22T07:47:46Z</time>
      </trkpt>
      <trkpt lat="47.71715" lon="7.3946">
        <ele>285.1682129</ele>
        <time>2012-01-22T07:48:08Z</time>
      </trkpt>
      <trkpt lat="47.71715" lon="7.39461">
        <ele>286.1295166</ele>
        <time>2012-01-22T07:48:24Z</time>
      </trkpt>
      <trkpt lat="47.71715" lon="7.39461">
        <ele>286.1295166</ele>
        <time>2012-01-22T07:48:25Z</time>
      </trkpt>
      <trkpt lat="47.71715" lon="7.39466">
        <ele>285.6488037</ele>
        <time>2012-01-22T07:48:53Z</time>
      </trkpt>
      <trkpt lat="47.71717" lon="7.39465">
        <ele>280.3616943</ele>
        <time>2012-01-22T07:49:06Z</time>
      </trkpt>
      <trkpt lat="47.71713" lon="7.39469">
        <ele>277.4776611</ele>
        <time>2012-01-22T07:49:09Z</time>
      </trkpt>
      <trkpt lat="47.71714" lon="7.39498">
        <ele>276.0356445</ele>
        <time>2012-01-22T07:49:14Z</time>
      </trkpt>
      <trkpt lat="47.71716" lon="7.39505">
        <ele>275.5550537</ele>
        <time>2012-01-22T07:49:15Z</time>
      </trkpt>
      <trkpt lat="47.71726" lon="7.3956">
        <ele>273.6324463</ele>
        <time>2012-01-22T07:49:21Z</time>
      </trkpt>
      <trkpt lat="47.7172" lon="7.39606">
        <ele>271.229126</ele>
        <time>2012-01-22T07:49:25Z</time>
      </trkpt>
      <trkpt lat="47.71708" lon="7.39619">
        <ele>269.7871094</ele>
        <time>2012-01-22T07:49:27Z</time>
      </trkpt>
      <trkpt lat="47.71703" lon="7.39633">
        <ele>268.3450928</ele>
        <time>2012-01-22T07:49:29Z</time>
      </trkpt>
      <trkpt lat="47.71704" lon="7.39655">
        <ele>266.4224854</ele>
        <time>2012-01-22T07:49:32Z</time>
      </trkpt>
      <trkpt lat="47.71694" lon="7.39667">
        <ele>264.9805908</ele>
        <time>2012-01-22T07:49:35Z</time>
      </trkpt>
      <trkpt lat="47.71662" lon="7.39696">
        <ele>263.5385742</ele>
        <time>2012-01-22T07:49:41Z</time>
      </trkpt>
      <trkpt lat="47.71656" lon="7.39702">
        <ele>263.0578613</ele>
        <time>2012-01-22T07:49:42Z</time>
      </trkpt>
      <trkpt lat="47.71628" lon="7.39717">
        <ele>262.5771484</ele>
        <time>2012-01-22T07:49:46Z</time>
      </trkpt>
      <trkpt lat="47.71606" lon="7.39725">
        <ele>262.5771484</ele>
        <time>2012-01-22T07:49:49Z</time>
      </trkpt>
      <trkpt lat="47.71584" lon="7.39749">
        <ele>262.5771484</ele>
        <time>2012-01-22T07:49:53Z</time>
      </trkpt>
      <trkpt lat="47.7158" lon="7.39778">
        <ele>262.0965576</ele>
        <time>2012-01-22T07:49:56Z</time>
      </trkpt>
      <trkpt lat="47.71587" lon="7.39807">
        <ele>263.0578613</ele>
        <time>2012-01-22T07:49:59Z</time>
      </trkpt>
      <trkpt lat="47.71597" lon="7.39858">
        <ele>263.5385742</ele>
        <time>2012-01-22T07:50:04Z</time>
      </trkpt>
      <trkpt lat="47.71595" lon="7.3991">
        <ele>264.0192871</ele>
        <time>2012-01-22T07:50:09Z</time>
      </trkpt>
      <trkpt lat="47.71591" lon="7.39971">
        <ele>264.4998779</ele>
        <time>2012-01-22T07:50:15Z</time>
      </trkpt>
      <trkpt lat="47.71588" lon="7.40046">
        <ele>264.0192871</ele>
        <time>2012-01-22T07:50:22Z</time>
      </trkpt>
      <trkpt lat="47.71581" lon="7.40112">
        <ele>264.4998779</ele>
        <time>2012-01-22T07:50:28Z</time>
      </trkpt>
      <trkpt lat="47.71567" lon="7.40231">
        <ele>263.0578613</ele>
        <time>2012-01-22T07:50:38Z</time>
      </trkpt>
      <trkpt lat="47.71553" lon="7.40277">
        <ele>261.1352539</ele>
        <time>2012-01-22T07:50:42Z</time>
      </trkpt>
      <trkpt lat="47.71523" lon="7.40334">
        <ele>259.6933594</ele>
        <time>2012-01-22T07:50:48Z</time>
      </trkpt>
      <trkpt lat="47.71488" lon="7.40381">
        <ele>258.7319336</ele>
        <time>2012-01-22T07:50:54Z</time>
      </trkpt>
      <trkpt lat="47.71446" lon="7.40425">
        <ele>257.2900391</ele>
        <time>2012-01-22T07:51:01Z</time>
      </trkpt>
      <trkpt lat="47.71424" lon="7.40447">
        <ele>255.8480225</ele>
        <time>2012-01-22T07:51:05Z</time>
      </trkpt>
      <trkpt lat="47.71417" lon="7.40475">
        <ele>257.2900391</ele>
        <time>2012-01-22T07:51:09Z</time>
      </trkpt>
      <trkpt lat="47.71427" lon="7.405">
        <ele>257.770752</ele>
        <time>2012-01-22T07:51:12Z</time>
      </trkpt>
      <trkpt lat="47.71439" lon="7.40526">
        <ele>258.7319336</ele>
        <time>2012-01-22T07:51:15Z</time>
      </trkpt>
      <trkpt lat="47.71479" lon="7.40574">
        <ele>258.2513428</ele>
        <time>2012-01-22T07:51:22Z</time>
      </trkpt>
      <trkpt lat="47.71543" lon="7.40648">
        <ele>256.8093262</ele>
        <time>2012-01-22T07:51:33Z</time>
      </trkpt>
      <trkpt lat="47.71581" lon="7.40702">
        <ele>256.8093262</ele>
        <time>2012-01-22T07:51:40Z</time>
      </trkpt>
      <trkpt lat="47.71603" lon="7.4076">
        <ele>256.3287354</ele>
        <time>2012-01-22T07:51:46Z</time>
      </trkpt>
      <trkpt lat="47.71633" lon="7.40837">
        <ele>255.8480225</ele>
        <time>2012-01-22T07:51:54Z</time>
      </trkpt>
      <trkpt lat="47.71666" lon="7.409">
        <ele>255.8480225</ele>
        <time>2012-01-22T07:52:01Z</time>
      </trkpt>
      <trkpt lat="47.71714" lon="7.40975">
        <ele>256.3287354</ele>
        <time>2012-01-22T07:52:10Z</time>
      </trkpt>
      <trkpt lat="47.71763" lon="7.41038">
        <ele>255.3673096</ele>
        <time>2012-01-22T07:52:18Z</time>
      </trkpt>
      <trkpt lat="47.71808" lon="7.41072">
        <ele>253.4447021</ele>
        <time>2012-01-22T07:52:24Z</time>
      </trkpt>
      <trkpt lat="47.7189" lon="7.41121">
        <ele>251.5220947</ele>
        <time>2012-01-22T07:52:35Z</time>
      </trkpt>
      <trkpt lat="47.71938" lon="7.4116">
        <ele>251.5220947</ele>
        <time>2012-01-22T07:52:42Z</time>
      </trkpt>
      <trkpt lat="47.71976" lon="7.41212">
        <ele>251.0413818</ele>
        <time>2012-01-22T07:52:49Z</time>
      </trkpt>
      <trkpt lat="47.7203" lon="7.41295">
        <ele>251.0413818</ele>
        <time>2012-01-22T07:53:00Z</time>
      </trkpt>
      <trkpt lat="47.72079" lon="7.41372">
        <ele>251.0413818</ele>
        <time>2012-01-22T07:53:10Z</time>
      </trkpt>
      <trkpt lat="47.72116" lon="7.41434">
        <ele>251.5220947</ele>
        <time>2012-01-22T07:53:18Z</time>
      </trkpt>
      <trkpt lat="47.7215" lon="7.41469">
        <ele>251.5220947</ele>
        <time>2012-01-22T07:53:24Z</time>
      </trkpt>
      <trkpt lat="47.72189" lon="7.41495">
        <ele>251.0413818</ele>
        <time>2012-01-22T07:53:30Z</time>
      </trkpt>
      <trkpt lat="47.72222" lon="7.41532">
        <ele>251.5220947</ele>
        <time>2012-01-22T07:53:36Z</time>
      </trkpt>
      <trkpt lat="47.72243" lon="7.41574">
        <ele>252.0028076</ele>
        <time>2012-01-22T07:53:41Z</time>
      </trkpt>
      <trkpt lat="47.72254" lon="7.41619">
        <ele>252.4833984</ele>
        <time>2012-01-22T07:53:46Z</time>
      </trkpt>
      <trkpt lat="47.72263" lon="7.41684">
        <ele>253.925415</ele>
        <time>2012-01-22T07:53:53Z</time>
      </trkpt>
      <trkpt lat="47.7227" lon="7.41742">
        <ele>255.3673096</ele>
        <time>2012-01-22T07:54:00Z</time>
      </trkpt>
      <trkpt lat="47.72275" lon="7.41792">
        <ele>257.770752</ele>
        <time>2012-01-22T07:54:08Z</time>
      </trkpt>
      <trkpt lat="47.72275" lon="7.41795">
        <ele>257.770752</ele>
        <time>2012-01-22T07:54:09Z</time>
      </trkpt>
      <trkpt lat="47.72283" lon="7.41818">
        <ele>257.770752</ele>
        <time>2012-01-22T07:54:16Z</time>
      </trkpt>
      <trkpt lat="47.72297" lon="7.41837">
        <ele>256.3287354</ele>
        <time>2012-01-22T07:54:20Z</time>
      </trkpt>
      <trkpt lat="47.72304" lon="7.41849">
        <ele>255.8480225</ele>
        <time>2012-01-22T07:54:22Z</time>
      </trkpt>
      <trkpt lat="47.72324" lon="7.41889">
        <ele>254.8865967</ele>
        <time>2012-01-22T07:54:28Z</time>
      </trkpt>
      <trkpt lat="47.72346" lon="7.41913">
        <ele>254.8865967</ele>
        <time>2012-01-22T07:54:33Z</time>
      </trkpt>
      <trkpt lat="47.72357" lon="7.41919">
        <ele>253.925415</ele>
        <time>2012-01-22T07:54:35Z</time>
      </trkpt>
      <trkpt lat="47.72402" lon="7.41931">
        <ele>253.4447021</ele>
        <time>2012-01-22T07:54:43Z</time>
      </trkpt>
      <trkpt lat="47.72454" lon="7.41934">
        <ele>253.4447021</ele>
        <time>2012-01-22T07:54:52Z</time>
      </trkpt>
      <trkpt lat="47.72501" lon="7.41938">
        <ele>252.4833984</ele>
        <time>2012-01-22T07:55:00Z</time>
      </trkpt>
      <trkpt lat="47.72507" lon="7.41939">
        <ele>252.4833984</ele>
        <time>2012-01-22T07:55:01Z</time>
      </trkpt>
      <trkpt lat="47.72552" lon="7.41941">
        <ele>252.9639893</ele>
        <time>2012-01-22T07:55:09Z</time>
      </trkpt>
      <trkpt lat="47.72593" lon="7.41943">
        <ele>252.0028076</ele>
        <time>2012-01-22T07:55:16Z</time>
      </trkpt>
      <trkpt lat="47.72635" lon="7.41943">
        <ele>252.4833984</ele>
        <time>2012-01-22T07:55:23Z</time>
      </trkpt>
      <trkpt lat="47.72664" lon="7.41945">
        <ele>253.4447021</ele>
        <time>2012-01-22T07:55:28Z</time>
      </trkpt>
      <trkpt lat="47.72708" lon="7.41947">
        <ele>253.4447021</ele>
        <time>2012-01-22T07:55:35Z</time>
      </trkpt>
      <trkpt lat="47.7275" lon="7.41943">
        <ele>253.4447021</ele>
        <time>2012-01-22T07:55:42Z</time>
      </trkpt>
      <trkpt lat="47.72789" lon="7.41944">
        <ele>254.4060059</ele>
        <time>2012-01-22T07:55:49Z</time>
      </trkpt>
      <trkpt lat="47.7281" lon="7.41942">
        <ele>256.3287354</ele>
        <time>2012-01-22T07:55:53Z</time>
      </trkpt>
      <trkpt lat="47.72823" lon="7.41935">
        <ele>256.8093262</ele>
        <time>2012-01-22T07:55:56Z</time>
      </trkpt>
      <trkpt lat="47.72838" lon="7.41936">
        <ele>255.3673096</ele>
        <time>2012-01-22T07:55:59Z</time>
      </trkpt>
      <trkpt lat="47.72851" lon="7.41951">
        <ele>254.4060059</ele>
        <time>2012-01-22T07:56:03Z</time>
      </trkpt>
      <trkpt lat="47.72851" lon="7.4197">
        <ele>254.4060059</ele>
        <time>2012-01-22T07:56:06Z</time>
      </trkpt>
      <trkpt lat="47.7284" lon="7.42032">
        <ele>255.3673096</ele>
        <time>2012-01-22T07:56:14Z</time>
      </trkpt>
      <trkpt lat="47.72831" lon="7.42063">
        <ele>254.8865967</ele>
        <time>2012-01-22T07:56:18Z</time>
      </trkpt>
      <trkpt lat="47.72827" lon="7.4211">
        <ele>255.8480225</ele>
        <time>2012-01-22T07:56:24Z</time>
      </trkpt>
      <trkpt lat="47.72825" lon="7.42125">
        <ele>256.3287354</ele>
        <time>2012-01-22T07:56:26Z</time>
      </trkpt>
      <trkpt lat="47.72826" lon="7.42186">
        <ele>256.3287354</ele>
        <time>2012-01-22T07:56:33Z</time>
      </trkpt>
      <trkpt lat="47.72825" lon="7.42246">
        <ele>258.2513428</ele>
        <time>2012-01-22T07:56:41Z</time>
      </trkpt>
      <trkpt lat="47.72824" lon="7.42289">
        <ele>259.2126465</ele>
        <time>2012-01-22T07:56:47Z</time>
      </trkpt>
      <trkpt lat="47.72823" lon="7.42326">
        <ele>259.6933594</ele>
        <time>2012-01-22T07:56:53Z</time>
      </trkpt>
      <trkpt lat="47.72822" lon="7.42342">
        <ele>259.2126465</ele>
        <time>2012-01-22T07:56:56Z</time>
      </trkpt>
      <trkpt lat="47.72823" lon="7.42356">
        <ele>259.6933594</ele>
        <time>2012-01-22T07:56:59Z</time>
      </trkpt>
      <trkpt lat="47.72817" lon="7.42365">
        <ele>256.8093262</ele>
        <time>2012-01-22T07:57:04Z</time>
      </trkpt>
      <trkpt lat="47.72815" lon="7.42364">
        <ele>255.8480225</ele>
        <time>2012-01-22T07:57:05Z</time>
      </trkpt>
      <trkpt lat="47.72792" lon="7.42359">
        <ele>252.9639893</ele>
        <time>2012-01-22T07:57:12Z</time>
      </trkpt>
      <trkpt lat="47.72787" lon="7.42356">
        <ele>252.9639893</ele>
        <time>2012-01-22T07:57:16Z</time>
      </trkpt>
      <trkpt lat="47.72787" lon="7.42354">
        <ele>252.4833984</ele>
        <time>2012-01-22T07:57:25Z</time>
      </trkpt>
      <trkpt lat="47.72788" lon="7.42354">
        <ele>252.9639893</ele>
        <time>2012-01-22T07:57:30Z</time>
      </trkpt>
      <trkpt lat="47.72789" lon="7.42354">
        <ele>252.9639893</ele>
        <time>2012-01-22T07:57:40Z</time>
      </trkpt>
      <trkpt lat="47.72788" lon="7.42353">
        <ele>251.0413818</ele>
        <time>2012-01-22T07:57:49Z</time>
      </trkpt>
      <trkpt lat="47.72789" lon="7.42352">
        <ele>251.5220947</ele>
        <time>2012-01-22T07:57:54Z</time>
      </trkpt>
      <trkpt lat="47.72787" lon="7.4235">
        <ele>250.0802002</ele>
        <time>2012-01-22T07:58:02Z</time>
      </trkpt>
      <trkpt lat="47.72786" lon="7.4235">
        <ele>249.5994873</ele>
        <time>2012-01-22T07:58:14Z</time>
      </trkpt>
      <trkpt lat="47.72784" lon="7.42353">
        <ele>248.6381836</ele>
        <time>2012-01-22T07:58:21Z</time>
      </trkpt>
      <trkpt lat="47.72783" lon="7.42357">
        <ele>247.6767578</ele>
        <time>2012-01-22T07:58:29Z</time>
      </trkpt>
      <trkpt lat="47.72784" lon="7.42361">
        <ele>247.6767578</ele>
        <time>2012-01-22T07:58:36Z</time>
      </trkpt>
      <trkpt lat="47.72784" lon="7.42362">
        <ele>248.1575928</ele>
        <time>2012-01-22T07:58:45Z</time>
      </trkpt>
      <trkpt lat="47.72785" lon="7.42362">
        <ele>249.1187744</ele>
        <time>2012-01-22T07:58:53Z</time>
      </trkpt>
      <trkpt lat="47.72785" lon="7.42362">
        <ele>249.5994873</ele>
        <time>2012-01-22T07:59:09Z</time>
      </trkpt>
      <trkpt lat="47.72783" lon="7.42361">
        <ele>253.4447021</ele>
        <time>2012-01-22T07:59:54Z</time>
      </trkpt>
      <trkpt lat="47.72784" lon="7.4236">
        <ele>251.0413818</ele>
        <time>2012-01-22T08:00:13Z</time>
      </trkpt>
      <trkpt lat="47.72784" lon="7.4236">
        <ele>251.0413818</ele>
        <time>2012-01-22T08:00:16Z</time>
      </trkpt>
      <trkpt lat="47.72784" lon="7.42361">
        <ele>251.0413818</ele>
        <time>2012-01-22T08:00:21Z</time>
      </trkpt>
      <trkpt lat="47.72784" lon="7.4236">
        <ele>250.560791</ele>
        <time>2012-01-22T08:00:36Z</time>
      </trkpt>
      <trkpt lat="47.72784" lon="7.42359">
        <ele>250.0802002</ele>
        <time>2012-01-22T08:00:41Z</time>
      </trkpt>
      <trkpt lat="47.72784" lon="7.42361">
        <ele>249.5994873</ele>
        <time>2012-01-22T08:00:51Z</time>
      </trkpt>
      <trkpt lat="47.72784" lon="7.4236">
        <ele>249.1187744</ele>
        <time>2012-01-22T08:00:55Z</time>
      </trkpt>
      <trkpt lat="47.72784" lon="7.42361">
        <ele>246.7154541</ele>
        <time>2012-01-22T08:01:28Z</time>
      </trkpt>
      <trkpt lat="47.72784" lon="7.42362">
        <ele>249.1187744</ele>
        <time>2012-01-22T08:01:46Z</time>
      </trkpt>
      <trkpt lat="47.72785" lon="7.42363">
        <ele>251.5220947</ele>
        <time>2012-01-22T08:02:09Z</time>
      </trkpt>
      <trkpt lat="47.72785" lon="7.42363">
        <ele>251.5220947</ele>
        <time>2012-01-22T08:02:36Z</time>
      </trkpt>
      <trkpt lat="47.72785" lon="7.42363">
        <ele>252.0028076</ele>
        <time>2012-01-22T08:02:49Z</time>
      </trkpt>
      <trkpt lat="47.72786" lon="7.42362">
        <ele>249.1187744</ele>
        <time>2012-01-22T08:02:56Z</time>
      </trkpt>
      <trkpt lat="47.72785" lon="7.42364">
        <ele>245.2734375</ele>
        <time>2012-01-22T08:03:10Z</time>
      </trkpt>
      <trkpt lat="47.72784" lon="7.42365">
        <ele>244.3122559</ele>
        <time>2012-01-22T08:03:25Z</time>
      </trkpt>
      <trkpt lat="47.72784" lon="7.42364">
        <ele>243.831543</ele>
        <time>2012-01-22T08:03:37Z</time>
      </trkpt>
      <trkpt lat="47.72785" lon="7.42364">
        <ele>242.3896484</ele>
        <time>2012-01-22T08:03:44Z</time>
      </trkpt>
      <trkpt lat="47.72796" lon="7.42366">
        <ele>242.3896484</ele>
        <time>2012-01-22T08:03:49Z</time>
      </trkpt>
      <trkpt lat="47.72809" lon="7.42369">
        <ele>243.831543</ele>
        <time>2012-01-22T08:03:53Z</time>
      </trkpt>
      <trkpt lat="47.72813" lon="7.4237">
        <ele>244.3122559</ele>
        <time>2012-01-22T08:03:55Z</time>
      </trkpt>
      <trkpt lat="47.72821" lon="7.42371">
        <ele>246.7154541</ele>
        <time>2012-01-22T08:04:01Z</time>
      </trkpt>
      <trkpt lat="47.72825" lon="7.42357">
        <ele>248.1575928</ele>
        <time>2012-01-22T08:04:06Z</time>
      </trkpt>
      <trkpt lat="47.72826" lon="7.42353">
        <ele>248.6381836</ele>
        <time>2012-01-22T08:04:07Z</time>
      </trkpt>
      <trkpt lat="47.72829" lon="7.4231">
        <ele>251.0413818</ele>
        <time>2012-01-22T08:04:15Z</time>
      </trkpt>
      <trkpt lat="47.72831" lon="7.42263">
        <ele>253.4447021</ele>
        <time>2012-01-22T08:04:23Z</time>
      </trkpt>
      <trkpt lat="47.72836" lon="7.42213">
        <ele>254.8865967</ele>
        <time>2012-01-22T08:04:30Z</time>
      </trkpt>
      <trkpt lat="47.72836" lon="7.42158">
        <ele>255.3673096</ele>
        <time>2012-01-22T08:04:38Z</time>
      </trkpt>
      <trkpt lat="47.7284" lon="7.42105">
        <ele>254.4060059</ele>
        <time>2012-01-22T08:04:46Z</time>
      </trkpt>
      <trkpt lat="47.72845" lon="7.4208">
        <ele>256.3287354</ele>
        <time>2012-01-22T08:04:50Z</time>
      </trkpt>
      <trkpt lat="47.72852" lon="7.42032">
        <ele>257.2900391</ele>
        <time>2012-01-22T08:04:57Z</time>
      </trkpt>
      <trkpt lat="47.72863" lon="7.41963">
        <ele>255.8480225</ele>
        <time>2012-01-22T08:05:07Z</time>
      </trkpt>
      <trkpt lat="47.72865" lon="7.41912">
        <ele>257.770752</ele>
        <time>2012-01-22T08:05:14Z</time>
      </trkpt>
      <trkpt lat="47.72866" lon="7.41897">
        <ele>258.2513428</ele>
        <time>2012-01-22T08:05:16Z</time>
      </trkpt>
      <trkpt lat="47.72869" lon="7.41883">
        <ele>257.770752</ele>
        <time>2012-01-22T08:05:18Z</time>
      </trkpt>
      <trkpt lat="47.72873" lon="7.41856">
        <ele>257.770752</ele>
        <time>2012-01-22T08:05:22Z</time>
      </trkpt>
      <trkpt lat="47.72876" lon="7.41801">
        <ele>260.1739502</ele>
        <time>2012-01-22T08:05:29Z</time>
      </trkpt>
      <trkpt lat="47.72879" lon="7.41758">
        <ele>259.6933594</ele>
        <time>2012-01-22T08:05:35Z</time>
      </trkpt>
      <trkpt lat="47.72883" lon="7.41727">
        <ele>256.3287354</ele>
        <time>2012-01-22T08:05:40Z</time>
      </trkpt>
      <trkpt lat="47.72884" lon="7.41703">
        <ele>255.3673096</ele>
        <time>2012-01-22T08:05:44Z</time>
      </trkpt>
      <trkpt lat="47.72884" lon="7.41675">
        <ele>257.770752</ele>
        <time>2012-01-22T08:05:50Z</time>
      </trkpt>
      <trkpt lat="47.72892" lon="7.41663">
        <ele>256.8093262</ele>
        <time>2012-01-22T08:05:54Z</time>
      </trkpt>
      <trkpt lat="47.7291" lon="7.41661">
        <ele>255.3673096</ele>
        <time>2012-01-22T08:05:59Z</time>
      </trkpt>
      <trkpt lat="47.72923" lon="7.4165">
        <ele>254.4060059</ele>
        <time>2012-01-22T08:06:03Z</time>
      </trkpt>
      <trkpt lat="47.72927" lon="7.41627">
        <ele>254.8865967</ele>
        <time>2012-01-22T08:06:07Z</time>
      </trkpt>
      <trkpt lat="47.72929" lon="7.41593">
        <ele>257.2900391</ele>
        <time>2012-01-22T08:06:12Z</time>
      </trkpt>
      <trkpt lat="47.7293" lon="7.41585">
        <ele>257.770752</ele>
        <time>2012-01-22T08:06:13Z</time>
      </trkpt>
      <trkpt lat="47.72939" lon="7.41543">
        <ele>262.0965576</ele>
        <time>2012-01-22T08:06:19Z</time>
      </trkpt>
      <trkpt lat="47.7295" lon="7.415">
        <ele>262.0965576</ele>
        <time>2012-01-22T08:06:26Z</time>
      </trkpt>
      <trkpt lat="47.72963" lon="7.41433">
        <ele>261.6159668</ele>
        <time>2012-01-22T08:06:37Z</time>
      </trkpt>
      <trkpt lat="47.72965" lon="7.4142">
        <ele>261.6159668</ele>
        <time>2012-01-22T08:06:39Z</time>
      </trkpt>
      <trkpt lat="47.72964" lon="7.41359">
        <ele>262.5771484</ele>
        <time>2012-01-22T08:06:48Z</time>
      </trkpt>
      <trkpt lat="47.72962" lon="7.41306">
        <ele>259.2126465</ele>
        <time>2012-01-22T08:06:56Z</time>
      </trkpt>
      <trkpt lat="47.72963" lon="7.41257">
        <ele>259.6933594</ele>
        <time>2012-01-22T08:07:04Z</time>
      </trkpt>
      <trkpt lat="47.72962" lon="7.41212">
        <ele>260.654541</ele>
        <time>2012-01-22T08:07:12Z</time>
      </trkpt>
      <trkpt lat="47.72957" lon="7.41186">
        <ele>260.1739502</ele>
        <time>2012-01-22T08:07:17Z</time>
      </trkpt>
      <trkpt lat="47.72949" lon="7.41153">
        <ele>259.2126465</ele>
        <time>2012-01-22T08:07:24Z</time>
      </trkpt>
      <trkpt lat="47.72941" lon="7.41123">
        <ele>260.1739502</ele>
        <time>2012-01-22T08:07:31Z</time>
      </trkpt>
      <trkpt lat="47.72931" lon="7.41086">
        <ele>260.1739502</ele>
        <time>2012-01-22T08:07:39Z</time>
      </trkpt>
      <trkpt lat="47.72925" lon="7.41049">
        <ele>262.0965576</ele>
        <time>2012-01-22T08:07:47Z</time>
      </trkpt>
      <trkpt lat="47.72924" lon="7.41014">
        <ele>263.0578613</ele>
        <time>2012-01-22T08:07:55Z</time>
      </trkpt>
      <trkpt lat="47.72926" lon="7.40972">
        <ele>264.4998779</ele>
        <time>2012-01-22T08:08:05Z</time>
      </trkpt>
      <trkpt lat="47.72929" lon="7.40935">
        <ele>264.4998779</ele>
        <time>2012-01-22T08:08:14Z</time>
      </trkpt>
      <trkpt lat="47.7293" lon="7.40896">
        <ele>269.7871094</ele>
        <time>2012-01-22T08:08:23Z</time>
      </trkpt>
      <trkpt lat="47.72927" lon="7.40853">
        <ele>271.7097168</ele>
        <time>2012-01-22T08:08:32Z</time>
      </trkpt>
      <trkpt lat="47.72922" lon="7.40827">
        <ele>271.229126</ele>
        <time>2012-01-22T08:08:38Z</time>
      </trkpt>
      <trkpt lat="47.72915" lon="7.40809">
        <ele>272.1904297</ele>
        <time>2012-01-22T08:08:43Z</time>
      </trkpt>
      <trkpt lat="47.72897" lon="7.40798">
        <ele>271.229126</ele>
        <time>2012-01-22T08:08:49Z</time>
      </trkpt>
      <trkpt lat="47.72868" lon="7.40791">
        <ele>272.1904297</ele>
        <time>2012-01-22T08:08:58Z</time>
      </trkpt>
      <trkpt lat="47.72841" lon="7.40788">
        <ele>273.1518555</ele>
        <time>2012-01-22T08:09:06Z</time>
      </trkpt>
      <trkpt lat="47.72818" lon="7.40785">
        <ele>274.59375</ele>
        <time>2012-01-22T08:09:13Z</time>
      </trkpt>
      <trkpt lat="47.72813" lon="7.40781">
        <ele>275.0744629</ele>
        <time>2012-01-22T08:09:15Z</time>
      </trkpt>
      <trkpt lat="47.72807" lon="7.40759">
        <ele>276.9970703</ele>
        <time>2012-01-22T08:09:21Z</time>
      </trkpt>
      <trkpt lat="47.728" lon="7.40737">
        <ele>278.4389648</ele>
        <time>2012-01-22T08:09:26Z</time>
      </trkpt>
      <trkpt lat="47.7278" lon="7.40711">
        <ele>279.4002686</ele>
        <time>2012-01-22T08:09:34Z</time>
      </trkpt>
      <trkpt lat="47.72762" lon="7.4068">
        <ele>281.8035889</ele>
        <time>2012-01-22T08:09:43Z</time>
      </trkpt>
      <trkpt lat="47.72751" lon="7.40656">
        <ele>283.2456055</ele>
        <time>2012-01-22T08:09:50Z</time>
      </trkpt>
      <trkpt lat="47.72741" lon="7.40644">
        <ele>284.6876221</ele>
        <time>2012-01-22T08:09:55Z</time>
      </trkpt>
      <trkpt lat="47.72723" lon="7.40641">
        <ele>283.7261963</ele>
        <time>2012-01-22T08:10:02Z</time>
      </trkpt>
      <trkpt lat="47.72703" lon="7.40642">
        <ele>285.6488037</ele>
        <time>2012-01-22T08:10:10Z</time>
      </trkpt>
      <trkpt lat="47.72683" lon="7.40648">
        <ele>287.0908203</ele>
        <time>2012-01-22T08:10:18Z</time>
      </trkpt>
      <trkpt lat="47.72681" lon="7.40669">
        <ele>289.4941406</ele>
        <time>2012-01-22T08:10:24Z</time>
      </trkpt>
      <trkpt lat="47.72679" lon="7.40702">
        <ele>289.4941406</ele>
        <time>2012-01-22T08:10:32Z</time>
      </trkpt>
      <trkpt lat="47.72679" lon="7.40733">
        <ele>292.3781738</ele>
        <time>2012-01-22T08:10:40Z</time>
      </trkpt>
      <trkpt lat="47.7268" lon="7.40756">
        <ele>293.8200684</ele>
        <time>2012-01-22T08:10:46Z</time>
      </trkpt>
      <trkpt lat="47.72681" lon="7.40765">
        <ele>294.3007812</ele>
        <time>2012-01-22T08:10:48Z</time>
      </trkpt>
      <trkpt lat="47.72675" lon="7.40773">
        <ele>293.8200684</ele>
        <time>2012-01-22T08:10:52Z</time>
      </trkpt>
      <trkpt lat="47.72674" lon="7.40773">
        <ele>294.3007812</ele>
        <time>2012-01-22T08:10:53Z</time>
      </trkpt>
      <trkpt lat="47.7266" lon="7.40776">
        <ele>291.8974609</ele>
        <time>2012-01-22T08:11:03Z</time>
      </trkpt>
      <trkpt lat="47.72658" lon="7.40776">
        <ele>291.8974609</ele>
        <time>2012-01-22T08:11:06Z</time>
      </trkpt>
      <trkpt lat="47.7265" lon="7.40776">
        <ele>290.9361572</ele>
        <time>2012-01-22T08:11:13Z</time>
      </trkpt>
      <trkpt lat="47.7264" lon="7.40778">
        <ele>289.4941406</ele>
        <time>2012-01-22T08:11:19Z</time>
      </trkpt>
      <trkpt lat="47.72633" lon="7.4078">
        <ele>288.0522461</ele>
        <time>2012-01-22T08:11:23Z</time>
      </trkpt>
      <trkpt lat="47.72621" lon="7.40785">
        <ele>285.1682129</ele>
        <time>2012-01-22T08:11:29Z</time>
      </trkpt>
      <trkpt lat="47.72601" lon="7.40793">
        <ele>284.6876221</ele>
        <time>2012-01-22T08:11:36Z</time>
      </trkpt>
      <trkpt lat="47.72578" lon="7.40799">
        <ele>282.7650146</ele>
        <time>2012-01-22T08:11:40Z</time>
      </trkpt>
      <trkpt lat="47.72543" lon="7.4081">
        <ele>278.4389648</ele>
        <time>2012-01-22T08:11:44Z</time>
      </trkpt>
      <trkpt lat="47.72514" lon="7.40816">
        <ele>275.5550537</ele>
        <time>2012-01-22T08:11:47Z</time>
      </trkpt>
      <trkpt lat="47.72477" lon="7.40838">
        <ele>272.6711426</ele>
        <time>2012-01-22T08:11:51Z</time>
      </trkpt>
      <trkpt lat="47.7247" lon="7.40848">
        <ele>271.7097168</ele>
        <time>2012-01-22T08:11:52Z</time>
      </trkpt>
      <trkpt lat="47.7244" lon="7.40887">
        <ele>269.3065186</ele>
        <time>2012-01-22T08:11:56Z</time>
      </trkpt>
      <trkpt lat="47.72415" lon="7.40938">
        <ele>266.4224854</ele>
        <time>2012-01-22T08:12:01Z</time>
      </trkpt>
      <trkpt lat="47.72402" lon="7.40959">
        <ele>264.4998779</ele>
        <time>2012-01-22T08:12:04Z</time>
      </trkpt>
      <trkpt lat="47.72384" lon="7.40963">
        <ele>263.0578613</ele>
        <time>2012-01-22T08:12:08Z</time>
      </trkpt>
      <trkpt lat="47.7238" lon="7.4096">
        <ele>263.0578613</ele>
        <time>2012-01-22T08:12:09Z</time>
      </trkpt>
      <trkpt lat="47.72358" lon="7.40933">
        <ele>265.4613037</ele>
        <time>2012-01-22T08:12:16Z</time>
      </trkpt>
      <trkpt lat="47.72345" lon="7.40921">
        <ele>266.9031982</ele>
        <time>2012-01-22T08:12:21Z</time>
      </trkpt>
      <trkpt lat="47.72336" lon="7.40904">
        <ele>268.8258057</ele>
        <time>2012-01-22T08:12:26Z</time>
      </trkpt>
      <trkpt lat="47.72326" lon="7.40884">
        <ele>272.1904297</ele>
        <time>2012-01-22T08:12:32Z</time>
      </trkpt>
      <trkpt lat="47.72312" lon="7.40868">
        <ele>276.5163574</ele>
        <time>2012-01-22T08:12:39Z</time>
      </trkpt>
      <trkpt lat="47.72301" lon="7.40851">
        <ele>277.4776611</ele>
        <time>2012-01-22T08:12:45Z</time>
      </trkpt>
      <trkpt lat="47.72295" lon="7.40828">
        <ele>278.9196777</ele>
        <time>2012-01-22T08:12:51Z</time>
      </trkpt>
      <trkpt lat="47.72293" lon="7.40817">
        <ele>279.8808594</ele>
        <time>2012-01-22T08:12:54Z</time>
      </trkpt>
      <trkpt lat="47.72285" lon="7.40813">
        <ele>281.322998</ele>
        <time>2012-01-22T08:12:58Z</time>
      </trkpt>
      <trkpt lat="47.72267" lon="7.40814">
        <ele>278.9196777</ele>
        <time>2012-01-22T08:13:05Z</time>
      </trkpt>
      <trkpt lat="47.72259" lon="7.40809">
        <ele>277.4776611</ele>
        <time>2012-01-22T08:13:08Z</time>
      </trkpt>
      <trkpt lat="47.72253" lon="7.40794">
        <ele>279.4002686</ele>
        <time>2012-01-22T08:13:13Z</time>
      </trkpt>
      <trkpt lat="47.72242" lon="7.40771">
        <ele>281.322998</ele>
        <time>2012-01-22T08:13:20Z</time>
      </trkpt>
      <trkpt lat="47.7223" lon="7.40749">
        <ele>282.7650146</ele>
        <time>2012-01-22T08:13:27Z</time>
      </trkpt>
      <trkpt lat="47.72215" lon="7.40722">
        <ele>284.6876221</ele>
        <time>2012-01-22T08:13:35Z</time>
      </trkpt>
      <trkpt lat="47.722" lon="7.40692">
        <ele>284.6876221</ele>
        <time>2012-01-22T08:13:43Z</time>
      </trkpt>
      <trkpt lat="47.72187" lon="7.40663">
        <ele>283.2456055</ele>
        <time>2012-01-22T08:13:50Z</time>
      </trkpt>
      <trkpt lat="47.72177" lon="7.40636">
        <ele>283.7261963</ele>
        <time>2012-01-22T08:13:57Z</time>
      </trkpt>
      <trkpt lat="47.72172" lon="7.40614">
        <ele>284.6876221</ele>
        <time>2012-01-22T08:14:02Z</time>
      </trkpt>
      <trkpt lat="47.72163" lon="7.40576">
        <ele>286.1295166</ele>
        <time>2012-01-22T08:14:10Z</time>
      </trkpt>
      <trkpt lat="47.72153" lon="7.4055">
        <ele>286.6102295</ele>
        <time>2012-01-22T08:14:16Z</time>
      </trkpt>
      <trkpt lat="47.7214" lon="7.4051">
        <ele>286.1295166</ele>
        <time>2012-01-22T08:14:24Z</time>
      </trkpt>
      <trkpt lat="47.72129" lon="7.40477">
        <ele>288.532959</ele>
        <time>2012-01-22T08:14:31Z</time>
      </trkpt>
      <trkpt lat="47.72119" lon="7.40445">
        <ele>290.4555664</ele>
        <time>2012-01-22T08:14:38Z</time>
      </trkpt>
      <trkpt lat="47.72128" lon="7.40434">
        <ele>290.4555664</ele>
        <time>2012-01-22T08:14:42Z</time>
      </trkpt>
      <trkpt lat="47.7215" lon="7.4043">
        <ele>289.0135498</ele>
        <time>2012-01-22T08:14:49Z</time>
      </trkpt>
      <trkpt lat="47.72182" lon="7.40425">
        <ele>291.416748</ele>
        <time>2012-01-22T08:14:59Z</time>
      </trkpt>
      <trkpt lat="47.72213" lon="7.40423">
        <ele>293.3393555</ele>
        <time>2012-01-22T08:15:09Z</time>
      </trkpt>
      <trkpt lat="47.72234" lon="7.40429">
        <ele>292.3781738</ele>
        <time>2012-01-22T08:15:17Z</time>
      </trkpt>
      <trkpt lat="47.72252" lon="7.40435">
        <ele>292.3781738</ele>
        <time>2012-01-22T08:15:24Z</time>
      </trkpt>
      <trkpt lat="47.72266" lon="7.40436">
        <ele>293.8200684</ele>
        <time>2012-01-22T08:15:31Z</time>
      </trkpt>
      <trkpt lat="47.72267" lon="7.40423">
        <ele>295.7426758</ele>
        <time>2012-01-22T08:15:37Z</time>
      </trkpt>
      <trkpt lat="47.72267" lon="7.40421">
        <ele>296.2235107</ele>
        <time>2012-01-22T08:15:38Z</time>
      </trkpt>
      <trkpt lat="47.72267" lon="7.40416">
        <ele>297.1846924</ele>
        <time>2012-01-22T08:15:42Z</time>
      </trkpt>
      <trkpt lat="47.72267" lon="7.40406">
        <ele>299.1072998</ele>
        <time>2012-01-22T08:15:49Z</time>
      </trkpt>
      <trkpt lat="47.72266" lon="7.4039">
        <ele>298.1461182</ele>
        <time>2012-01-22T08:15:55Z</time>
      </trkpt>
      <trkpt lat="47.72266" lon="7.40368">
        <ele>300.0687256</ele>
        <time>2012-01-22T08:16:01Z</time>
      </trkpt>
      <trkpt lat="47.72266" lon="7.40358">
        <ele>300.0687256</ele>
        <time>2012-01-22T08:16:03Z</time>
      </trkpt>
      <trkpt lat="47.72266" lon="7.4031">
        <ele>299.5880127</ele>
        <time>2012-01-22T08:16:10Z</time>
      </trkpt>
      <trkpt lat="47.72265" lon="7.40262">
        <ele>301.0299072</ele>
        <time>2012-01-22T08:16:17Z</time>
      </trkpt>
      <trkpt lat="47.72264" lon="7.4023">
        <ele>301.991333</ele>
        <time>2012-01-22T08:16:22Z</time>
      </trkpt>
      <trkpt lat="47.72265" lon="7.40158">
        <ele>303.4332275</ele>
        <time>2012-01-22T08:16:34Z</time>
      </trkpt>
      <trkpt lat="47.72263" lon="7.40121">
        <ele>303.4332275</ele>
        <time>2012-01-22T08:16:41Z</time>
      </trkpt>
      <trkpt lat="47.72263" lon="7.40072">
        <ele>301.991333</ele>
        <time>2012-01-22T08:16:51Z</time>
      </trkpt>
      <trkpt lat="47.72263" lon="7.40034">
        <ele>302.4719238</ele>
        <time>2012-01-22T08:16:59Z</time>
      </trkpt>
      <trkpt lat="47.72262" lon="7.39995">
        <ele>302.9525146</ele>
        <time>2012-01-22T08:17:07Z</time>
      </trkpt>
      <trkpt lat="47.72261" lon="7.39952">
        <ele>304.3946533</ele>
        <time>2012-01-22T08:17:16Z</time>
      </trkpt>
      <trkpt lat="47.72261" lon="7.39918">
        <ele>306.7978516</ele>
        <time>2012-01-22T08:17:24Z</time>
      </trkpt>
      <trkpt lat="47.72258" lon="7.39891">
        <ele>306.3172607</ele>
        <time>2012-01-22T08:17:31Z</time>
      </trkpt>
      <trkpt lat="47.72255" lon="7.39861">
        <ele>305.8366699</ele>
        <time>2012-01-22T08:17:38Z</time>
      </trkpt>
      <trkpt lat="47.72252" lon="7.39819">
        <ele>306.7978516</ele>
        <time>2012-01-22T08:17:47Z</time>
      </trkpt>
      <trkpt lat="47.72249" lon="7.39778">
        <ele>307.2785645</ele>
        <time>2012-01-22T08:17:56Z</time>
      </trkpt>
      <trkpt lat="47.72247" lon="7.39756">
        <ele>307.7592773</ele>
        <time>2012-01-22T08:18:01Z</time>
      </trkpt>
      <trkpt lat="47.72243" lon="7.3972">
        <ele>308.2398682</ele>
        <time>2012-01-22T08:18:09Z</time>
      </trkpt>
      <trkpt lat="47.7224" lon="7.39682">
        <ele>306.7978516</ele>
        <time>2012-01-22T08:18:17Z</time>
      </trkpt>
      <trkpt lat="47.72235" lon="7.39643">
        <ele>307.7592773</ele>
        <time>2012-01-22T08:18:25Z</time>
      </trkpt>
      <trkpt lat="47.72237" lon="7.39617">
        <ele>306.7978516</ele>
        <time>2012-01-22T08:18:30Z</time>
      </trkpt>
      <trkpt lat="47.72246" lon="7.39611">
        <ele>305.8366699</ele>
        <time>2012-01-22T08:18:33Z</time>
      </trkpt>
      <trkpt lat="47.72278" lon="7.39603">
        <ele>304.3946533</ele>
        <time>2012-01-22T08:18:42Z</time>
      </trkpt>
      <trkpt lat="47.72307" lon="7.39587">
        <ele>302.9525146</ele>
        <time>2012-01-22T08:18:50Z</time>
      </trkpt>
      <trkpt lat="47.72325" lon="7.39574">
        <ele>302.9525146</ele>
        <time>2012-01-22T08:18:55Z</time>
      </trkpt>
      <trkpt lat="47.72342" lon="7.39568">
        <ele>303.9139404</ele>
        <time>2012-01-22T08:19:01Z</time>
      </trkpt>
      <trkpt lat="47.72353" lon="7.39564">
        <ele>303.9139404</ele>
        <time>2012-01-22T08:19:05Z</time>
      </trkpt>
      <trkpt lat="47.72368" lon="7.39559">
        <ele>305.355957</ele>
        <time>2012-01-22T08:19:10Z</time>
      </trkpt>
      <trkpt lat="47.72382" lon="7.39554">
        <ele>306.3172607</ele>
        <time>2012-01-22T08:19:15Z</time>
      </trkpt>
      <trkpt lat="47.72398" lon="7.39554">
        <ele>307.7592773</ele>
        <time>2012-01-22T08:19:20Z</time>
      </trkpt>
      <trkpt lat="47.72407" lon="7.39568">
        <ele>309.6818848</ele>
        <time>2012-01-22T08:19:24Z</time>
      </trkpt>
      <trkpt lat="47.72421" lon="7.396">
        <ele>314.4884033</ele>
        <time>2012-01-22T08:19:32Z</time>
      </trkpt>
      <trkpt lat="47.72432" lon="7.39628">
        <ele>319.2950439</ele>
        <time>2012-01-22T08:19:39Z</time>
      </trkpt>
      <trkpt lat="47.72442" lon="7.39654">
        <ele>323.1403809</ele>
        <time>2012-01-22T08:19:46Z</time>
      </trkpt>
      <trkpt lat="47.72453" lon="7.39681">
        <ele>324.5822754</ele>
        <time>2012-01-22T08:19:54Z</time>
      </trkpt>
      <trkpt lat="47.72461" lon="7.39703">
        <ele>326.0241699</ele>
        <time>2012-01-22T08:20:00Z</time>
      </trkpt>
      <trkpt lat="47.72469" lon="7.39727">
        <ele>327.4661865</ele>
        <time>2012-01-22T08:20:07Z</time>
      </trkpt>
      <trkpt lat="47.72478" lon="7.39758">
        <ele>327.9467773</ele>
        <time>2012-01-22T08:20:14Z</time>
      </trkpt>
      <trkpt lat="47.72488" lon="7.39795">
        <ele>328.4276123</ele>
        <time>2012-01-22T08:20:21Z</time>
      </trkpt>
      <trkpt lat="47.72498" lon="7.39823">
        <ele>328.4276123</ele>
        <time>2012-01-22T08:20:28Z</time>
      </trkpt>
      <trkpt lat="47.72504" lon="7.39836">
        <ele>328.4276123</ele>
        <time>2012-01-22T08:20:33Z</time>
      </trkpt>
      <trkpt lat="47.72514" lon="7.39838">
        <ele>327.9467773</ele>
        <time>2012-01-22T08:20:40Z</time>
      </trkpt>
      <trkpt lat="47.72515" lon="7.39838">
        <ele>327.4661865</ele>
        <time>2012-01-22T08:20:55Z</time>
      </trkpt>
      <trkpt lat="47.72516" lon="7.39837">
        <ele>329.388916</ele>
        <time>2012-01-22T08:21:17Z</time>
      </trkpt>
      <trkpt lat="47.72517" lon="7.39835">
        <ele>332.75354</ele>
        <time>2012-01-22T08:21:25Z</time>
      </trkpt>
      <trkpt lat="47.72517" lon="7.39835">
        <ele>333.7147217</ele>
        <time>2012-01-22T08:21:31Z</time>
      </trkpt>
      <trkpt lat="47.72517" lon="7.39835">
        <ele>333.7147217</ele>
        <time>2012-01-22T08:21:36Z</time>
      </trkpt>
      <trkpt lat="47.72518" lon="7.39836">
        <ele>332.75354</ele>
        <time>2012-01-22T08:21:44Z</time>
      </trkpt>
      <trkpt lat="47.72524" lon="7.39836">
        <ele>331.7921143</ele>
        <time>2012-01-22T08:21:49Z</time>
      </trkpt>
      <trkpt lat="47.72537" lon="7.39835">
        <ele>330.8309326</ele>
        <time>2012-01-22T08:21:57Z</time>
      </trkpt>
      <trkpt lat="47.72545" lon="7.39836">
        <ele>329.8695068</ele>
        <time>2012-01-22T08:22:04Z</time>
      </trkpt>
      <trkpt lat="47.72552" lon="7.39837">
        <ele>327.4661865</ele>
        <time>2012-01-22T08:22:10Z</time>
      </trkpt>
      <trkpt lat="47.72552" lon="7.39838">
        <ele>324.1015625</ele>
        <time>2012-01-22T08:22:22Z</time>
      </trkpt>
      <trkpt lat="47.72553" lon="7.39838">
        <ele>324.5822754</ele>
        <time>2012-01-22T08:22:28Z</time>
      </trkpt>
      <trkpt lat="47.72553" lon="7.39838">
        <ele>325.0629883</ele>
        <time>2012-01-22T08:22:36Z</time>
      </trkpt>
      <trkpt lat="47.72553" lon="7.39839">
        <ele>324.1015625</ele>
        <time>2012-01-22T08:22:53Z</time>
      </trkpt>
      <trkpt lat="47.72553" lon="7.39839">
        <ele>324.5822754</ele>
        <time>2012-01-22T08:22:56Z</time>
      </trkpt>
      <trkpt lat="47.72553" lon="7.3984">
        <ele>324.1015625</ele>
        <time>2012-01-22T08:23:11Z</time>
      </trkpt>
      <trkpt lat="47.72554" lon="7.3984">
        <ele>322.659668</ele>
        <time>2012-01-22T08:23:58Z</time>
      </trkpt>
      <trkpt lat="47.72567" lon="7.39837">
        <ele>321.6983643</ele>
        <time>2012-01-22T08:24:04Z</time>
      </trkpt>
      <trkpt lat="47.72589" lon="7.39832">
        <ele>320.2563477</ele>
        <time>2012-01-22T08:24:10Z</time>
      </trkpt>
      <trkpt lat="47.7261" lon="7.3983">
        <ele>318.8143311</ele>
        <time>2012-01-22T08:24:14Z</time>
      </trkpt>
      <trkpt lat="47.72647" lon="7.39832">
        <ele>316.8917236</ele>
        <time>2012-01-22T08:24:19Z</time>
      </trkpt>
      <trkpt lat="47.72653" lon="7.39832">
        <ele>316.8917236</ele>
        <time>2012-01-22T08:24:20Z</time>
      </trkpt>
      <trkpt lat="47.72667" lon="7.3984">
        <ele>315.4498291</ele>
        <time>2012-01-22T08:24:24Z</time>
      </trkpt>
      <trkpt lat="47.72669" lon="7.39845">
        <ele>315.4498291</ele>
        <time>2012-01-22T08:24:25Z</time>
      </trkpt>
      <trkpt lat="47.7267" lon="7.39854">
        <ele>315.9304199</ele>
        <time>2012-01-22T08:24:27Z</time>
      </trkpt>
      <trkpt lat="47.72674" lon="7.39884">
        <ele>316.8917236</ele>
        <time>2012-01-22T08:24:34Z</time>
      </trkpt>
      <trkpt lat="47.72674" lon="7.39888">
        <ele>317.3724365</ele>
        <time>2012-01-22T08:24:35Z</time>
      </trkpt>
      <trkpt lat="47.72684" lon="7.39894">
        <ele>317.8530273</ele>
        <time>2012-01-22T08:24:39Z</time>
      </trkpt>
      <trkpt lat="47.7272" lon="7.39869">
        <ele>317.3724365</ele>
        <time>2012-01-22T08:24:49Z</time>
      </trkpt>
      <trkpt lat="47.72752" lon="7.39848">
        <ele>317.8530273</ele>
        <time>2012-01-22T08:24:58Z</time>
      </trkpt>
      <trkpt lat="47.72782" lon="7.3983">
        <ele>318.3336182</ele>
        <time>2012-01-22T08:25:06Z</time>
      </trkpt>
      <trkpt lat="47.728" lon="7.39821">
        <ele>319.2950439</ele>
        <time>2012-01-22T08:25:11Z</time>
      </trkpt>
      <trkpt lat="47.72824" lon="7.39816">
        <ele>320.7370605</ele>
        <time>2012-01-22T08:25:17Z</time>
      </trkpt>
      <trkpt lat="47.72847" lon="7.39808">
        <ele>321.6983643</ele>
        <time>2012-01-22T08:25:23Z</time>
      </trkpt>
      <trkpt lat="47.72865" lon="7.39801">
        <ele>323.1403809</ele>
        <time>2012-01-22T08:25:28Z</time>
      </trkpt>
      <trkpt lat="47.72884" lon="7.39792">
        <ele>325.0629883</ele>
        <time>2012-01-22T08:25:35Z</time>
      </trkpt>
      <trkpt lat="47.72904" lon="7.39785">
        <ele>327.4661865</ele>
        <time>2012-01-22T08:25:43Z</time>
      </trkpt>
      <trkpt lat="47.72923" lon="7.39776">
        <ele>328.9083252</ele>
        <time>2012-01-22T08:25:51Z</time>
      </trkpt>
      <trkpt lat="47.72937" lon="7.39767">
        <ele>328.9083252</ele>
        <time>2012-01-22T08:25:58Z</time>
      </trkpt>
      <trkpt lat="47.72955" lon="7.39757">
        <ele>329.388916</ele>
        <time>2012-01-22T08:26:06Z</time>
      </trkpt>
      <trkpt lat="47.7297" lon="7.39748">
        <ele>329.8695068</ele>
        <time>2012-01-22T08:26:11Z</time>
      </trkpt>
      <trkpt lat="47.72976" lon="7.39746">
        <ele>329.8695068</ele>
        <time>2012-01-22T08:26:14Z</time>
      </trkpt>
      <trkpt lat="47.72977" lon="7.39735">
        <ele>329.8695068</ele>
        <time>2012-01-22T08:26:18Z</time>
      </trkpt>
      <trkpt lat="47.72976" lon="7.39732">
        <ele>329.388916</ele>
        <time>2012-01-22T08:26:19Z</time>
      </trkpt>
      <trkpt lat="47.72975" lon="7.39722">
        <ele>328.4276123</ele>
        <time>2012-01-22T08:26:22Z</time>
      </trkpt>
      <trkpt lat="47.72975" lon="7.39712">
        <ele>329.8695068</ele>
        <time>2012-01-22T08:26:25Z</time>
      </trkpt>
      <trkpt lat="47.72975" lon="7.397">
        <ele>327.9467773</ele>
        <time>2012-01-22T08:26:29Z</time>
      </trkpt>
      <trkpt lat="47.72974" lon="7.39681">
        <ele>325.0629883</ele>
        <time>2012-01-22T08:26:34Z</time>
      </trkpt>
      <trkpt lat="47.72971" lon="7.39658">
        <ele>325.0629883</ele>
        <time>2012-01-22T08:26:39Z</time>
      </trkpt>
      <trkpt lat="47.72969" lon="7.39652">
        <ele>327.4661865</ele>
        <time>2012-01-22T08:26:40Z</time>
      </trkpt>
      <trkpt lat="47.7296" lon="7.39625">
        <ele>332.2728271</ele>
        <time>2012-01-22T08:26:45Z</time>
      </trkpt>
      <trkpt lat="47.72953" lon="7.39608">
        <ele>336.1181641</ele>
        <time>2012-01-22T08:26:49Z</time>
      </trkpt>
      <trkpt lat="47.72948" lon="7.39594">
        <ele>338.5214844</ele>
        <time>2012-01-22T08:26:51Z</time>
      </trkpt>
      <trkpt lat="47.7294" lon="7.39583">
        <ele>338.5214844</ele>
        <time>2012-01-22T08:26:53Z</time>
      </trkpt>
      <trkpt lat="47.72934" lon="7.39571">
        <ele>338.5214844</ele>
        <time>2012-01-22T08:26:56Z</time>
      </trkpt>
      <trkpt lat="47.72931" lon="7.39558">
        <ele>339.0020752</ele>
        <time>2012-01-22T08:27:01Z</time>
      </trkpt>
      <trkpt lat="47.7293" lon="7.39552">
        <ele>338.5214844</ele>
        <time>2012-01-22T08:27:03Z</time>
      </trkpt>
      <trkpt lat="47.72928" lon="7.39545">
        <ele>339.482666</ele>
        <time>2012-01-22T08:27:05Z</time>
      </trkpt>
      <trkpt lat="47.72927" lon="7.39536">
        <ele>339.9633789</ele>
        <time>2012-01-22T08:27:10Z</time>
      </trkpt>
      <trkpt lat="47.72925" lon="7.39521">
        <ele>337.0794678</ele>
        <time>2012-01-22T08:27:18Z</time>
      </trkpt>
      <trkpt lat="47.72923" lon="7.39513">
        <ele>336.1181641</ele>
        <time>2012-01-22T08:27:25Z</time>
      </trkpt>
      <trkpt lat="47.72923" lon="7.39511">
        <ele>334.6761475</ele>
        <time>2012-01-22T08:27:26Z</time>
      </trkpt>
      <trkpt lat="47.72925" lon="7.39503">
        <ele>334.6761475</ele>
        <time>2012-01-22T08:27:32Z</time>
      </trkpt>
      <trkpt lat="47.72925" lon="7.39502">
        <ele>335.1567383</ele>
        <time>2012-01-22T08:27:33Z</time>
      </trkpt>
      <trkpt lat="47.72923" lon="7.39497">
        <ele>334.1954346</ele>
        <time>2012-01-22T08:27:39Z</time>
      </trkpt>
      <trkpt lat="47.72921" lon="7.3949">
        <ele>334.1954346</ele>
        <time>2012-01-22T08:27:42Z</time>
      </trkpt>
      <trkpt lat="47.7292" lon="7.39474">
        <ele>334.1954346</ele>
        <time>2012-01-22T08:27:47Z</time>
      </trkpt>
      <trkpt lat="47.72916" lon="7.39463">
        <ele>333.7147217</ele>
        <time>2012-01-22T08:27:50Z</time>
      </trkpt>
      <trkpt lat="47.72906" lon="7.39452">
        <ele>333.7147217</ele>
        <time>2012-01-22T08:27:54Z</time>
      </trkpt>
      <trkpt lat="47.72902" lon="7.39431">
        <ele>330.3502197</ele>
        <time>2012-01-22T08:27:59Z</time>
      </trkpt>
      <trkpt lat="47.72904" lon="7.3941">
        <ele>327.9467773</ele>
        <time>2012-01-22T08:28:03Z</time>
      </trkpt>
      <trkpt lat="47.72905" lon="7.39405">
        <ele>326.9855957</ele>
        <time>2012-01-22T08:28:04Z</time>
      </trkpt>
      <trkpt lat="47.72902" lon="7.39386">
        <ele>328.9083252</ele>
        <time>2012-01-22T08:28:08Z</time>
      </trkpt>
      <trkpt lat="47.72894" lon="7.39364">
        <ele>329.388916</ele>
        <time>2012-01-22T08:28:13Z</time>
      </trkpt>
      <trkpt lat="47.7289" lon="7.39327">
        <ele>323.1403809</ele>
        <time>2012-01-22T08:28:19Z</time>
      </trkpt>
      <trkpt lat="47.72889" lon="7.39316">
        <ele>320.7370605</ele>
        <time>2012-01-22T08:28:22Z</time>
      </trkpt>
      <trkpt lat="47.729" lon="7.39308">
        <ele>317.3724365</ele>
        <time>2012-01-22T08:28:26Z</time>
      </trkpt>
      <trkpt lat="47.72919" lon="7.39299">
        <ele>315.4498291</ele>
        <time>2012-01-22T08:28:29Z</time>
      </trkpt>
      <trkpt lat="47.72927" lon="7.39301">
        <ele>314.4884033</ele>
        <time>2012-01-22T08:28:30Z</time>
      </trkpt>
      <trkpt lat="47.72959" lon="7.39325">
        <ele>310.1624756</ele>
        <time>2012-01-22T08:28:34Z</time>
      </trkpt>
      <trkpt lat="47.72975" lon="7.39337">
        <ele>308.720459</ele>
        <time>2012-01-22T08:28:36Z</time>
      </trkpt>
      <trkpt lat="47.73002" lon="7.39349">
        <ele>307.2785645</ele>
        <time>2012-01-22T08:28:40Z</time>
      </trkpt>
      <trkpt lat="47.73035" lon="7.39379">
        <ele>308.2398682</ele>
        <time>2012-01-22T08:28:46Z</time>
      </trkpt>
      <trkpt lat="47.73086" lon="7.39436">
        <ele>307.7592773</ele>
        <time>2012-01-22T08:28:56Z</time>
      </trkpt>
      <trkpt lat="47.73109" lon="7.39461">
        <ele>307.7592773</ele>
        <time>2012-01-22T08:29:01Z</time>
      </trkpt>
      <trkpt lat="47.73117" lon="7.3947">
        <ele>307.7592773</ele>
        <time>2012-01-22T08:29:04Z</time>
      </trkpt>
      <trkpt lat="47.73121" lon="7.39474">
        <ele>307.7592773</ele>
        <time>2012-01-22T08:29:06Z</time>
      </trkpt>
      <trkpt lat="47.73124" lon="7.39478">
        <ele>307.7592773</ele>
        <time>2012-01-22T08:29:11Z</time>
      </trkpt>
      <trkpt lat="47.73126" lon="7.3948">
        <ele>308.720459</ele>
        <time>2012-01-22T08:29:23Z</time>
      </trkpt>
      <trkpt lat="47.73131" lon="7.39487">
        <ele>308.720459</ele>
        <time>2012-01-22T08:29:27Z</time>
      </trkpt>
      <trkpt lat="47.73149" lon="7.39505">
        <ele>307.7592773</ele>
        <time>2012-01-22T08:29:33Z</time>
      </trkpt>
      <trkpt lat="47.73167" lon="7.39522">
        <ele>306.3172607</ele>
        <time>2012-01-22T08:29:37Z</time>
      </trkpt>
      <trkpt lat="47.73201" lon="7.39555">
        <ele>301.991333</ele>
        <time>2012-01-22T08:29:43Z</time>
      </trkpt>
      <trkpt lat="47.73255" lon="7.39605">
        <ele>298.1461182</ele>
        <time>2012-01-22T08:29:51Z</time>
      </trkpt>
      <trkpt lat="47.7332" lon="7.39662">
        <ele>295.2619629</ele>
        <time>2012-01-22T08:30:00Z</time>
      </trkpt>
      <trkpt lat="47.73328" lon="7.39667">
        <ele>294.7813721</ele>
        <time>2012-01-22T08:30:01Z</time>
      </trkpt>
      <trkpt lat="47.73383" lon="7.39683">
        <ele>292.3781738</ele>
        <time>2012-01-22T08:30:08Z</time>
      </trkpt>
      <trkpt lat="47.73428" lon="7.39694">
        <ele>291.416748</ele>
        <time>2012-01-22T08:30:14Z</time>
      </trkpt>
      <trkpt lat="47.7348" lon="7.39705">
        <ele>289.4941406</ele>
        <time>2012-01-22T08:30:21Z</time>
      </trkpt>
      <trkpt lat="47.73527" lon="7.39715">
        <ele>287.0908203</ele>
        <time>2012-01-22T08:30:27Z</time>
      </trkpt>
      <trkpt lat="47.7359" lon="7.39732">
        <ele>285.6488037</ele>
        <time>2012-01-22T08:30:35Z</time>
      </trkpt>
      <trkpt lat="47.73642" lon="7.39755">
        <ele>284.2069092</ele>
        <time>2012-01-22T08:30:42Z</time>
      </trkpt>
      <trkpt lat="47.73691" lon="7.39789">
        <ele>283.2456055</ele>
        <time>2012-01-22T08:30:49Z</time>
      </trkpt>
      <trkpt lat="47.73727" lon="7.39815">
        <ele>282.7650146</ele>
        <time>2012-01-22T08:30:55Z</time>
      </trkpt>
      <trkpt lat="47.73734" lon="7.39807">
        <ele>282.7650146</ele>
        <time>2012-01-22T08:30:59Z</time>
      </trkpt>
      <trkpt lat="47.7372" lon="7.39765">
        <ele>283.2456055</ele>
        <time>2012-01-22T08:31:06Z</time>
      </trkpt>
      <trkpt lat="47.73716" lon="7.39752">
        <ele>283.2456055</ele>
        <time>2012-01-22T08:31:08Z</time>
      </trkpt>
      <trkpt lat="47.73717" lon="7.39728">
        <ele>283.2456055</ele>
        <time>2012-01-22T08:31:12Z</time>
      </trkpt>
      <trkpt lat="47.7372" lon="7.39724">
        <ele>283.7261963</ele>
        <time>2012-01-22T08:31:13Z</time>
      </trkpt>
      <trkpt lat="47.73746" lon="7.39696">
        <ele>284.6876221</ele>
        <time>2012-01-22T08:31:20Z</time>
      </trkpt>
      <trkpt lat="47.73767" lon="7.3968">
        <ele>285.6488037</ele>
        <time>2012-01-22T08:31:26Z</time>
      </trkpt>
      <trkpt lat="47.73787" lon="7.39657">
        <ele>285.6488037</ele>
        <time>2012-01-22T08:31:33Z</time>
      </trkpt>
      <trkpt lat="47.73795" lon="7.39647">
        <ele>285.6488037</ele>
        <time>2012-01-22T08:31:37Z</time>
      </trkpt>
      <trkpt lat="47.73796" lon="7.39635">
        <ele>284.6876221</ele>
        <time>2012-01-22T08:31:41Z</time>
      </trkpt>
      <trkpt lat="47.73792" lon="7.39628">
        <ele>282.7650146</ele>
        <time>2012-01-22T08:31:43Z</time>
      </trkpt>
      <trkpt lat="47.73789" lon="7.39622">
        <ele>281.8035889</ele>
        <time>2012-01-22T08:31:45Z</time>
      </trkpt>
      <trkpt lat="47.73792" lon="7.39603">
        <ele>280.3616943</ele>
        <time>2012-01-22T08:31:49Z</time>
      </trkpt>
      <trkpt lat="47.73803" lon="7.39572">
        <ele>276.5163574</ele>
        <time>2012-01-22T08:31:53Z</time>
      </trkpt>
      <trkpt lat="47.73809" lon="7.3955">
        <ele>273.1518555</ele>
        <time>2012-01-22T08:31:56Z</time>
      </trkpt>
      <trkpt lat="47.73807" lon="7.39524">
        <ele>271.229126</ele>
        <time>2012-01-22T08:32:00Z</time>
      </trkpt>
      <trkpt lat="47.73794" lon="7.39513">
        <ele>271.7097168</ele>
        <time>2012-01-22T08:32:03Z</time>
      </trkpt>
      <trkpt lat="47.7379" lon="7.3951">
        <ele>271.7097168</ele>
        <time>2012-01-22T08:32:04Z</time>
      </trkpt>
      <trkpt lat="47.73755" lon="7.39494">
        <ele>268.3450928</ele>
        <time>2012-01-22T08:32:13Z</time>
      </trkpt>
      <trkpt lat="47.73751" lon="7.39491">
        <ele>268.8258057</ele>
        <time>2012-01-22T08:32:14Z</time>
      </trkpt>
      <trkpt lat="47.73738" lon="7.39478">
        <ele>268.3450928</ele>
        <time>2012-01-22T08:32:18Z</time>
      </trkpt>
      <trkpt lat="47.7372" lon="7.39466">
        <ele>268.8258057</ele>
        <time>2012-01-22T08:32:23Z</time>
      </trkpt>
      <trkpt lat="47.73698" lon="7.39446">
        <ele>267.864502</ele>
        <time>2012-01-22T08:32:31Z</time>
      </trkpt>
      <trkpt lat="47.73687" lon="7.39437">
        <ele>267.864502</ele>
        <time>2012-01-22T08:32:37Z</time>
      </trkpt>
      <trkpt lat="47.73683" lon="7.39435">
        <ele>267.864502</ele>
        <time>2012-01-22T08:32:40Z</time>
      </trkpt>
      <trkpt lat="47.73678" lon="7.3943">
        <ele>272.1904297</ele>
        <time>2012-01-22T08:32:56Z</time>
      </trkpt>
      <trkpt lat="47.73679" lon="7.3943">
        <ele>271.7097168</ele>
        <time>2012-01-22T08:33:03Z</time>
      </trkpt>
      <trkpt lat="47.73676" lon="7.39433">
        <ele>265.4613037</ele>
        <time>2012-01-22T08:33:15Z</time>
      </trkpt>
      <trkpt lat="47.73676" lon="7.39436">
        <ele>263.0578613</ele>
        <time>2012-01-22T08:33:19Z</time>
      </trkpt>
      <trkpt lat="47.73674" lon="7.39439">
        <ele>259.2126465</ele>
        <time>2012-01-22T08:33:30Z</time>
      </trkpt>
      <trkpt lat="47.73673" lon="7.39438">
        <ele>261.1352539</ele>
        <time>2012-01-22T08:33:37Z</time>
      </trkpt>
      <trkpt lat="47.73673" lon="7.39437">
        <ele>261.1352539</ele>
        <time>2012-01-22T08:33:42Z</time>
      </trkpt>
      <trkpt lat="47.73673" lon="7.39434">
        <ele>263.0578613</ele>
        <time>2012-01-22T08:34:17Z</time>
      </trkpt>
      <trkpt lat="47.73674" lon="7.39433">
        <ele>264.4998779</ele>
        <time>2012-01-22T08:34:22Z</time>
      </trkpt>
      <trkpt lat="47.73675" lon="7.39432">
        <ele>267.3839111</ele>
        <time>2012-01-22T08:34:41Z</time>
      </trkpt>
      <trkpt lat="47.73675" lon="7.39433">
        <ele>267.864502</ele>
        <time>2012-01-22T08:34:49Z</time>
      </trkpt>
      <trkpt lat="47.73675" lon="7.39431">
        <ele>268.8258057</ele>
        <time>2012-01-22T08:35:00Z</time>
      </trkpt>
      <trkpt lat="47.73664" lon="7.39421">
        <ele>269.3065186</ele>
        <time>2012-01-22T08:35:07Z</time>
      </trkpt>
      <trkpt lat="47.73653" lon="7.39408">
        <ele>269.3065186</ele>
        <time>2012-01-22T08:35:12Z</time>
      </trkpt>
      <trkpt lat="47.73652" lon="7.3939">
        <ele>268.8258057</ele>
        <time>2012-01-22T08:35:16Z</time>
      </trkpt>
      <trkpt lat="47.73662" lon="7.39367">
        <ele>268.8258057</ele>
        <time>2012-01-22T08:35:22Z</time>
      </trkpt>
      <trkpt lat="47.73683" lon="7.39331">
        <ele>269.3065186</ele>
        <time>2012-01-22T08:35:31Z</time>
      </trkpt>
      <trkpt lat="47.73712" lon="7.39296">
        <ele>270.2677002</ele>
        <time>2012-01-22T08:35:41Z</time>
      </trkpt>
      <trkpt lat="47.73728" lon="7.39279">
        <ele>270.2677002</ele>
        <time>2012-01-22T08:35:48Z</time>
      </trkpt>
      <trkpt lat="47.73741" lon="7.39265">
        <ele>270.7484131</ele>
        <time>2012-01-22T08:35:55Z</time>
      </trkpt>
      <trkpt lat="47.7375" lon="7.39243">
        <ele>269.7871094</ele>
        <time>2012-01-22T08:36:00Z</time>
      </trkpt>
      <trkpt lat="47.73762" lon="7.39199">
        <ele>267.864502</ele>
        <time>2012-01-22T08:36:07Z</time>
      </trkpt>
      <trkpt lat="47.73764" lon="7.39191">
        <ele>267.864502</ele>
        <time>2012-01-22T08:36:08Z</time>
      </trkpt>
      <trkpt lat="47.73777" lon="7.39167">
        <ele>267.3839111</ele>
        <time>2012-01-22T08:36:12Z</time>
      </trkpt>
      <trkpt lat="47.73786" lon="7.39155">
        <ele>267.864502</ele>
        <time>2012-01-22T08:36:16Z</time>
      </trkpt>
      <trkpt lat="47.7379" lon="7.39149">
        <ele>269.3065186</ele>
        <time>2012-01-22T08:36:19Z</time>
      </trkpt>
      <trkpt lat="47.73802" lon="7.3914">
        <ele>269.3065186</ele>
        <time>2012-01-22T08:36:28Z</time>
      </trkpt>
      <trkpt lat="47.73806" lon="7.39139">
        <ele>269.7871094</ele>
        <time>2012-01-22T08:36:34Z</time>
      </trkpt>
      <trkpt lat="47.73805" lon="7.39137">
        <ele>268.3450928</ele>
        <time>2012-01-22T08:36:58Z</time>
      </trkpt>
      <trkpt lat="47.73805" lon="7.39137">
        <ele>266.4224854</ele>
        <time>2012-01-22T08:37:17Z</time>
      </trkpt>
      <trkpt lat="47.7381" lon="7.39137">
        <ele>268.8258057</ele>
        <time>2012-01-22T08:37:24Z</time>
      </trkpt>
      <trkpt lat="47.73822" lon="7.39146">
        <ele>267.3839111</ele>
        <time>2012-01-22T08:37:29Z</time>
      </trkpt>
      <trkpt lat="47.73847" lon="7.39164">
        <ele>265.4613037</ele>
        <time>2012-01-22T08:37:37Z</time>
      </trkpt>
      <trkpt lat="47.73862" lon="7.39161">
        <ele>264.9805908</ele>
        <time>2012-01-22T08:37:42Z</time>
      </trkpt>
      <trkpt lat="47.73867" lon="7.39153">
        <ele>264.9805908</ele>
        <time>2012-01-22T08:37:45Z</time>
      </trkpt>
      <trkpt lat="47.73874" lon="7.39136">
        <ele>266.9031982</ele>
        <time>2012-01-22T08:37:52Z</time>
      </trkpt>
      <trkpt lat="47.73887" lon="7.39122">
        <ele>268.8258057</ele>
        <time>2012-01-22T08:37:57Z</time>
      </trkpt>
      <trkpt lat="47.73898" lon="7.39109">
        <ele>271.229126</ele>
        <time>2012-01-22T08:38:01Z</time>
      </trkpt>
      <trkpt lat="47.73912" lon="7.39093">
        <ele>273.6324463</ele>
        <time>2012-01-22T08:38:07Z</time>
      </trkpt>
      <trkpt lat="47.73922" lon="7.39085">
        <ele>274.1130371</ele>
        <time>2012-01-22T08:38:11Z</time>
      </trkpt>
      <trkpt lat="47.73935" lon="7.39075">
        <ele>275.5550537</ele>
        <time>2012-01-22T08:38:16Z</time>
      </trkpt>
      <trkpt lat="47.73936" lon="7.39072">
        <ele>276.0356445</ele>
        <time>2012-01-22T08:38:17Z</time>
      </trkpt>
      <trkpt lat="47.73933" lon="7.39056">
        <ele>276.5163574</ele>
        <time>2012-01-22T08:38:22Z</time>
      </trkpt>
      <trkpt lat="47.73932" lon="7.39053">
        <ele>276.5163574</ele>
        <time>2012-01-22T08:38:23Z</time>
      </trkpt>
      <trkpt lat="47.73919" lon="7.39025">
        <ele>277.4776611</ele>
        <time>2012-01-22T08:38:30Z</time>
      </trkpt>
      <trkpt lat="47.73907" lon="7.38997">
        <ele>281.322998</ele>
        <time>2012-01-22T08:38:37Z</time>
      </trkpt>
      <trkpt lat="47.73895" lon="7.3897">
        <ele>281.8035889</ele>
        <time>2012-01-22T08:38:43Z</time>
      </trkpt>
      <trkpt lat="47.7388" lon="7.38941">
        <ele>280.3616943</ele>
        <time>2012-01-22T08:38:49Z</time>
      </trkpt>
      <trkpt lat="47.73861" lon="7.3891">
        <ele>279.8808594</ele>
        <time>2012-01-22T08:38:56Z</time>
      </trkpt>
      <trkpt lat="47.73854" lon="7.38894">
        <ele>279.8808594</ele>
        <time>2012-01-22T08:38:59Z</time>
      </trkpt>
      <trkpt lat="47.73846" lon="7.38872">
        <ele>280.3616943</ele>
        <time>2012-01-22T08:39:03Z</time>
      </trkpt>
      <trkpt lat="47.73835" lon="7.38846">
        <ele>280.3616943</ele>
        <time>2012-01-22T08:39:09Z</time>
      </trkpt>
      <trkpt lat="47.73828" lon="7.38828">
        <ele>281.8035889</ele>
        <time>2012-01-22T08:39:14Z</time>
      </trkpt>
      <trkpt lat="47.73821" lon="7.38813">
        <ele>283.2456055</ele>
        <time>2012-01-22T08:39:18Z</time>
      </trkpt>
      <trkpt lat="47.73813" lon="7.38794">
        <ele>285.6488037</ele>
        <time>2012-01-22T08:39:23Z</time>
      </trkpt>
      <trkpt lat="47.73807" lon="7.38778">
        <ele>286.6102295</ele>
        <time>2012-01-22T08:39:28Z</time>
      </trkpt>
      <trkpt lat="47.73799" lon="7.38759">
        <ele>289.0135498</ele>
        <time>2012-01-22T08:39:35Z</time>
      </trkpt>
      <trkpt lat="47.7379" lon="7.38741">
        <ele>292.3781738</ele>
        <time>2012-01-22T08:39:41Z</time>
      </trkpt>
      <trkpt lat="47.73785" lon="7.3873">
        <ele>292.8587646</ele>
        <time>2012-01-22T08:39:45Z</time>
      </trkpt>
      <trkpt lat="47.73781" lon="7.38718">
        <ele>295.2619629</ele>
        <time>2012-01-22T08:39:49Z</time>
      </trkpt>
      <trkpt lat="47.73775" lon="7.38707">
        <ele>297.6654053</ele>
        <time>2012-01-22T08:39:53Z</time>
      </trkpt>
      <trkpt lat="47.73769" lon="7.38696">
        <ele>300.5493164</ele>
        <time>2012-01-22T08:39:57Z</time>
      </trkpt>
      <trkpt lat="47.73762" lon="7.38677">
        <ele>301.991333</ele>
        <time>2012-01-22T08:40:03Z</time>
      </trkpt>
      <trkpt lat="47.73754" lon="7.3866">
        <ele>305.355957</ele>
        <time>2012-01-22T08:40:08Z</time>
      </trkpt>
      <trkpt lat="47.73747" lon="7.38642">
        <ele>308.720459</ele>
        <time>2012-01-22T08:40:14Z</time>
      </trkpt>
      <trkpt lat="47.73739" lon="7.38624">
        <ele>308.2398682</ele>
        <time>2012-01-22T08:40:20Z</time>
      </trkpt>
      <trkpt lat="47.73732" lon="7.38608">
        <ele>306.7978516</ele>
        <time>2012-01-22T08:40:26Z</time>
      </trkpt>
      <trkpt lat="47.73725" lon="7.38591">
        <ele>305.8366699</ele>
        <time>2012-01-22T08:40:32Z</time>
      </trkpt>
      <trkpt lat="47.73724" lon="7.38582">
        <ele>304.8752441</ele>
        <time>2012-01-22T08:40:35Z</time>
      </trkpt>
      <trkpt lat="47.73721" lon="7.38563">
        <ele>302.9525146</ele>
        <time>2012-01-22T08:40:42Z</time>
      </trkpt>
      <trkpt lat="47.73718" lon="7.38553">
        <ele>304.3946533</ele>
        <time>2012-01-22T08:40:46Z</time>
      </trkpt>
      <trkpt lat="47.73714" lon="7.38529">
        <ele>307.7592773</ele>
        <time>2012-01-22T08:40:54Z</time>
      </trkpt>
      <trkpt lat="47.73709" lon="7.38515">
        <ele>308.2398682</ele>
        <time>2012-01-22T08:40:59Z</time>
      </trkpt>
      <trkpt lat="47.73707" lon="7.38509">
        <ele>307.2785645</ele>
        <time>2012-01-22T08:41:01Z</time>
      </trkpt>
      <trkpt lat="47.73699" lon="7.38487">
        <ele>304.8752441</ele>
        <time>2012-01-22T08:41:08Z</time>
      </trkpt>
      <trkpt lat="47.7369" lon="7.38466">
        <ele>304.8752441</ele>
        <time>2012-01-22T08:41:14Z</time>
      </trkpt>
      <trkpt lat="47.7368" lon="7.38439">
        <ele>301.991333</ele>
        <time>2012-01-22T08:41:22Z</time>
      </trkpt>
      <trkpt lat="47.7367" lon="7.3841">
        <ele>304.8752441</ele>
        <time>2012-01-22T08:41:29Z</time>
      </trkpt>
      <trkpt lat="47.73659" lon="7.38385">
        <ele>306.7978516</ele>
        <time>2012-01-22T08:41:36Z</time>
      </trkpt>
      <trkpt lat="47.73644" lon="7.38356">
        <ele>309.2011719</ele>
        <time>2012-01-22T08:41:45Z</time>
      </trkpt>
      <trkpt lat="47.73634" lon="7.38338">
        <ele>308.720459</ele>
        <time>2012-01-22T08:41:51Z</time>
      </trkpt>
      <trkpt lat="47.73628" lon="7.38324">
        <ele>309.6818848</ele>
        <time>2012-01-22T08:41:56Z</time>
      </trkpt>
      <trkpt lat="47.73622" lon="7.38311">
        <ele>310.1624756</ele>
        <time>2012-01-22T08:42:00Z</time>
      </trkpt>
      <trkpt lat="47.73617" lon="7.38298">
        <ele>311.1237793</ele>
        <time>2012-01-22T08:42:04Z</time>
      </trkpt>
      <trkpt lat="47.73607" lon="7.38275">
        <ele>312.0852051</ele>
        <time>2012-01-22T08:42:11Z</time>
      </trkpt>
      <trkpt lat="47.736" lon="7.38261">
        <ele>313.5272217</ele>
        <time>2012-01-22T08:42:16Z</time>
      </trkpt>
      <trkpt lat="47.73594" lon="7.38248">
        <ele>312.5657959</ele>
        <time>2012-01-22T08:42:20Z</time>
      </trkpt>
      <trkpt lat="47.7359" lon="7.38239">
        <ele>312.5657959</ele>
        <time>2012-01-22T08:42:23Z</time>
      </trkpt>
      <trkpt lat="47.73587" lon="7.38221">
        <ele>315.4498291</ele>
        <time>2012-01-22T08:42:28Z</time>
      </trkpt>
      <trkpt lat="47.73579" lon="7.38199">
        <ele>321.2177734</ele>
        <time>2012-01-22T08:42:35Z</time>
      </trkpt>
      <trkpt lat="47.73571" lon="7.38178">
        <ele>326.5048828</ele>
        <time>2012-01-22T08:42:41Z</time>
      </trkpt>
      <trkpt lat="47.73563" lon="7.38158">
        <ele>329.8695068</ele>
        <time>2012-01-22T08:42:47Z</time>
      </trkpt>
      <trkpt lat="47.73554" lon="7.38129">
        <ele>330.3502197</ele>
        <time>2012-01-22T08:42:55Z</time>
      </trkpt>
      <trkpt lat="47.73547" lon="7.38112">
        <ele>326.9855957</ele>
        <time>2012-01-22T08:43:00Z</time>
      </trkpt>
      <trkpt lat="47.73541" lon="7.3809">
        <ele>324.5822754</ele>
        <time>2012-01-22T08:43:06Z</time>
      </trkpt>
      <trkpt lat="47.73534" lon="7.3807">
        <ele>324.1015625</ele>
        <time>2012-01-22T08:43:14Z</time>
      </trkpt>
      <trkpt lat="47.73533" lon="7.38049">
        <ele>322.659668</ele>
        <time>2012-01-22T08:43:20Z</time>
      </trkpt>
      <trkpt lat="47.73539" lon="7.38039">
        <ele>319.2950439</ele>
        <time>2012-01-22T08:43:28Z</time>
      </trkpt>
      <trkpt lat="47.7354" lon="7.38037">
        <ele>318.3336182</ele>
        <time>2012-01-22T08:43:34Z</time>
      </trkpt>
      <trkpt lat="47.73539" lon="7.38037">
        <ele>315.9304199</ele>
        <time>2012-01-22T08:43:54Z</time>
      </trkpt>
      <trkpt lat="47.73538" lon="7.38037">
        <ele>316.4110107</ele>
        <time>2012-01-22T08:44:00Z</time>
      </trkpt>
      <trkpt lat="47.73538" lon="7.38038">
        <ele>316.4110107</ele>
        <time>2012-01-22T08:44:03Z</time>
      </trkpt>
      <trkpt lat="47.73538" lon="7.38038">
        <ele>315.9304199</ele>
        <time>2012-01-22T08:44:10Z</time>
      </trkpt>
      <trkpt lat="47.73538" lon="7.38038">
        <ele>315.9304199</ele>
        <time>2012-01-22T08:44:12Z</time>
      </trkpt>
      <trkpt lat="47.73538" lon="7.38038">
        <ele>315.9304199</ele>
        <time>2012-01-22T08:44:13Z</time>
      </trkpt>
      <trkpt lat="47.73541" lon="7.38034">
        <ele>314.9691162</ele>
        <time>2012-01-22T08:44:22Z</time>
      </trkpt>
      <trkpt lat="47.73553" lon="7.38023">
        <ele>314.0078125</ele>
        <time>2012-01-22T08:44:27Z</time>
      </trkpt>
      <trkpt lat="47.73577" lon="7.38">
        <ele>313.0465088</ele>
        <time>2012-01-22T08:44:34Z</time>
      </trkpt>
      <trkpt lat="47.73594" lon="7.37976">
        <ele>312.5657959</ele>
        <time>2012-01-22T08:44:40Z</time>
      </trkpt>
      <trkpt lat="47.73603" lon="7.37954">
        <ele>312.0852051</ele>
        <time>2012-01-22T08:44:45Z</time>
      </trkpt>
      <trkpt lat="47.73615" lon="7.37921">
        <ele>312.5657959</ele>
        <time>2012-01-22T08:44:52Z</time>
      </trkpt>
      <trkpt lat="47.7363" lon="7.37873">
        <ele>310.1624756</ele>
        <time>2012-01-22T08:45:01Z</time>
      </trkpt>
      <trkpt lat="47.73639" lon="7.37841">
        <ele>308.2398682</ele>
        <time>2012-01-22T08:45:08Z</time>
      </trkpt>
      <trkpt lat="47.73637" lon="7.37832">
        <ele>307.7592773</ele>
        <time>2012-01-22T08:45:11Z</time>
      </trkpt>
      <trkpt lat="47.73637" lon="7.37829">
        <ele>307.7592773</ele>
        <time>2012-01-22T08:45:12Z</time>
      </trkpt>
      <trkpt lat="47.73626" lon="7.37805">
        <ele>306.3172607</ele>
        <time>2012-01-22T08:45:20Z</time>
      </trkpt>
      <trkpt lat="47.73613" lon="7.37773">
        <ele>304.8752441</ele>
        <time>2012-01-22T08:45:27Z</time>
      </trkpt>
      <trkpt lat="47.73601" lon="7.37741">
        <ele>302.9525146</ele>
        <time>2012-01-22T08:45:33Z</time>
      </trkpt>
      <trkpt lat="47.73583" lon="7.3769">
        <ele>301.991333</ele>
        <time>2012-01-22T08:45:41Z</time>
      </trkpt>
      <trkpt lat="47.73571" lon="7.3765">
        <ele>301.5106201</ele>
        <time>2012-01-22T08:45:47Z</time>
      </trkpt>
      <trkpt lat="47.73559" lon="7.37627">
        <ele>300.5493164</ele>
        <time>2012-01-22T08:45:52Z</time>
      </trkpt>
      <trkpt lat="47.73555" lon="7.37616">
        <ele>300.0687256</ele>
        <time>2012-01-22T08:45:54Z</time>
      </trkpt>
      <trkpt lat="47.73543" lon="7.37564">
        <ele>300.0687256</ele>
        <time>2012-01-22T08:46:03Z</time>
      </trkpt>
      <trkpt lat="47.73541" lon="7.37559">
        <ele>300.0687256</ele>
        <time>2012-01-22T08:46:05Z</time>
      </trkpt>
      <trkpt lat="47.73533" lon="7.37558">
        <ele>300.0687256</ele>
        <time>2012-01-22T08:46:09Z</time>
      </trkpt>
      <trkpt lat="47.73506" lon="7.37572">
        <ele>301.991333</ele>
        <time>2012-01-22T08:46:17Z</time>
      </trkpt>
      <trkpt lat="47.73492" lon="7.37579">
        <ele>302.4719238</ele>
        <time>2012-01-22T08:46:21Z</time>
      </trkpt>
      <trkpt lat="47.73485" lon="7.37581">
        <ele>302.4719238</ele>
        <time>2012-01-22T08:46:23Z</time>
      </trkpt>
      <trkpt lat="47.73476" lon="7.37568">
        <ele>302.9525146</ele>
        <time>2012-01-22T08:46:27Z</time>
      </trkpt>
      <trkpt lat="47.73475" lon="7.37562">
        <ele>302.4719238</ele>
        <time>2012-01-22T08:46:28Z</time>
      </trkpt>
      <trkpt lat="47.73467" lon="7.37518">
        <ele>301.991333</ele>
        <time>2012-01-22T08:46:37Z</time>
      </trkpt>
      <trkpt lat="47.73459" lon="7.37468">
        <ele>300.0687256</ele>
        <time>2012-01-22T08:46:47Z</time>
      </trkpt>
      <trkpt lat="47.73453" lon="7.37428">
        <ele>298.626709</ele>
        <time>2012-01-22T08:46:55Z</time>
      </trkpt>
      <trkpt lat="47.73449" lon="7.37405">
        <ele>298.1461182</ele>
        <time>2012-01-22T08:47:01Z</time>
      </trkpt>
      <trkpt lat="47.73443" lon="7.3737">
        <ele>298.1461182</ele>
        <time>2012-01-22T08:47:09Z</time>
      </trkpt>
      <trkpt lat="47.73437" lon="7.37342">
        <ele>298.1461182</ele>
        <time>2012-01-22T08:47:15Z</time>
      </trkpt>
      <trkpt lat="47.73438" lon="7.37318">
        <ele>297.1846924</ele>
        <time>2012-01-22T08:47:20Z</time>
      </trkpt>
      <trkpt lat="47.73439" lon="7.37302">
        <ele>297.1846924</ele>
        <time>2012-01-22T08:47:23Z</time>
      </trkpt>
      <trkpt lat="47.7343" lon="7.37301">
        <ele>298.626709</ele>
        <time>2012-01-22T08:47:27Z</time>
      </trkpt>
      <trkpt lat="47.7342" lon="7.37305">
        <ele>301.0299072</ele>
        <time>2012-01-22T08:47:31Z</time>
      </trkpt>
      <trkpt lat="47.73417" lon="7.37306">
        <ele>301.5106201</ele>
        <time>2012-01-22T08:47:32Z</time>
      </trkpt>
      <trkpt lat="47.73401" lon="7.37314">
        <ele>305.355957</ele>
        <time>2012-01-22T08:47:39Z</time>
      </trkpt>
      <trkpt lat="47.73382" lon="7.37317">
        <ele>310.6430664</ele>
        <time>2012-01-22T08:47:44Z</time>
      </trkpt>
      <trkpt lat="47.73361" lon="7.37318">
        <ele>311.1237793</ele>
        <time>2012-01-22T08:47:49Z</time>
      </trkpt>
      <trkpt lat="47.73349" lon="7.37312">
        <ele>312.5657959</ele>
        <time>2012-01-22T08:47:52Z</time>
      </trkpt>
      <trkpt lat="47.73326" lon="7.37294">
        <ele>312.0852051</ele>
        <time>2012-01-22T08:47:59Z</time>
      </trkpt>
      <trkpt lat="47.73317" lon="7.37289">
        <ele>313.5272217</ele>
        <time>2012-01-22T08:48:04Z</time>
      </trkpt>
      <trkpt lat="47.73315" lon="7.37287">
        <ele>313.5272217</ele>
        <time>2012-01-22T08:48:06Z</time>
      </trkpt>
      <trkpt lat="47.73313" lon="7.37286">
        <ele>313.5272217</ele>
        <time>2012-01-22T08:48:08Z</time>
      </trkpt>
      <trkpt lat="47.73309" lon="7.37284">
        <ele>309.6818848</ele>
        <time>2012-01-22T08:48:18Z</time>
      </trkpt>
      <trkpt lat="47.73303" lon="7.37282">
        <ele>299.5880127</ele>
        <time>2012-01-22T08:48:30Z</time>
      </trkpt>
      <trkpt lat="47.73303" lon="7.3728">
        <ele>296.2235107</ele>
        <time>2012-01-22T08:48:37Z</time>
      </trkpt>
      <trkpt lat="47.73303" lon="7.3728">
        <ele>293.8200684</ele>
        <time>2012-01-22T08:48:42Z</time>
      </trkpt>
      <trkpt lat="47.73304" lon="7.37281">
        <ele>296.2235107</ele>
        <time>2012-01-22T08:48:49Z</time>
      </trkpt>
      <trkpt lat="47.73302" lon="7.37279">
        <ele>300.0687256</ele>
        <time>2012-01-22T08:48:57Z</time>
      </trkpt>
      <trkpt lat="47.73294" lon="7.37276">
        <ele>303.4332275</ele>
        <time>2012-01-22T08:49:01Z</time>
      </trkpt>
      <trkpt lat="47.73282" lon="7.37272">
        <ele>305.8366699</ele>
        <time>2012-01-22T08:49:06Z</time>
      </trkpt>
      <trkpt lat="47.73279" lon="7.37269">
        <ele>307.2785645</ele>
        <time>2012-01-22T08:49:08Z</time>
      </trkpt>
      <trkpt lat="47.73275" lon="7.37267">
        <ele>308.2398682</ele>
        <time>2012-01-22T08:49:12Z</time>
      </trkpt>
      <trkpt lat="47.73273" lon="7.37265">
        <ele>310.1624756</ele>
        <time>2012-01-22T08:49:15Z</time>
      </trkpt>
      <trkpt lat="47.73266" lon="7.37261">
        <ele>313.0465088</ele>
        <time>2012-01-22T08:49:20Z</time>
      </trkpt>
      <trkpt lat="47.73254" lon="7.3725">
        <ele>314.9691162</ele>
        <time>2012-01-22T08:49:26Z</time>
      </trkpt>
      <trkpt lat="47.73242" lon="7.37245">
        <ele>316.4110107</ele>
        <time>2012-01-22T08:49:32Z</time>
      </trkpt>
      <trkpt lat="47.73228" lon="7.37243">
        <ele>320.7370605</ele>
        <time>2012-01-22T08:49:37Z</time>
      </trkpt>
      <trkpt lat="47.73212" lon="7.37242">
        <ele>323.6209717</ele>
        <time>2012-01-22T08:49:43Z</time>
      </trkpt>
      <trkpt lat="47.73194" lon="7.37239">
        <ele>327.4661865</ele>
        <time>2012-01-22T08:49:50Z</time>
      </trkpt>
      <trkpt lat="47.73192" lon="7.37239">
        <ele>327.4661865</ele>
        <time>2012-01-22T08:49:51Z</time>
      </trkpt>
      <trkpt lat="47.73185" lon="7.37227">
        <ele>325.5435791</ele>
        <time>2012-01-22T08:49:56Z</time>
      </trkpt>
      <trkpt lat="47.73186" lon="7.37222">
        <ele>322.1789551</ele>
        <time>2012-01-22T08:50:02Z</time>
      </trkpt>
      <trkpt lat="47.73182" lon="7.37224">
        <ele>326.0241699</ele>
        <time>2012-01-22T08:50:11Z</time>
      </trkpt>
      <trkpt lat="47.73182" lon="7.37225">
        <ele>326.5048828</ele>
        <time>2012-01-22T08:50:16Z</time>
      </trkpt>
      <trkpt lat="47.73183" lon="7.37226">
        <ele>326.5048828</ele>
        <time>2012-01-22T08:50:19Z</time>
      </trkpt>
      <trkpt lat="47.73182" lon="7.37228">
        <ele>328.4276123</ele>
        <time>2012-01-22T08:50:26Z</time>
      </trkpt>
      <trkpt lat="47.73182" lon="7.37229">
        <ele>324.5822754</ele>
        <time>2012-01-22T08:50:34Z</time>
      </trkpt>
      <trkpt lat="47.73182" lon="7.37226">
        <ele>317.3724365</ele>
        <time>2012-01-22T08:50:52Z</time>
      </trkpt>
      <trkpt lat="47.73182" lon="7.37225">
        <ele>314.4884033</ele>
        <time>2012-01-22T08:51:06Z</time>
      </trkpt>
      <trkpt lat="47.7318" lon="7.37221">
        <ele>314.9691162</ele>
        <time>2012-01-22T08:51:39Z</time>
      </trkpt>
      <trkpt lat="47.7318" lon="7.37223">
        <ele>310.6430664</ele>
        <time>2012-01-22T08:51:50Z</time>
      </trkpt>
      <trkpt lat="47.73182" lon="7.37223">
        <ele>306.7978516</ele>
        <time>2012-01-22T08:52:11Z</time>
      </trkpt>
      <trkpt lat="47.73182" lon="7.3722">
        <ele>327.4661865</ele>
        <time>2012-01-22T08:52:37Z</time>
      </trkpt>
      <trkpt lat="47.73182" lon="7.37221">
        <ele>331.3115234</ele>
        <time>2012-01-22T08:52:50Z</time>
      </trkpt>
      <trkpt lat="47.73182" lon="7.37221">
        <ele>331.7921143</ele>
        <time>2012-01-22T08:52:55Z</time>
      </trkpt>
      <trkpt lat="47.73182" lon="7.37222">
        <ele>332.2728271</ele>
        <time>2012-01-22T08:53:05Z</time>
      </trkpt>
      <trkpt lat="47.73181" lon="7.37223">
        <ele>329.8695068</ele>
        <time>2012-01-22T08:53:11Z</time>
      </trkpt>
      <trkpt lat="47.7318" lon="7.37223">
        <ele>321.6983643</ele>
        <time>2012-01-22T08:53:23Z</time>
      </trkpt>
      <trkpt lat="47.7318" lon="7.3722">
        <ele>318.3336182</ele>
        <time>2012-01-22T08:53:34Z</time>
      </trkpt>
      <trkpt lat="47.73184" lon="7.37218">
        <ele>309.2011719</ele>
        <time>2012-01-22T08:53:53Z</time>
      </trkpt>
      <trkpt lat="47.73188" lon="7.37207">
        <ele>309.2011719</ele>
        <time>2012-01-22T08:53:57Z</time>
      </trkpt>
      <trkpt lat="47.73189" lon="7.37201">
        <ele>310.1624756</ele>
        <time>2012-01-22T08:53:59Z</time>
      </trkpt>
      <trkpt lat="47.73193" lon="7.37179">
        <ele>310.1624756</ele>
        <time>2012-01-22T08:54:05Z</time>
      </trkpt>
      <trkpt lat="47.73199" lon="7.3716">
        <ele>309.2011719</ele>
        <time>2012-01-22T08:54:10Z</time>
      </trkpt>
      <trkpt lat="47.73198" lon="7.37144">
        <ele>310.1624756</ele>
        <time>2012-01-22T08:54:14Z</time>
      </trkpt>
      <trkpt lat="47.73197" lon="7.37125">
        <ele>312.0852051</ele>
        <time>2012-01-22T08:54:19Z</time>
      </trkpt>
      <trkpt lat="47.73198" lon="7.37115">
        <ele>312.0852051</ele>
        <time>2012-01-22T08:54:22Z</time>
      </trkpt>
      <trkpt lat="47.73196" lon="7.3711">
        <ele>311.6044922</ele>
        <time>2012-01-22T08:54:24Z</time>
      </trkpt>
      <trkpt lat="47.73197" lon="7.37094">
        <ele>310.6430664</ele>
        <time>2012-01-22T08:54:29Z</time>
      </trkpt>
      <trkpt lat="47.73199" lon="7.37058">
        <ele>305.8366699</ele>
        <time>2012-01-22T08:54:35Z</time>
      </trkpt>
      <trkpt lat="47.732" lon="7.37018">
        <ele>302.9525146</ele>
        <time>2012-01-22T08:54:41Z</time>
      </trkpt>
      <trkpt lat="47.73201" lon="7.36995">
        <ele>306.3172607</ele>
        <time>2012-01-22T08:54:45Z</time>
      </trkpt>
      <trkpt lat="47.732" lon="7.36951">
        <ele>308.2398682</ele>
        <time>2012-01-22T08:54:52Z</time>
      </trkpt>
      <trkpt lat="47.732" lon="7.36934">
        <ele>306.7978516</ele>
        <time>2012-01-22T08:54:55Z</time>
      </trkpt>
      <trkpt lat="47.73204" lon="7.36916">
        <ele>306.3172607</ele>
        <time>2012-01-22T08:55:00Z</time>
      </trkpt>
      <trkpt lat="47.73206" lon="7.36912">
        <ele>306.7978516</ele>
        <time>2012-01-22T08:55:01Z</time>
      </trkpt>
      <trkpt lat="47.73213" lon="7.36879">
        <ele>306.7978516</ele>
        <time>2012-01-22T08:55:08Z</time>
      </trkpt>
      <trkpt lat="47.73214" lon="7.36874">
        <ele>309.6818848</ele>
        <time>2012-01-22T08:55:09Z</time>
      </trkpt>
      <trkpt lat="47.73221" lon="7.36842">
        <ele>314.4884033</ele>
        <time>2012-01-22T08:55:14Z</time>
      </trkpt>
      <trkpt lat="47.73228" lon="7.36814">
        <ele>314.9691162</ele>
        <time>2012-01-22T08:55:19Z</time>
      </trkpt>
      <trkpt lat="47.73234" lon="7.36793">
        <ele>314.0078125</ele>
        <time>2012-01-22T08:55:23Z</time>
      </trkpt>
      <trkpt lat="47.73239" lon="7.36771">
        <ele>307.7592773</ele>
        <time>2012-01-22T08:55:26Z</time>
      </trkpt>
      <trkpt lat="47.73246" lon="7.36754">
        <ele>303.9139404</ele>
        <time>2012-01-22T08:55:29Z</time>
      </trkpt>
      <trkpt lat="47.73263" lon="7.36717">
        <ele>298.626709</ele>
        <time>2012-01-22T08:55:35Z</time>
      </trkpt>
      <trkpt lat="47.73267" lon="7.36705">
        <ele>297.6654053</ele>
        <time>2012-01-22T08:55:37Z</time>
      </trkpt>
      <trkpt lat="47.7327" lon="7.36695">
        <ele>297.1846924</ele>
        <time>2012-01-22T08:55:39Z</time>
      </trkpt>
      <trkpt lat="47.73279" lon="7.36681">
        <ele>290.9361572</ele>
        <time>2012-01-22T08:55:44Z</time>
      </trkpt>
      <trkpt lat="47.73287" lon="7.36673">
        <ele>289.4941406</ele>
        <time>2012-01-22T08:55:49Z</time>
      </trkpt>
      <trkpt lat="47.73289" lon="7.36663">
        <ele>292.3781738</ele>
        <time>2012-01-22T08:55:53Z</time>
      </trkpt>
      <trkpt lat="47.7329" lon="7.36655">
        <ele>294.7813721</ele>
        <time>2012-01-22T08:55:56Z</time>
      </trkpt>
      <trkpt lat="47.73297" lon="7.36628">
        <ele>294.3007812</ele>
        <time>2012-01-22T08:56:02Z</time>
      </trkpt>
      <trkpt lat="47.73309" lon="7.36604">
        <ele>292.3781738</ele>
        <time>2012-01-22T08:56:06Z</time>
      </trkpt>
      <trkpt lat="47.73313" lon="7.3659">
        <ele>292.3781738</ele>
        <time>2012-01-22T08:56:08Z</time>
      </trkpt>
      <trkpt lat="47.73323" lon="7.36557">
        <ele>286.6102295</ele>
        <time>2012-01-22T08:56:13Z</time>
      </trkpt>
      <trkpt lat="47.73325" lon="7.36539">
        <ele>284.6876221</ele>
        <time>2012-01-22T08:56:16Z</time>
      </trkpt>
      <trkpt lat="47.73328" lon="7.36513">
        <ele>281.8035889</ele>
        <time>2012-01-22T08:56:21Z</time>
      </trkpt>
      <trkpt lat="47.73331" lon="7.36509">
        <ele>280.3616943</ele>
        <time>2012-01-22T08:56:22Z</time>
      </trkpt>
      <trkpt lat="47.73343" lon="7.36479">
        <ele>276.0356445</ele>
        <time>2012-01-22T08:56:27Z</time>
      </trkpt>
      <trkpt lat="47.73353" lon="7.3645">
        <ele>271.229126</ele>
        <time>2012-01-22T08:56:32Z</time>
      </trkpt>
      <trkpt lat="47.73357" lon="7.36437">
        <ele>270.2677002</ele>
        <time>2012-01-22T08:56:34Z</time>
      </trkpt>
      <trkpt lat="47.7336" lon="7.36396">
        <ele>269.7871094</ele>
        <time>2012-01-22T08:56:39Z</time>
      </trkpt>
      <trkpt lat="47.73357" lon="7.36364">
        <ele>267.864502</ele>
        <time>2012-01-22T08:56:43Z</time>
      </trkpt>
      <trkpt lat="47.73356" lon="7.36335">
        <ele>268.8258057</ele>
        <time>2012-01-22T08:56:46Z</time>
      </trkpt>
      <trkpt lat="47.73361" lon="7.36303">
        <ele>264.0192871</ele>
        <time>2012-01-22T08:56:49Z</time>
      </trkpt>
      <trkpt lat="47.73365" lon="7.36288">
        <ele>261.6159668</ele>
        <time>2012-01-22T08:56:51Z</time>
      </trkpt>
      <trkpt lat="47.73377" lon="7.36264">
        <ele>260.1739502</ele>
        <time>2012-01-22T08:56:55Z</time>
      </trkpt>
      <trkpt lat="47.73392" lon="7.36249">
        <ele>257.2900391</ele>
        <time>2012-01-22T08:56:58Z</time>
      </trkpt>
      <trkpt lat="47.73407" lon="7.36235">
        <ele>255.8480225</ele>
        <time>2012-01-22T08:57:01Z</time>
      </trkpt>
      <trkpt lat="47.73423" lon="7.36208">
        <ele>257.2900391</ele>
        <time>2012-01-22T08:57:05Z</time>
      </trkpt>
      <trkpt lat="47.73438" lon="7.36165">
        <ele>255.8480225</ele>
        <time>2012-01-22T08:57:09Z</time>
      </trkpt>
      <trkpt lat="47.73455" lon="7.36127">
        <ele>257.2900391</ele>
        <time>2012-01-22T08:57:13Z</time>
      </trkpt>
      <trkpt lat="47.73462" lon="7.36115">
        <ele>258.2513428</ele>
        <time>2012-01-22T08:57:15Z</time>
      </trkpt>
      <trkpt lat="47.73466" lon="7.36096">
        <ele>258.2513428</ele>
        <time>2012-01-22T08:57:19Z</time>
      </trkpt>
      <trkpt lat="47.73467" lon="7.36091">
        <ele>260.654541</ele>
        <time>2012-01-22T08:57:25Z</time>
      </trkpt>
      <trkpt lat="47.73467" lon="7.3609">
        <ele>263.5385742</ele>
        <time>2012-01-22T08:57:31Z</time>
      </trkpt>
      <trkpt lat="47.73468" lon="7.36088">
        <ele>267.864502</ele>
        <time>2012-01-22T08:57:53Z</time>
      </trkpt>
      <trkpt lat="47.73468" lon="7.36088">
        <ele>268.8258057</ele>
        <time>2012-01-22T08:58:00Z</time>
      </trkpt>
      <trkpt lat="47.73468" lon="7.36087">
        <ele>268.3450928</ele>
        <time>2012-01-22T08:58:03Z</time>
      </trkpt>
      <trkpt lat="47.7347" lon="7.36085">
        <ele>268.3450928</ele>
        <time>2012-01-22T08:58:11Z</time>
      </trkpt>
      <trkpt lat="47.7347" lon="7.36081">
        <ele>268.3450928</ele>
        <time>2012-01-22T08:58:19Z</time>
      </trkpt>
      <trkpt lat="47.73469" lon="7.36066">
        <ele>267.864502</ele>
        <time>2012-01-22T08:58:24Z</time>
      </trkpt>
      <trkpt lat="47.73454" lon="7.36052">
        <ele>266.9031982</ele>
        <time>2012-01-22T08:58:29Z</time>
      </trkpt>
      <trkpt lat="47.73431" lon="7.36031">
        <ele>266.4224854</ele>
        <time>2012-01-22T08:58:36Z</time>
      </trkpt>
      <trkpt lat="47.73404" lon="7.36011">
        <ele>264.9805908</ele>
        <time>2012-01-22T08:58:44Z</time>
      </trkpt>
      <trkpt lat="47.73397" lon="7.36006">
        <ele>264.9805908</ele>
        <time>2012-01-22T08:58:48Z</time>
      </trkpt>
      <trkpt lat="47.73395" lon="7.36005">
        <ele>264.9805908</ele>
        <time>2012-01-22T08:58:49Z</time>
      </trkpt>
      <trkpt lat="47.73386" lon="7.35991">
        <ele>265.9418945</ele>
        <time>2012-01-22T08:58:54Z</time>
      </trkpt>
      <trkpt lat="47.73384" lon="7.35989">
        <ele>265.4613037</ele>
        <time>2012-01-22T08:58:55Z</time>
      </trkpt>
      <trkpt lat="47.73367" lon="7.35986">
        <ele>265.4613037</ele>
        <time>2012-01-22T08:59:01Z</time>
      </trkpt>
      <trkpt lat="47.73359" lon="7.35984">
        <ele>264.9805908</ele>
        <time>2012-01-22T08:59:05Z</time>
      </trkpt>
      <trkpt lat="47.73346" lon="7.35979">
        <ele>267.3839111</ele>
        <time>2012-01-22T08:59:11Z</time>
      </trkpt>
      <trkpt lat="47.73337" lon="7.35976">
        <ele>270.7484131</ele>
        <time>2012-01-22T08:59:15Z</time>
      </trkpt>
      <trkpt lat="47.73326" lon="7.35973">
        <ele>268.8258057</ele>
        <time>2012-01-22T08:59:20Z</time>
      </trkpt>
      <trkpt lat="47.73314" lon="7.35974">
        <ele>266.4224854</ele>
        <time>2012-01-22T08:59:25Z</time>
      </trkpt>
      <trkpt lat="47.73299" lon="7.35975">
        <ele>270.7484131</ele>
        <time>2012-01-22T08:59:31Z</time>
      </trkpt>
      <trkpt lat="47.73287" lon="7.35974">
        <ele>271.229126</ele>
        <time>2012-01-22T08:59:38Z</time>
      </trkpt>
      <trkpt lat="47.73274" lon="7.35977">
        <ele>272.6711426</ele>
        <time>2012-01-22T08:59:42Z</time>
      </trkpt>
      <trkpt lat="47.73266" lon="7.35975">
        <ele>269.7871094</ele>
        <time>2012-01-22T08:59:46Z</time>
      </trkpt>
      <trkpt lat="47.73253" lon="7.35972">
        <ele>269.3065186</ele>
        <time>2012-01-22T08:59:51Z</time>
      </trkpt>
      <trkpt lat="47.73234" lon="7.35978">
        <ele>273.6324463</ele>
        <time>2012-01-22T08:59:56Z</time>
      </trkpt>
      <trkpt lat="47.73212" lon="7.35986">
        <ele>274.59375</ele>
        <time>2012-01-22T09:00:00Z</time>
      </trkpt>
      <trkpt lat="47.73185" lon="7.35984">
        <ele>275.5550537</ele>
        <time>2012-01-22T09:00:05Z</time>
      </trkpt>
      <trkpt lat="47.73165" lon="7.35978">
        <ele>275.5550537</ele>
        <time>2012-01-22T09:00:09Z</time>
      </trkpt>
      <trkpt lat="47.73155" lon="7.35974">
        <ele>275.5550537</ele>
        <time>2012-01-22T09:00:11Z</time>
      </trkpt>
      <trkpt lat="47.73125" lon="7.35974">
        <ele>274.1130371</ele>
        <time>2012-01-22T09:00:16Z</time>
      </trkpt>
      <trkpt lat="47.73092" lon="7.35966">
        <ele>273.6324463</ele>
        <time>2012-01-22T09:00:22Z</time>
      </trkpt>
      <trkpt lat="47.73088" lon="7.35963">
        <ele>273.6324463</ele>
        <time>2012-01-22T09:00:23Z</time>
      </trkpt>
      <trkpt lat="47.7307" lon="7.35954">
        <ele>277.958252</ele>
        <time>2012-01-22T09:00:27Z</time>
      </trkpt>
      <trkpt lat="47.73061" lon="7.35951">
        <ele>280.3616943</ele>
        <time>2012-01-22T09:00:29Z</time>
      </trkpt>
      <trkpt lat="47.73036" lon="7.35942">
        <ele>284.2069092</ele>
        <time>2012-01-22T09:00:35Z</time>
      </trkpt>
      <trkpt lat="47.73027" lon="7.3594">
        <ele>284.6876221</ele>
        <time>2012-01-22T09:00:37Z</time>
      </trkpt>
      <trkpt lat="47.73014" lon="7.35934">
        <ele>285.6488037</ele>
        <time>2012-01-22T09:00:40Z</time>
      </trkpt>
      <trkpt lat="47.7299" lon="7.35924">
        <ele>289.9748535</ele>
        <time>2012-01-22T09:00:46Z</time>
      </trkpt>
      <trkpt lat="47.72967" lon="7.35917">
        <ele>292.8587646</ele>
        <time>2012-01-22T09:00:51Z</time>
      </trkpt>
      <trkpt lat="47.72949" lon="7.3591">
        <ele>290.9361572</ele>
        <time>2012-01-22T09:00:55Z</time>
      </trkpt>
      <trkpt lat="47.72929" lon="7.35895">
        <ele>284.2069092</ele>
        <time>2012-01-22T09:01:00Z</time>
      </trkpt>
      <trkpt lat="47.72903" lon="7.35876">
        <ele>281.8035889</ele>
        <time>2012-01-22T09:01:05Z</time>
      </trkpt>
      <trkpt lat="47.72878" lon="7.35854">
        <ele>280.3616943</ele>
        <time>2012-01-22T09:01:09Z</time>
      </trkpt>
      <trkpt lat="47.72847" lon="7.35822">
        <ele>276.9970703</ele>
        <time>2012-01-22T09:01:14Z</time>
      </trkpt>
      <trkpt lat="47.72832" lon="7.35804">
        <ele>274.1130371</ele>
        <time>2012-01-22T09:01:17Z</time>
      </trkpt>
      <trkpt lat="47.72808" lon="7.35788">
        <ele>268.8258057</ele>
        <time>2012-01-22T09:01:22Z</time>
      </trkpt>
      <trkpt lat="47.72801" lon="7.35783">
        <ele>271.229126</ele>
        <time>2012-01-22T09:01:24Z</time>
      </trkpt>
      <trkpt lat="47.72795" lon="7.3578">
        <ele>269.3065186</ele>
        <time>2012-01-22T09:01:26Z</time>
      </trkpt>
      <trkpt lat="47.72779" lon="7.35774">
        <ele>269.7871094</ele>
        <time>2012-01-22T09:01:31Z</time>
      </trkpt>
      <trkpt lat="47.7277" lon="7.35767">
        <ele>270.2677002</ele>
        <time>2012-01-22T09:01:34Z</time>
      </trkpt>
      <trkpt lat="47.72743" lon="7.35756">
        <ele>273.1518555</ele>
        <time>2012-01-22T09:01:40Z</time>
      </trkpt>
      <trkpt lat="47.72733" lon="7.3575">
        <ele>276.9970703</ele>
        <time>2012-01-22T09:01:42Z</time>
      </trkpt>
      <trkpt lat="47.72722" lon="7.35741">
        <ele>278.4389648</ele>
        <time>2012-01-22T09:01:45Z</time>
      </trkpt>
      <trkpt lat="47.72701" lon="7.35721">
        <ele>278.4389648</ele>
        <time>2012-01-22T09:01:51Z</time>
      </trkpt>
      <trkpt lat="47.72696" lon="7.35717">
        <ele>277.958252</ele>
        <time>2012-01-22T09:01:52Z</time>
      </trkpt>
      <trkpt lat="47.72676" lon="7.35691">
        <ele>276.9970703</ele>
        <time>2012-01-22T09:01:57Z</time>
      </trkpt>
      <trkpt lat="47.72661" lon="7.35673">
        <ele>280.8424072</ele>
        <time>2012-01-22T09:02:00Z</time>
      </trkpt>
      <trkpt lat="47.72653" lon="7.35661">
        <ele>280.3616943</ele>
        <time>2012-01-22T09:02:02Z</time>
      </trkpt>
      <trkpt lat="47.72629" lon="7.35621">
        <ele>275.0744629</ele>
        <time>2012-01-22T09:02:08Z</time>
      </trkpt>
      <trkpt lat="47.72617" lon="7.35599">
        <ele>276.5163574</ele>
        <time>2012-01-22T09:02:11Z</time>
      </trkpt>
      <trkpt lat="47.72596" lon="7.35564">
        <ele>279.8808594</ele>
        <time>2012-01-22T09:02:16Z</time>
      </trkpt>
      <trkpt lat="47.72563" lon="7.35517">
        <ele>278.4389648</ele>
        <time>2012-01-22T09:02:23Z</time>
      </trkpt>
      <trkpt lat="47.72559" lon="7.35512">
        <ele>277.958252</ele>
        <time>2012-01-22T09:02:24Z</time>
      </trkpt>
      <trkpt lat="47.72533" lon="7.35483">
        <ele>277.4776611</ele>
        <time>2012-01-22T09:02:31Z</time>
      </trkpt>
      <trkpt lat="47.72523" lon="7.35472">
        <ele>275.0744629</ele>
        <time>2012-01-22T09:02:34Z</time>
      </trkpt>
      <trkpt lat="47.72513" lon="7.3546">
        <ele>274.59375</ele>
        <time>2012-01-22T09:02:37Z</time>
      </trkpt>
      <trkpt lat="47.72496" lon="7.35438">
        <ele>276.9970703</ele>
        <time>2012-01-22T09:02:43Z</time>
      </trkpt>
      <trkpt lat="47.72477" lon="7.35413">
        <ele>283.2456055</ele>
        <time>2012-01-22T09:02:49Z</time>
      </trkpt>
      <trkpt lat="47.72471" lon="7.35404">
        <ele>283.7261963</ele>
        <time>2012-01-22T09:02:51Z</time>
      </trkpt>
      <trkpt lat="47.72456" lon="7.3539">
        <ele>285.6488037</ele>
        <time>2012-01-22T09:02:56Z</time>
      </trkpt>
      <trkpt lat="47.72451" lon="7.3538">
        <ele>287.5714111</ele>
        <time>2012-01-22T09:02:59Z</time>
      </trkpt>
      <trkpt lat="47.72443" lon="7.35356">
        <ele>289.0135498</ele>
        <time>2012-01-22T09:03:05Z</time>
      </trkpt>
      <trkpt lat="47.72436" lon="7.35337">
        <ele>294.3007812</ele>
        <time>2012-01-22T09:03:11Z</time>
      </trkpt>
      <trkpt lat="47.72427" lon="7.35318">
        <ele>295.7426758</ele>
        <time>2012-01-22T09:03:17Z</time>
      </trkpt>
      <trkpt lat="47.7242" lon="7.35287">
        <ele>295.7426758</ele>
        <time>2012-01-22T09:03:23Z</time>
      </trkpt>
      <trkpt lat="47.72411" lon="7.3525">
        <ele>297.6654053</ele>
        <time>2012-01-22T09:03:31Z</time>
      </trkpt>
      <trkpt lat="47.72399" lon="7.35218">
        <ele>297.6654053</ele>
        <time>2012-01-22T09:03:38Z</time>
      </trkpt>
      <trkpt lat="47.72385" lon="7.35185">
        <ele>298.1461182</ele>
        <time>2012-01-22T09:03:46Z</time>
      </trkpt>
      <trkpt lat="47.72377" lon="7.35148">
        <ele>299.5880127</ele>
        <time>2012-01-22T09:03:54Z</time>
      </trkpt>
      <trkpt lat="47.72383" lon="7.35128">
        <ele>300.0687256</ele>
        <time>2012-01-22T09:03:59Z</time>
      </trkpt>
      <trkpt lat="47.72398" lon="7.35109">
        <ele>301.5106201</ele>
        <time>2012-01-22T09:04:06Z</time>
      </trkpt>
      <trkpt lat="47.72415" lon="7.35091">
        <ele>302.9525146</ele>
        <time>2012-01-22T09:04:13Z</time>
      </trkpt>
      <trkpt lat="47.7243" lon="7.35075">
        <ele>303.4332275</ele>
        <time>2012-01-22T09:04:20Z</time>
      </trkpt>
      <trkpt lat="47.7244" lon="7.35061">
        <ele>302.9525146</ele>
        <time>2012-01-22T09:04:26Z</time>
      </trkpt>
      <trkpt lat="47.72439" lon="7.35047">
        <ele>301.5106201</ele>
        <time>2012-01-22T09:04:30Z</time>
      </trkpt>
      <trkpt lat="47.72428" lon="7.35028">
        <ele>301.5106201</ele>
        <time>2012-01-22T09:04:36Z</time>
      </trkpt>
      <trkpt lat="47.72413" lon="7.35005">
        <ele>300.5493164</ele>
        <time>2012-01-22T09:04:43Z</time>
      </trkpt>
      <trkpt lat="47.72402" lon="7.3499">
        <ele>301.5106201</ele>
        <time>2012-01-22T09:04:48Z</time>
      </trkpt>
      <trkpt lat="47.72385" lon="7.34963">
        <ele>301.5106201</ele>
        <time>2012-01-22T09:04:56Z</time>
      </trkpt>
      <trkpt lat="47.7237" lon="7.34937">
        <ele>300.0687256</ele>
        <time>2012-01-22T09:05:03Z</time>
      </trkpt>
      <trkpt lat="47.72351" lon="7.34918">
        <ele>300.0687256</ele>
        <time>2012-01-22T09:05:10Z</time>
      </trkpt>
      <trkpt lat="47.7233" lon="7.34897">
        <ele>300.0687256</ele>
        <time>2012-01-22T09:05:17Z</time>
      </trkpt>
      <trkpt lat="47.72308" lon="7.34873">
        <ele>301.0299072</ele>
        <time>2012-01-22T09:05:25Z</time>
      </trkpt>
      <trkpt lat="47.72295" lon="7.34856">
        <ele>302.4719238</ele>
        <time>2012-01-22T09:05:30Z</time>
      </trkpt>
      <trkpt lat="47.72282" lon="7.34829">
        <ele>304.8752441</ele>
        <time>2012-01-22T09:05:36Z</time>
      </trkpt>
      <trkpt lat="47.72285" lon="7.34813">
        <ele>306.3172607</ele>
        <time>2012-01-22T09:05:39Z</time>
      </trkpt>
      <trkpt lat="47.72288" lon="7.34798">
        <ele>307.7592773</ele>
        <time>2012-01-22T09:05:42Z</time>
      </trkpt>
      <trkpt lat="47.72279" lon="7.34783">
        <ele>308.720459</ele>
        <time>2012-01-22T09:05:46Z</time>
      </trkpt>
      <trkpt lat="47.72256" lon="7.34761">
        <ele>312.0852051</ele>
        <time>2012-01-22T09:05:53Z</time>
      </trkpt>
      <trkpt lat="47.72236" lon="7.3473">
        <ele>314.4884033</ele>
        <time>2012-01-22T09:06:00Z</time>
      </trkpt>
      <trkpt lat="47.72211" lon="7.34693">
        <ele>314.9691162</ele>
        <time>2012-01-22T09:06:08Z</time>
      </trkpt>
      <trkpt lat="47.72186" lon="7.34646">
        <ele>315.4498291</ele>
        <time>2012-01-22T09:06:17Z</time>
      </trkpt>
      <trkpt lat="47.7217" lon="7.34621">
        <ele>315.4498291</ele>
        <time>2012-01-22T09:06:22Z</time>
      </trkpt>
      <trkpt lat="47.72167" lon="7.346">
        <ele>315.4498291</ele>
        <time>2012-01-22T09:06:26Z</time>
      </trkpt>
      <trkpt lat="47.72174" lon="7.34601">
        <ele>315.9304199</ele>
        <time>2012-01-22T09:06:28Z</time>
      </trkpt>
      <trkpt lat="47.72181" lon="7.34605">
        <ele>315.9304199</ele>
        <time>2012-01-22T09:06:30Z</time>
      </trkpt>
      <trkpt lat="47.72202" lon="7.3462">
        <ele>317.8530273</ele>
        <time>2012-01-22T09:06:37Z</time>
      </trkpt>
      <trkpt lat="47.72224" lon="7.34623">
        <ele>319.7756348</ele>
        <time>2012-01-22T09:06:43Z</time>
      </trkpt>
      <trkpt lat="47.72248" lon="7.34623">
        <ele>322.1789551</ele>
        <time>2012-01-22T09:06:49Z</time>
      </trkpt>
      <trkpt lat="47.72266" lon="7.34619">
        <ele>324.5822754</ele>
        <time>2012-01-22T09:06:54Z</time>
      </trkpt>
      <trkpt lat="47.72298" lon="7.34611">
        <ele>328.9083252</ele>
        <time>2012-01-22T09:07:02Z</time>
      </trkpt>
      <trkpt lat="47.72324" lon="7.34613">
        <ele>329.8695068</ele>
        <time>2012-01-22T09:07:08Z</time>
      </trkpt>
      <trkpt lat="47.72336" lon="7.34616">
        <ele>330.8309326</ele>
        <time>2012-01-22T09:07:11Z</time>
      </trkpt>
      <trkpt lat="47.72362" lon="7.34631">
        <ele>332.75354</ele>
        <time>2012-01-22T09:07:18Z</time>
      </trkpt>
      <trkpt lat="47.72391" lon="7.34653">
        <ele>333.7147217</ele>
        <time>2012-01-22T09:07:26Z</time>
      </trkpt>
      <trkpt lat="47.72427" lon="7.34678">
        <ele>335.1567383</ele>
        <time>2012-01-22T09:07:35Z</time>
      </trkpt>
      <trkpt lat="47.7246" lon="7.34699">
        <ele>335.6373291</ele>
        <time>2012-01-22T09:07:43Z</time>
      </trkpt>
      <trkpt lat="47.72481" lon="7.34711">
        <ele>336.1181641</ele>
        <time>2012-01-22T09:07:49Z</time>
      </trkpt>
      <trkpt lat="47.725" lon="7.34722">
        <ele>339.0020752</ele>
        <time>2012-01-22T09:07:54Z</time>
      </trkpt>
      <trkpt lat="47.72517" lon="7.34733">
        <ele>340.4440918</ele>
        <time>2012-01-22T09:07:58Z</time>
      </trkpt>
      <trkpt lat="47.72536" lon="7.34737">
        <ele>339.0020752</ele>
        <time>2012-01-22T09:08:02Z</time>
      </trkpt>
      <trkpt lat="47.7255" lon="7.34733">
        <ele>339.482666</ele>
        <time>2012-01-22T09:08:08Z</time>
      </trkpt>
      <trkpt lat="47.72552" lon="7.34734">
        <ele>335.6373291</ele>
        <time>2012-01-22T09:08:17Z</time>
      </trkpt>
      <trkpt lat="47.72553" lon="7.34736">
        <ele>333.2341309</ele>
        <time>2012-01-22T09:08:27Z</time>
      </trkpt>
      <trkpt lat="47.72552" lon="7.34737">
        <ele>331.7921143</ele>
        <time>2012-01-22T09:08:35Z</time>
      </trkpt>
      <trkpt lat="47.72551" lon="7.34737">
        <ele>334.1954346</ele>
        <time>2012-01-22T09:08:41Z</time>
      </trkpt>
      <trkpt lat="47.72554" lon="7.34738">
        <ele>333.2341309</ele>
        <time>2012-01-22T09:08:52Z</time>
      </trkpt>
      <trkpt lat="47.72552" lon="7.34736">
        <ele>327.9467773</ele>
        <time>2012-01-22T09:08:57Z</time>
      </trkpt>
      <trkpt lat="47.72554" lon="7.34738">
        <ele>321.2177734</ele>
        <time>2012-01-22T09:09:07Z</time>
      </trkpt>
      <trkpt lat="47.72555" lon="7.34738">
        <ele>317.8530273</ele>
        <time>2012-01-22T09:09:15Z</time>
      </trkpt>
      <trkpt lat="47.72554" lon="7.34737">
        <ele>319.7756348</ele>
        <time>2012-01-22T09:09:19Z</time>
      </trkpt>
      <trkpt lat="47.72556" lon="7.34736">
        <ele>324.5822754</ele>
        <time>2012-01-22T09:09:26Z</time>
      </trkpt>
      <trkpt lat="47.72559" lon="7.34736">
        <ele>330.8309326</ele>
        <time>2012-01-22T09:09:35Z</time>
      </trkpt>
      <trkpt lat="47.72561" lon="7.3473">
        <ele>334.1954346</ele>
        <time>2012-01-22T09:09:39Z</time>
      </trkpt>
      <trkpt lat="47.7255" lon="7.34718">
        <ele>336.598877</ele>
        <time>2012-01-22T09:09:44Z</time>
      </trkpt>
      <trkpt lat="47.72523" lon="7.34693">
        <ele>336.598877</ele>
        <time>2012-01-22T09:09:52Z</time>
      </trkpt>
      <trkpt lat="47.72496" lon="7.34662">
        <ele>335.1567383</ele>
        <time>2012-01-22T09:09:59Z</time>
      </trkpt>
      <trkpt lat="47.72467" lon="7.34625">
        <ele>337.0794678</ele>
        <time>2012-01-22T09:10:06Z</time>
      </trkpt>
      <trkpt lat="47.72443" lon="7.34589">
        <ele>339.482666</ele>
        <time>2012-01-22T09:10:13Z</time>
      </trkpt>
      <trkpt lat="47.72407" lon="7.34534">
        <ele>340.4440918</ele>
        <time>2012-01-22T09:10:23Z</time>
      </trkpt>
      <trkpt lat="47.72386" lon="7.34505">
        <ele>340.9246826</ele>
        <time>2012-01-22T09:10:29Z</time>
      </trkpt>
      <trkpt lat="47.72381" lon="7.34494">
        <ele>340.4440918</ele>
        <time>2012-01-22T09:10:31Z</time>
      </trkpt>
      <trkpt lat="47.72356" lon="7.34461">
        <ele>341.4052734</ele>
        <time>2012-01-22T09:10:39Z</time>
      </trkpt>
      <trkpt lat="47.72324" lon="7.34425">
        <ele>342.84729</ele>
        <time>2012-01-22T09:10:46Z</time>
      </trkpt>
      <trkpt lat="47.7229" lon="7.34384">
        <ele>343.8085938</ele>
        <time>2012-01-22T09:10:53Z</time>
      </trkpt>
      <trkpt lat="47.72276" lon="7.34367">
        <ele>344.7700195</ele>
        <time>2012-01-22T09:10:56Z</time>
      </trkpt>
      <trkpt lat="47.72266" lon="7.34356">
        <ele>343.8085938</ele>
        <time>2012-01-22T09:10:58Z</time>
      </trkpt>
      <trkpt lat="47.72246" lon="7.34329">
        <ele>340.9246826</ele>
        <time>2012-01-22T09:11:03Z</time>
      </trkpt>
      <trkpt lat="47.72233" lon="7.34316">
        <ele>339.9633789</ele>
        <time>2012-01-22T09:11:07Z</time>
      </trkpt>
      <trkpt lat="47.72228" lon="7.3431">
        <ele>338.5214844</ele>
        <time>2012-01-22T09:11:12Z</time>
      </trkpt>
      <trkpt lat="47.72225" lon="7.34301">
        <ele>337.0794678</ele>
        <time>2012-01-22T09:11:18Z</time>
      </trkpt>
      <trkpt lat="47.72223" lon="7.34284">
        <ele>331.3115234</ele>
        <time>2012-01-22T09:11:24Z</time>
      </trkpt>
      <trkpt lat="47.72218" lon="7.34265">
        <ele>328.9083252</ele>
        <time>2012-01-22T09:11:30Z</time>
      </trkpt>
      <trkpt lat="47.72215" lon="7.34246">
        <ele>328.9083252</ele>
        <time>2012-01-22T09:11:35Z</time>
      </trkpt>
      <trkpt lat="47.72212" lon="7.34223">
        <ele>328.9083252</ele>
        <time>2012-01-22T09:11:41Z</time>
      </trkpt>
      <trkpt lat="47.72211" lon="7.34201">
        <ele>326.9855957</ele>
        <time>2012-01-22T09:11:47Z</time>
      </trkpt>
      <trkpt lat="47.72212" lon="7.34163">
        <ele>326.0241699</ele>
        <time>2012-01-22T09:11:55Z</time>
      </trkpt>
      <trkpt lat="47.72211" lon="7.34138">
        <ele>325.5435791</ele>
        <time>2012-01-22T09:12:00Z</time>
      </trkpt>
      <trkpt lat="47.72211" lon="7.34108">
        <ele>325.5435791</ele>
        <time>2012-01-22T09:12:07Z</time>
      </trkpt>
      <trkpt lat="47.72203" lon="7.34091">
        <ele>324.5822754</ele>
        <time>2012-01-22T09:12:13Z</time>
      </trkpt>
      <trkpt lat="47.72201" lon="7.34085">
        <ele>325.0629883</ele>
        <time>2012-01-22T09:12:17Z</time>
      </trkpt>
      <trkpt lat="47.72202" lon="7.34084">
        <ele>328.9083252</ele>
        <time>2012-01-22T09:12:31Z</time>
      </trkpt>
      <trkpt lat="47.722" lon="7.34077">
        <ele>329.8695068</ele>
        <time>2012-01-22T09:12:37Z</time>
      </trkpt>
      <trkpt lat="47.72195" lon="7.34056">
        <ele>331.3115234</ele>
        <time>2012-01-22T09:12:43Z</time>
      </trkpt>
      <trkpt lat="47.72185" lon="7.34022">
        <ele>332.75354</ele>
        <time>2012-01-22T09:12:49Z</time>
      </trkpt>
      <trkpt lat="47.72174" lon="7.33984">
        <ele>332.75354</ele>
        <time>2012-01-22T09:12:55Z</time>
      </trkpt>
      <trkpt lat="47.72164" lon="7.33934">
        <ele>332.75354</ele>
        <time>2012-01-22T09:13:03Z</time>
      </trkpt>
      <trkpt lat="47.72163" lon="7.33928">
        <ele>332.2728271</ele>
        <time>2012-01-22T09:13:04Z</time>
      </trkpt>
      <trkpt lat="47.72163" lon="7.33916">
        <ele>332.2728271</ele>
        <time>2012-01-22T09:13:06Z</time>
      </trkpt>
      <trkpt lat="47.72168" lon="7.33872">
        <ele>331.7921143</ele>
        <time>2012-01-22T09:13:13Z</time>
      </trkpt>
      <trkpt lat="47.72173" lon="7.33822">
        <ele>331.3115234</ele>
        <time>2012-01-22T09:13:21Z</time>
      </trkpt>
      <trkpt lat="47.72173" lon="7.33773">
        <ele>331.3115234</ele>
        <time>2012-01-22T09:13:29Z</time>
      </trkpt>
      <trkpt lat="47.72168" lon="7.33723">
        <ele>329.388916</ele>
        <time>2012-01-22T09:13:36Z</time>
      </trkpt>
      <trkpt lat="47.72164" lon="7.33666">
        <ele>327.4661865</ele>
        <time>2012-01-22T09:13:44Z</time>
      </trkpt>
      <trkpt lat="47.72166" lon="7.33612">
        <ele>327.4661865</ele>
        <time>2012-01-22T09:13:52Z</time>
      </trkpt>
      <trkpt lat="47.72168" lon="7.33549">
        <ele>327.4661865</ele>
        <time>2012-01-22T09:14:01Z</time>
      </trkpt>
      <trkpt lat="47.72159" lon="7.33486">
        <ele>327.9467773</ele>
        <time>2012-01-22T09:14:10Z</time>
      </trkpt>
      <trkpt lat="47.72147" lon="7.33402">
        <ele>324.5822754</ele>
        <time>2012-01-22T09:14:21Z</time>
      </trkpt>
      <trkpt lat="47.72142" lon="7.33355">
        <ele>323.6209717</ele>
        <time>2012-01-22T09:14:27Z</time>
      </trkpt>
      <trkpt lat="47.72138" lon="7.33297">
        <ele>323.6209717</ele>
        <time>2012-01-22T09:14:35Z</time>
      </trkpt>
      <trkpt lat="47.72137" lon="7.3329">
        <ele>323.1403809</ele>
        <time>2012-01-22T09:14:36Z</time>
      </trkpt>
      <trkpt lat="47.72135" lon="7.33269">
        <ele>323.6209717</ele>
        <time>2012-01-22T09:14:39Z</time>
      </trkpt>
      <trkpt lat="47.72128" lon="7.33203">
        <ele>326.9855957</ele>
        <time>2012-01-22T09:14:48Z</time>
      </trkpt>
      <trkpt lat="47.72121" lon="7.33142">
        <ele>326.5048828</ele>
        <time>2012-01-22T09:14:56Z</time>
      </trkpt>
      <trkpt lat="47.72119" lon="7.3312">
        <ele>325.0629883</ele>
        <time>2012-01-22T09:14:59Z</time>
      </trkpt>
      <trkpt lat="47.72118" lon="7.33105">
        <ele>322.659668</ele>
        <time>2012-01-22T09:15:01Z</time>
      </trkpt>
      <trkpt lat="47.72112" lon="7.33068">
        <ele>319.7756348</ele>
        <time>2012-01-22T09:15:07Z</time>
      </trkpt>
      <trkpt lat="47.72101" lon="7.33032">
        <ele>316.8917236</ele>
        <time>2012-01-22T09:15:14Z</time>
      </trkpt>
      <trkpt lat="47.7209" lon="7.32997">
        <ele>317.3724365</ele>
        <time>2012-01-22T09:15:19Z</time>
      </trkpt>
      <trkpt lat="47.72087" lon="7.32974">
        <ele>317.3724365</ele>
        <time>2012-01-22T09:15:22Z</time>
      </trkpt>
      <trkpt lat="47.7208" lon="7.32948">
        <ele>320.7370605</ele>
        <time>2012-01-22T09:15:27Z</time>
      </trkpt>
      <trkpt lat="47.72063" lon="7.32949">
        <ele>323.1403809</ele>
        <time>2012-01-22T09:15:31Z</time>
      </trkpt>
      <trkpt lat="47.72059" lon="7.32952">
        <ele>322.659668</ele>
        <time>2012-01-22T09:15:32Z</time>
      </trkpt>
      <trkpt lat="47.72052" lon="7.3296">
        <ele>322.1789551</ele>
        <time>2012-01-22T09:15:34Z</time>
      </trkpt>
      <trkpt lat="47.72035" lon="7.32981">
        <ele>322.659668</ele>
        <time>2012-01-22T09:15:40Z</time>
      </trkpt>
      <trkpt lat="47.72018" lon="7.33">
        <ele>322.659668</ele>
        <time>2012-01-22T09:15:45Z</time>
      </trkpt>
      <trkpt lat="47.71988" lon="7.33026">
        <ele>319.2950439</ele>
        <time>2012-01-22T09:15:50Z</time>
      </trkpt>
      <trkpt lat="47.71979" lon="7.33034">
        <ele>317.3724365</ele>
        <time>2012-01-22T09:15:52Z</time>
      </trkpt>
      <trkpt lat="47.71963" lon="7.33025">
        <ele>313.0465088</ele>
        <time>2012-01-22T09:15:56Z</time>
      </trkpt>
      <trkpt lat="47.71949" lon="7.33021">
        <ele>310.6430664</ele>
        <time>2012-01-22T09:15:59Z</time>
      </trkpt>
      <trkpt lat="47.71937" lon="7.33033">
        <ele>309.2011719</ele>
        <time>2012-01-22T09:16:01Z</time>
      </trkpt>
      <trkpt lat="47.71914" lon="7.3306">
        <ele>308.2398682</ele>
        <time>2012-01-22T09:16:05Z</time>
      </trkpt>
      <trkpt lat="47.71895" lon="7.33057">
        <ele>305.355957</ele>
        <time>2012-01-22T09:16:08Z</time>
      </trkpt>
      <trkpt lat="47.7189" lon="7.33049">
        <ele>304.8752441</ele>
        <time>2012-01-22T09:16:09Z</time>
      </trkpt>
      <trkpt lat="47.71852" lon="7.32985">
        <ele>300.0687256</ele>
        <time>2012-01-22T09:16:16Z</time>
      </trkpt>
      <trkpt lat="47.71841" lon="7.32967">
        <ele>298.626709</ele>
        <time>2012-01-22T09:16:18Z</time>
      </trkpt>
      <trkpt lat="47.71804" lon="7.32915">
        <ele>295.7426758</ele>
        <time>2012-01-22T09:16:24Z</time>
      </trkpt>
      <trkpt lat="47.71764" lon="7.32861">
        <ele>289.9748535</ele>
        <time>2012-01-22T09:16:30Z</time>
      </trkpt>
      <trkpt lat="47.71712" lon="7.32782">
        <ele>281.322998</ele>
        <time>2012-01-22T09:16:38Z</time>
      </trkpt>
      <trkpt lat="47.71694" lon="7.32753">
        <ele>277.958252</ele>
        <time>2012-01-22T09:16:41Z</time>
      </trkpt>
      <trkpt lat="47.71677" lon="7.32707">
        <ele>275.5550537</ele>
        <time>2012-01-22T09:16:46Z</time>
      </trkpt>
      <trkpt lat="47.71674" lon="7.32685">
        <ele>275.0744629</ele>
        <time>2012-01-22T09:16:48Z</time>
      </trkpt>
      <trkpt lat="47.71664" lon="7.32659">
        <ele>274.59375</ele>
        <time>2012-01-22T09:16:52Z</time>
      </trkpt>
      <trkpt lat="47.71662" lon="7.32657">
        <ele>274.59375</ele>
        <time>2012-01-22T09:16:53Z</time>
      </trkpt>
      <trkpt lat="47.71661" lon="7.32657">
        <ele>277.958252</ele>
        <time>2012-01-22T09:17:05Z</time>
      </trkpt>
      <trkpt lat="47.7166" lon="7.32653">
        <ele>282.2843018</ele>
        <time>2012-01-22T09:17:22Z</time>
      </trkpt>
      <trkpt lat="47.71661" lon="7.32652">
        <ele>283.7261963</ele>
        <time>2012-01-22T09:17:30Z</time>
      </trkpt>
      <trkpt lat="47.71661" lon="7.32652">
        <ele>284.2069092</ele>
        <time>2012-01-22T09:17:34Z</time>
      </trkpt>
      <trkpt lat="47.71661" lon="7.32652">
        <ele>284.6876221</ele>
        <time>2012-01-22T09:17:35Z</time>
      </trkpt>
      <trkpt lat="47.71658" lon="7.3265">
        <ele>287.0908203</ele>
        <time>2012-01-22T09:17:45Z</time>
      </trkpt>
      <trkpt lat="47.71659" lon="7.32652">
        <ele>287.0908203</ele>
        <time>2012-01-22T09:17:59Z</time>
      </trkpt>
      <trkpt lat="47.71659" lon="7.32652">
        <ele>286.6102295</ele>
        <time>2012-01-22T09:18:01Z</time>
      </trkpt>
      <trkpt lat="47.71659" lon="7.32653">
        <ele>287.0908203</ele>
        <time>2012-01-22T09:18:02Z</time>
      </trkpt>
      <trkpt lat="47.71661" lon="7.32653">
        <ele>288.532959</ele>
        <time>2012-01-22T09:18:14Z</time>
      </trkpt>
      <trkpt lat="47.71661" lon="7.32653">
        <ele>288.532959</ele>
        <time>2012-01-22T09:18:17Z</time>
      </trkpt>
      <trkpt lat="47.71662" lon="7.32653">
        <ele>288.0522461</ele>
        <time>2012-01-22T09:18:18Z</time>
      </trkpt>
      <trkpt lat="47.71663" lon="7.32656">
        <ele>286.1295166</ele>
        <time>2012-01-22T09:18:23Z</time>
      </trkpt>
      <trkpt lat="47.71666" lon="7.32661">
        <ele>284.6876221</ele>
        <time>2012-01-22T09:18:30Z</time>
      </trkpt>
      <trkpt lat="47.71662" lon="7.32665">
        <ele>279.4002686</ele>
        <time>2012-01-22T09:18:40Z</time>
      </trkpt>
      <trkpt lat="47.71664" lon="7.32663">
        <ele>276.5163574</ele>
        <time>2012-01-22T09:18:47Z</time>
      </trkpt>
      <trkpt lat="47.71665" lon="7.32659">
        <ele>276.5163574</ele>
        <time>2012-01-22T09:18:52Z</time>
      </trkpt>
      <trkpt lat="47.71665" lon="7.32657">
        <ele>276.5163574</ele>
        <time>2012-01-22T09:18:53Z</time>
      </trkpt>
      <trkpt lat="47.71668" lon="7.32649">
        <ele>275.5550537</ele>
        <time>2012-01-22T09:18:59Z</time>
      </trkpt>
      <trkpt lat="47.7167" lon="7.32648">
        <ele>275.5550537</ele>
        <time>2012-01-22T09:19:01Z</time>
      </trkpt>
      <trkpt lat="47.71673" lon="7.32646">
        <ele>276.0356445</ele>
        <time>2012-01-22T09:19:03Z</time>
      </trkpt>
      <trkpt lat="47.71678" lon="7.3264">
        <ele>276.5163574</ele>
        <time>2012-01-22T09:19:06Z</time>
      </trkpt>
      <trkpt lat="47.71693" lon="7.32624">
        <ele>278.9196777</ele>
        <time>2012-01-22T09:19:13Z</time>
      </trkpt>
      <trkpt lat="47.71705" lon="7.32602">
        <ele>280.8424072</ele>
        <time>2012-01-22T09:19:19Z</time>
      </trkpt>
      <trkpt lat="47.71713" lon="7.32588">
        <ele>281.8035889</ele>
        <time>2012-01-22T09:19:24Z</time>
      </trkpt>
      <trkpt lat="47.71715" lon="7.32585">
        <ele>281.8035889</ele>
        <time>2012-01-22T09:19:27Z</time>
      </trkpt>
      <trkpt lat="47.71717" lon="7.32586">
        <ele>277.958252</ele>
        <time>2012-01-22T09:19:38Z</time>
      </trkpt>
      <trkpt lat="47.71719" lon="7.32587">
        <ele>277.958252</ele>
        <time>2012-01-22T09:19:58Z</time>
      </trkpt>
      <trkpt lat="47.71719" lon="7.32587">
        <ele>277.958252</ele>
        <time>2012-01-22T09:19:59Z</time>
      </trkpt>
      <trkpt lat="47.71718" lon="7.32586">
        <ele>278.9196777</ele>
        <time>2012-01-22T09:20:10Z</time>
      </trkpt>
      <trkpt lat="47.71715" lon="7.32583">
        <ele>279.8808594</ele>
        <time>2012-01-22T09:20:15Z</time>
      </trkpt>
      <trkpt lat="47.71716" lon="7.32582">
        <ele>279.8808594</ele>
        <time>2012-01-22T09:20:19Z</time>
      </trkpt>
      <trkpt lat="47.7172" lon="7.32581">
        <ele>281.8035889</ele>
        <time>2012-01-22T09:20:32Z</time>
      </trkpt>
      <trkpt lat="47.71722" lon="7.32576">
        <ele>280.8424072</ele>
        <time>2012-01-22T09:20:54Z</time>
      </trkpt>
      <trkpt lat="47.7172" lon="7.32578">
        <ele>278.9196777</ele>
        <time>2012-01-22T09:21:06Z</time>
      </trkpt>
      <trkpt lat="47.7172" lon="7.32576">
        <ele>279.8808594</ele>
        <time>2012-01-22T09:21:09Z</time>
      </trkpt>
      <trkpt lat="47.71725" lon="7.32558">
        <ele>281.322998</ele>
        <time>2012-01-22T09:21:16Z</time>
      </trkpt>
      <trkpt lat="47.71733" lon="7.32538">
        <ele>282.7650146</ele>
        <time>2012-01-22T09:21:22Z</time>
      </trkpt>
      <trkpt lat="47.7174" lon="7.32517">
        <ele>285.6488037</ele>
        <time>2012-01-22T09:21:26Z</time>
      </trkpt>
      <trkpt lat="47.71754" lon="7.32484">
        <ele>285.1682129</ele>
        <time>2012-01-22T09:21:31Z</time>
      </trkpt>
      <trkpt lat="47.71765" lon="7.32462">
        <ele>285.6488037</ele>
        <time>2012-01-22T09:21:34Z</time>
      </trkpt>
      <trkpt lat="47.71781" lon="7.32444">
        <ele>283.7261963</ele>
        <time>2012-01-22T09:21:37Z</time>
      </trkpt>
      <trkpt lat="47.71804" lon="7.32401">
        <ele>282.2843018</ele>
        <time>2012-01-22T09:21:41Z</time>
      </trkpt>
      <trkpt lat="47.71819" lon="7.32371">
        <ele>280.8424072</ele>
        <time>2012-01-22T09:21:44Z</time>
      </trkpt>
      <trkpt lat="47.71829" lon="7.32316">
        <ele>282.7650146</ele>
        <time>2012-01-22T09:21:50Z</time>
      </trkpt>
      <trkpt lat="47.71834" lon="7.32302">
        <ele>282.2843018</ele>
        <time>2012-01-22T09:21:52Z</time>
      </trkpt>
      <trkpt lat="47.71852" lon="7.32237">
        <ele>283.7261963</ele>
        <time>2012-01-22T09:22:01Z</time>
      </trkpt>
      <trkpt lat="47.71858" lon="7.32223">
        <ele>283.2456055</ele>
        <time>2012-01-22T09:22:03Z</time>
      </trkpt>
      <trkpt lat="47.71883" lon="7.32173">
        <ele>278.4389648</ele>
        <time>2012-01-22T09:22:10Z</time>
      </trkpt>
      <trkpt lat="47.71911" lon="7.32134">
        <ele>276.5163574</ele>
        <time>2012-01-22T09:22:16Z</time>
      </trkpt>
      <trkpt lat="47.71948" lon="7.32089">
        <ele>273.6324463</ele>
        <time>2012-01-22T09:22:24Z</time>
      </trkpt>
      <trkpt lat="47.71962" lon="7.32075">
        <ele>272.6711426</ele>
        <time>2012-01-22T09:22:27Z</time>
      </trkpt>
      <trkpt lat="47.71973" lon="7.32051">
        <ele>272.1904297</ele>
        <time>2012-01-22T09:22:31Z</time>
      </trkpt>
      <trkpt lat="47.71966" lon="7.32032">
        <ele>270.2677002</ele>
        <time>2012-01-22T09:22:34Z</time>
      </trkpt>
      <trkpt lat="47.7196" lon="7.32022">
        <ele>268.3450928</ele>
        <time>2012-01-22T09:22:36Z</time>
      </trkpt>
      <trkpt lat="47.7195" lon="7.32008">
        <ele>266.4224854</ele>
        <time>2012-01-22T09:22:39Z</time>
      </trkpt>
      <trkpt lat="47.71925" lon="7.31982">
        <ele>264.4998779</ele>
        <time>2012-01-22T09:22:46Z</time>
      </trkpt>
      <trkpt lat="47.71911" lon="7.31983">
        <ele>262.0965576</ele>
        <time>2012-01-22T09:22:50Z</time>
      </trkpt>
      <trkpt lat="47.71905" lon="7.32">
        <ele>263.0578613</ele>
        <time>2012-01-22T09:22:53Z</time>
      </trkpt>
      <trkpt lat="47.71891" lon="7.32047">
        <ele>267.3839111</ele>
        <time>2012-01-22T09:23:01Z</time>
      </trkpt>
      <trkpt lat="47.71874" lon="7.32083">
        <ele>266.9031982</ele>
        <time>2012-01-22T09:23:08Z</time>
      </trkpt>
      <trkpt lat="47.71871" lon="7.32088">
        <ele>266.9031982</ele>
        <time>2012-01-22T09:23:09Z</time>
      </trkpt>
      <trkpt lat="47.71867" lon="7.32099">
        <ele>266.9031982</ele>
        <time>2012-01-22T09:23:11Z</time>
      </trkpt>
      <trkpt lat="47.71856" lon="7.32123">
        <ele>266.4224854</ele>
        <time>2012-01-22T09:23:16Z</time>
      </trkpt>
      <trkpt lat="47.71842" lon="7.3214">
        <ele>266.9031982</ele>
        <time>2012-01-22T09:23:21Z</time>
      </trkpt>
      <trkpt lat="47.71832" lon="7.32149">
        <ele>269.3065186</ele>
        <time>2012-01-22T09:23:25Z</time>
      </trkpt>
      <trkpt lat="47.71827" lon="7.32151">
        <ele>270.2677002</ele>
        <time>2012-01-22T09:23:27Z</time>
      </trkpt>
      <trkpt lat="47.71814" lon="7.32153">
        <ele>272.6711426</ele>
        <time>2012-01-22T09:23:32Z</time>
      </trkpt>
      <trkpt lat="47.71807" lon="7.32152">
        <ele>274.59375</ele>
        <time>2012-01-22T09:23:35Z</time>
      </trkpt>
      <trkpt lat="47.71796" lon="7.3215">
        <ele>276.9970703</ele>
        <time>2012-01-22T09:23:39Z</time>
      </trkpt>
      <trkpt lat="47.71781" lon="7.32151">
        <ele>281.8035889</ele>
        <time>2012-01-22T09:23:45Z</time>
      </trkpt>
      <trkpt lat="47.71763" lon="7.32151">
        <ele>287.5714111</ele>
        <time>2012-01-22T09:23:52Z</time>
      </trkpt>
      <trkpt lat="47.71748" lon="7.32151">
        <ele>289.0135498</ele>
        <time>2012-01-22T09:23:58Z</time>
      </trkpt>
      <trkpt lat="47.71738" lon="7.32147">
        <ele>290.4555664</ele>
        <time>2012-01-22T09:24:03Z</time>
      </trkpt>
      <trkpt lat="47.71729" lon="7.3214">
        <ele>291.8974609</ele>
        <time>2012-01-22T09:24:08Z</time>
      </trkpt>
      <trkpt lat="47.7172" lon="7.32137">
        <ele>292.3781738</ele>
        <time>2012-01-22T09:24:13Z</time>
      </trkpt>
      <trkpt lat="47.71705" lon="7.32129">
        <ele>293.8200684</ele>
        <time>2012-01-22T09:24:20Z</time>
      </trkpt>
      <trkpt lat="47.71694" lon="7.32127">
        <ele>295.7426758</ele>
        <time>2012-01-22T09:24:25Z</time>
      </trkpt>
      <trkpt lat="47.71672" lon="7.32126">
        <ele>297.1846924</ele>
        <time>2012-01-22T09:24:34Z</time>
      </trkpt>
      <trkpt lat="47.71655" lon="7.32124">
        <ele>296.7041016</ele>
        <time>2012-01-22T09:24:42Z</time>
      </trkpt>
      <trkpt lat="47.71647" lon="7.32116">
        <ele>296.7041016</ele>
        <time>2012-01-22T09:24:48Z</time>
      </trkpt>
      <trkpt lat="47.71638" lon="7.32102">
        <ele>297.1846924</ele>
        <time>2012-01-22T09:24:56Z</time>
      </trkpt>
      <trkpt lat="47.71629" lon="7.32087">
        <ele>298.1461182</ele>
        <time>2012-01-22T09:25:04Z</time>
      </trkpt>
      <trkpt lat="47.7162" lon="7.32072">
        <ele>297.6654053</ele>
        <time>2012-01-22T09:25:12Z</time>
      </trkpt>
      <trkpt lat="47.71611" lon="7.32056">
        <ele>297.1846924</ele>
        <time>2012-01-22T09:25:20Z</time>
      </trkpt>
      <trkpt lat="47.71606" lon="7.32045">
        <ele>295.7426758</ele>
        <time>2012-01-22T09:25:26Z</time>
      </trkpt>
      <trkpt lat="47.71605" lon="7.32043">
        <ele>296.2235107</ele>
        <time>2012-01-22T09:25:32Z</time>
      </trkpt>
      <trkpt lat="47.71605" lon="7.32044">
        <ele>297.1846924</ele>
        <time>2012-01-22T09:25:45Z</time>
      </trkpt>
      <trkpt lat="47.71605" lon="7.32044">
        <ele>296.7041016</ele>
        <time>2012-01-22T09:25:56Z</time>
      </trkpt>
      <trkpt lat="47.71605" lon="7.32044">
        <ele>294.7813721</ele>
        <time>2012-01-22T09:26:06Z</time>
      </trkpt>
      <trkpt lat="47.71604" lon="7.32044">
        <ele>293.8200684</ele>
        <time>2012-01-22T09:26:14Z</time>
      </trkpt>
      <trkpt lat="47.71604" lon="7.32044">
        <ele>293.3393555</ele>
        <time>2012-01-22T09:26:17Z</time>
      </trkpt>
      <trkpt lat="47.71603" lon="7.32043">
        <ele>293.8200684</ele>
        <time>2012-01-22T09:26:50Z</time>
      </trkpt>
      <trkpt lat="47.71603" lon="7.32043">
        <ele>294.3007812</ele>
        <time>2012-01-22T09:26:54Z</time>
      </trkpt>
      <trkpt lat="47.71604" lon="7.32045">
        <ele>292.3781738</ele>
        <time>2012-01-22T09:28:04Z</time>
      </trkpt>
      <trkpt lat="47.71604" lon="7.32044">
        <ele>293.8200684</ele>
        <time>2012-01-22T09:28:09Z</time>
      </trkpt>
      <trkpt lat="47.71603" lon="7.32035">
        <ele>294.3007812</ele>
        <time>2012-01-22T09:28:54Z</time>
      </trkpt>
      <trkpt lat="47.71601" lon="7.32033">
        <ele>294.3007812</ele>
        <time>2012-01-22T09:28:55Z</time>
      </trkpt>
      <trkpt lat="47.71592" lon="7.32031">
        <ele>294.3007812</ele>
        <time>2012-01-22T09:28:59Z</time>
      </trkpt>
      <trkpt lat="47.71568" lon="7.32036">
        <ele>295.2619629</ele>
        <time>2012-01-22T09:29:07Z</time>
      </trkpt>
      <trkpt lat="47.71533" lon="7.32042">
        <ele>295.7426758</ele>
        <time>2012-01-22T09:29:16Z</time>
      </trkpt>
      <trkpt lat="47.71512" lon="7.32046">
        <ele>296.2235107</ele>
        <time>2012-01-22T09:29:21Z</time>
      </trkpt>
      <trkpt lat="47.715" lon="7.32051">
        <ele>296.2235107</ele>
        <time>2012-01-22T09:29:24Z</time>
      </trkpt>
      <trkpt lat="47.71459" lon="7.32066">
        <ele>297.1846924</ele>
        <time>2012-01-22T09:29:34Z</time>
      </trkpt>
      <trkpt lat="47.71431" lon="7.32076">
        <ele>298.1461182</ele>
        <time>2012-01-22T09:29:41Z</time>
      </trkpt>
      <trkpt lat="47.71408" lon="7.3209">
        <ele>301.0299072</ele>
        <time>2012-01-22T09:29:47Z</time>
      </trkpt>
      <trkpt lat="47.71384" lon="7.32107">
        <ele>304.3946533</ele>
        <time>2012-01-22T09:29:54Z</time>
      </trkpt>
      <trkpt lat="47.71367" lon="7.32125">
        <ele>309.2011719</ele>
        <time>2012-01-22T09:30:00Z</time>
      </trkpt>
      <trkpt lat="47.71354" lon="7.3214">
        <ele>307.7592773</ele>
        <time>2012-01-22T09:30:05Z</time>
      </trkpt>
      <trkpt lat="47.71335" lon="7.32164">
        <ele>309.2011719</ele>
        <time>2012-01-22T09:30:12Z</time>
      </trkpt>
      <trkpt lat="47.71322" lon="7.32184">
        <ele>309.6818848</ele>
        <time>2012-01-22T09:30:17Z</time>
      </trkpt>
      <trkpt lat="47.71301" lon="7.32215">
        <ele>310.6430664</ele>
        <time>2012-01-22T09:30:25Z</time>
      </trkpt>
      <trkpt lat="47.71275" lon="7.32252">
        <ele>313.0465088</ele>
        <time>2012-01-22T09:30:35Z</time>
      </trkpt>
      <trkpt lat="47.71256" lon="7.32282">
        <ele>317.3724365</ele>
        <time>2012-01-22T09:30:43Z</time>
      </trkpt>
      <trkpt lat="47.71242" lon="7.32307">
        <ele>321.6983643</ele>
        <time>2012-01-22T09:30:49Z</time>
      </trkpt>
      <trkpt lat="47.71226" lon="7.32335">
        <ele>320.7370605</ele>
        <time>2012-01-22T09:30:56Z</time>
      </trkpt>
      <trkpt lat="47.71217" lon="7.32349">
        <ele>321.6983643</ele>
        <time>2012-01-22T09:31:01Z</time>
      </trkpt>
      <trkpt lat="47.71206" lon="7.32364">
        <ele>319.2950439</ele>
        <time>2012-01-22T09:31:07Z</time>
      </trkpt>
      <trkpt lat="47.71193" lon="7.3238">
        <ele>318.3336182</ele>
        <time>2012-01-22T09:31:12Z</time>
      </trkpt>
      <trkpt lat="47.71174" lon="7.32405">
        <ele>317.3724365</ele>
        <time>2012-01-22T09:31:18Z</time>
      </trkpt>
      <trkpt lat="47.71148" lon="7.32428">
        <ele>316.4110107</ele>
        <time>2012-01-22T09:31:25Z</time>
      </trkpt>
      <trkpt lat="47.71123" lon="7.32452">
        <ele>315.9304199</ele>
        <time>2012-01-22T09:31:31Z</time>
      </trkpt>
      <trkpt lat="47.71085" lon="7.32482">
        <ele>316.4110107</ele>
        <time>2012-01-22T09:31:40Z</time>
      </trkpt>
      <trkpt lat="47.71055" lon="7.32505">
        <ele>318.8143311</ele>
        <time>2012-01-22T09:31:48Z</time>
      </trkpt>
      <trkpt lat="47.71027" lon="7.32528">
        <ele>322.1789551</ele>
        <time>2012-01-22T09:31:56Z</time>
      </trkpt>
      <trkpt lat="47.71001" lon="7.32549">
        <ele>325.0629883</ele>
        <time>2012-01-22T09:32:04Z</time>
      </trkpt>
      <trkpt lat="47.70968" lon="7.32579">
        <ele>326.5048828</ele>
        <time>2012-01-22T09:32:13Z</time>
      </trkpt>
      <trkpt lat="47.7093" lon="7.32614">
        <ele>324.1015625</ele>
        <time>2012-01-22T09:32:23Z</time>
      </trkpt>
      <trkpt lat="47.70893" lon="7.32651">
        <ele>324.5822754</ele>
        <time>2012-01-22T09:32:33Z</time>
      </trkpt>
      <trkpt lat="47.70865" lon="7.32682">
        <ele>325.0629883</ele>
        <time>2012-01-22T09:32:41Z</time>
      </trkpt>
      <trkpt lat="47.70852" lon="7.327">
        <ele>325.5435791</ele>
        <time>2012-01-22T09:32:45Z</time>
      </trkpt>
      <trkpt lat="47.70821" lon="7.32754">
        <ele>327.4661865</ele>
        <time>2012-01-22T09:32:56Z</time>
      </trkpt>
      <trkpt lat="47.70799" lon="7.32792">
        <ele>332.2728271</ele>
        <time>2012-01-22T09:33:04Z</time>
      </trkpt>
      <trkpt lat="47.70779" lon="7.32827">
        <ele>336.1181641</ele>
        <time>2012-01-22T09:33:12Z</time>
      </trkpt>
      <trkpt lat="47.70771" lon="7.32842">
        <ele>337.5600586</ele>
        <time>2012-01-22T09:33:17Z</time>
      </trkpt>
      <trkpt lat="47.70768" lon="7.32849">
        <ele>338.0407715</ele>
        <time>2012-01-22T09:33:24Z</time>
      </trkpt>
      <trkpt lat="47.70768" lon="7.32848">
        <ele>335.6373291</ele>
        <time>2012-01-22T09:33:40Z</time>
      </trkpt>
      <trkpt lat="47.70768" lon="7.32848">
        <ele>334.6761475</ele>
        <time>2012-01-22T09:33:54Z</time>
      </trkpt>
      <trkpt lat="47.70767" lon="7.32849">
        <ele>334.1954346</ele>
        <time>2012-01-22T09:34:12Z</time>
      </trkpt>
      <trkpt lat="47.70767" lon="7.32849">
        <ele>336.598877</ele>
        <time>2012-01-22T09:34:19Z</time>
      </trkpt>
      <trkpt lat="47.70767" lon="7.32849">
        <ele>339.0020752</ele>
        <time>2012-01-22T09:34:24Z</time>
      </trkpt>
      <trkpt lat="47.70764" lon="7.32857">
        <ele>339.9633789</ele>
        <time>2012-01-22T09:34:31Z</time>
      </trkpt>
      <trkpt lat="47.70756" lon="7.32875">
        <ele>339.9633789</ele>
        <time>2012-01-22T09:34:35Z</time>
      </trkpt>
      <trkpt lat="47.70738" lon="7.32914">
        <ele>337.5600586</ele>
        <time>2012-01-22T09:34:41Z</time>
      </trkpt>
      <trkpt lat="47.70707" lon="7.32975">
        <ele>334.6761475</ele>
        <time>2012-01-22T09:34:50Z</time>
      </trkpt>
      <trkpt lat="47.70675" lon="7.33044">
        <ele>334.1954346</ele>
        <time>2012-01-22T09:35:00Z</time>
      </trkpt>
      <trkpt lat="47.70655" lon="7.3309">
        <ele>335.6373291</ele>
        <time>2012-01-22T09:35:07Z</time>
      </trkpt>
      <trkpt lat="47.70642" lon="7.33121">
        <ele>336.598877</ele>
        <time>2012-01-22T09:35:12Z</time>
      </trkpt>
      <trkpt lat="47.70617" lon="7.33178">
        <ele>336.598877</ele>
        <time>2012-01-22T09:35:22Z</time>
      </trkpt>
      <trkpt lat="47.70613" lon="7.33186">
        <ele>336.598877</ele>
        <time>2012-01-22T09:35:24Z</time>
      </trkpt>
      <trkpt lat="47.70603" lon="7.33183">
        <ele>336.1181641</ele>
        <time>2012-01-22T09:35:28Z</time>
      </trkpt>
      <trkpt lat="47.70601" lon="7.3318">
        <ele>336.1181641</ele>
        <time>2012-01-22T09:35:29Z</time>
      </trkpt>
      <trkpt lat="47.70583" lon="7.33152">
        <ele>335.1567383</ele>
        <time>2012-01-22T09:35:36Z</time>
      </trkpt>
      <trkpt lat="47.70563" lon="7.33118">
        <ele>334.1954346</ele>
        <time>2012-01-22T09:35:44Z</time>
      </trkpt>
      <trkpt lat="47.70537" lon="7.33072">
        <ele>334.1954346</ele>
        <time>2012-01-22T09:35:54Z</time>
      </trkpt>
      <trkpt lat="47.70514" lon="7.33033">
        <ele>337.5600586</ele>
        <time>2012-01-22T09:36:03Z</time>
      </trkpt>
      <trkpt lat="47.70488" lon="7.32991">
        <ele>340.4440918</ele>
        <time>2012-01-22T09:36:13Z</time>
      </trkpt>
      <trkpt lat="47.70462" lon="7.32949">
        <ele>345.2506104</ele>
        <time>2012-01-22T09:36:23Z</time>
      </trkpt>
      <trkpt lat="47.70443" lon="7.32911">
        <ele>343.3278809</ele>
        <time>2012-01-22T09:36:32Z</time>
      </trkpt>
      <trkpt lat="47.7043" lon="7.3289">
        <ele>342.84729</ele>
        <time>2012-01-22T09:36:38Z</time>
      </trkpt>
      <trkpt lat="47.70415" lon="7.32868">
        <ele>341.8859863</ele>
        <time>2012-01-22T09:36:45Z</time>
      </trkpt>
      <trkpt lat="47.70404" lon="7.32848">
        <ele>341.4052734</ele>
        <time>2012-01-22T09:36:52Z</time>
      </trkpt>
      <trkpt lat="47.70394" lon="7.3283">
        <ele>341.4052734</ele>
        <time>2012-01-22T09:36:58Z</time>
      </trkpt>
      <trkpt lat="47.70385" lon="7.32809">
        <ele>339.482666</ele>
        <time>2012-01-22T09:37:04Z</time>
      </trkpt>
      <trkpt lat="47.70371" lon="7.32783">
        <ele>337.5600586</ele>
        <time>2012-01-22T09:37:11Z</time>
      </trkpt>
      <trkpt lat="47.70353" lon="7.3275">
        <ele>336.598877</ele>
        <time>2012-01-22T09:37:18Z</time>
      </trkpt>
      <trkpt lat="47.70333" lon="7.32708">
        <ele>335.6373291</ele>
        <time>2012-01-22T09:37:26Z</time>
      </trkpt>
      <trkpt lat="47.70315" lon="7.32664">
        <ele>334.6761475</ele>
        <time>2012-01-22T09:37:33Z</time>
      </trkpt>
      <trkpt lat="47.70294" lon="7.32605">
        <ele>331.7921143</ele>
        <time>2012-01-22T09:37:41Z</time>
      </trkpt>
      <trkpt lat="47.70276" lon="7.32548">
        <ele>330.3502197</ele>
        <time>2012-01-22T09:37:48Z</time>
      </trkpt>
      <trkpt lat="47.70263" lon="7.32503">
        <ele>329.8695068</ele>
        <time>2012-01-22T09:37:54Z</time>
      </trkpt>
      <trkpt lat="47.70252" lon="7.32466">
        <ele>332.2728271</ele>
        <time>2012-01-22T09:38:00Z</time>
      </trkpt>
      <trkpt lat="47.70247" lon="7.32445">
        <ele>333.2341309</ele>
        <time>2012-01-22T09:38:03Z</time>
      </trkpt>
      <trkpt lat="47.70234" lon="7.32398">
        <ele>332.2728271</ele>
        <time>2012-01-22T09:38:10Z</time>
      </trkpt>
      <trkpt lat="47.7022" lon="7.3235">
        <ele>330.3502197</ele>
        <time>2012-01-22T09:38:17Z</time>
      </trkpt>
      <trkpt lat="47.70199" lon="7.32292">
        <ele>327.9467773</ele>
        <time>2012-01-22T09:38:25Z</time>
      </trkpt>
      <trkpt lat="47.70182" lon="7.32239">
        <ele>326.9855957</ele>
        <time>2012-01-22T09:38:32Z</time>
      </trkpt>
      <trkpt lat="47.70161" lon="7.32173">
        <ele>326.0241699</ele>
        <time>2012-01-22T09:38:41Z</time>
      </trkpt>
      <trkpt lat="47.70134" lon="7.32103">
        <ele>324.1015625</ele>
        <time>2012-01-22T09:38:51Z</time>
      </trkpt>
      <trkpt lat="47.70117" lon="7.32065">
        <ele>322.659668</ele>
        <time>2012-01-22T09:38:56Z</time>
      </trkpt>
      <trkpt lat="47.70091" lon="7.32037">
        <ele>321.2177734</ele>
        <time>2012-01-22T09:39:01Z</time>
      </trkpt>
      <trkpt lat="47.70085" lon="7.32032">
        <ele>320.7370605</ele>
        <time>2012-01-22T09:39:02Z</time>
      </trkpt>
      <trkpt lat="47.70029" lon="7.31981">
        <ele>316.8917236</ele>
        <time>2012-01-22T09:39:11Z</time>
      </trkpt>
      <trkpt lat="47.69999" lon="7.31945">
        <ele>314.9691162</ele>
        <time>2012-01-22T09:39:16Z</time>
      </trkpt>
      <trkpt lat="47.69968" lon="7.31914">
        <ele>311.6044922</ele>
        <time>2012-01-22T09:39:21Z</time>
      </trkpt>
      <trkpt lat="47.69918" lon="7.31873">
        <ele>305.355957</ele>
        <time>2012-01-22T09:39:28Z</time>
      </trkpt>
      <trkpt lat="47.69861" lon="7.31823">
        <ele>300.0687256</ele>
        <time>2012-01-22T09:39:35Z</time>
      </trkpt>
      <trkpt lat="47.69853" lon="7.31816">
        <ele>299.5880127</ele>
        <time>2012-01-22T09:39:36Z</time>
      </trkpt>
      <trkpt lat="47.69815" lon="7.31809">
        <ele>296.7041016</ele>
        <time>2012-01-22T09:39:40Z</time>
      </trkpt>
      <trkpt lat="47.69785" lon="7.31794">
        <ele>293.3393555</ele>
        <time>2012-01-22T09:39:44Z</time>
      </trkpt>
      <trkpt lat="47.69781" lon="7.31787">
        <ele>292.8587646</ele>
        <time>2012-01-22T09:39:45Z</time>
      </trkpt>
      <trkpt lat="47.69773" lon="7.31778">
        <ele>290.4555664</ele>
        <time>2012-01-22T09:39:48Z</time>
      </trkpt>
      <trkpt lat="47.69768" lon="7.31774">
        <ele>291.416748</ele>
        <time>2012-01-22T09:39:52Z</time>
      </trkpt>
      <trkpt lat="47.69766" lon="7.31774">
        <ele>289.4941406</ele>
        <time>2012-01-22T09:40:04Z</time>
      </trkpt>
      <trkpt lat="47.69765" lon="7.31775">
        <ele>289.9748535</ele>
        <time>2012-01-22T09:40:16Z</time>
      </trkpt>
      <trkpt lat="47.69765" lon="7.31775">
        <ele>292.8587646</ele>
        <time>2012-01-22T09:40:35Z</time>
      </trkpt>
      <trkpt lat="47.69771" lon="7.31762">
        <ele>291.8974609</ele>
        <time>2012-01-22T09:40:40Z</time>
      </trkpt>
      <trkpt lat="47.69777" lon="7.3176">
        <ele>292.8587646</ele>
        <time>2012-01-22T09:40:43Z</time>
      </trkpt>
      <trkpt lat="47.69779" lon="7.31758">
        <ele>293.3393555</ele>
        <time>2012-01-22T09:40:44Z</time>
      </trkpt>
      <trkpt lat="47.6979" lon="7.31749">
        <ele>295.7426758</ele>
        <time>2012-01-22T09:40:48Z</time>
      </trkpt>
      <trkpt lat="47.698" lon="7.31741">
        <ele>295.7426758</ele>
        <time>2012-01-22T09:40:52Z</time>
      </trkpt>
      <trkpt lat="47.6981" lon="7.31733">
        <ele>296.2235107</ele>
        <time>2012-01-22T09:40:56Z</time>
      </trkpt>
      <trkpt lat="47.69822" lon="7.31724">
        <ele>296.2235107</ele>
        <time>2012-01-22T09:41:01Z</time>
      </trkpt>
      <trkpt lat="47.69839" lon="7.31712">
        <ele>297.6654053</ele>
        <time>2012-01-22T09:41:08Z</time>
      </trkpt>
      <trkpt lat="47.69862" lon="7.31695">
        <ele>300.5493164</ele>
        <time>2012-01-22T09:41:17Z</time>
      </trkpt>
      <trkpt lat="47.69882" lon="7.3168">
        <ele>303.9139404</ele>
        <time>2012-01-22T09:41:25Z</time>
      </trkpt>
      <trkpt lat="47.69898" lon="7.31666">
        <ele>306.7978516</ele>
        <time>2012-01-22T09:41:33Z</time>
      </trkpt>
      <trkpt lat="47.69899" lon="7.31656">
        <ele>308.720459</ele>
        <time>2012-01-22T09:41:39Z</time>
      </trkpt>
      <trkpt lat="47.6989" lon="7.31636">
        <ele>303.4332275</ele>
        <time>2012-01-22T09:41:47Z</time>
      </trkpt>
      <trkpt lat="47.69875" lon="7.31605">
        <ele>299.5880127</ele>
        <time>2012-01-22T09:41:55Z</time>
      </trkpt>
      <trkpt lat="47.69855" lon="7.31569">
        <ele>299.1072998</ele>
        <time>2012-01-22T09:42:03Z</time>
      </trkpt>
      <trkpt lat="47.69837" lon="7.31544">
        <ele>300.0687256</ele>
        <time>2012-01-22T09:42:10Z</time>
      </trkpt>
      <trkpt lat="47.69823" lon="7.31527">
        <ele>301.0299072</ele>
        <time>2012-01-22T09:42:17Z</time>
      </trkpt>
      <trkpt lat="47.69808" lon="7.3151">
        <ele>302.9525146</ele>
        <time>2012-01-22T09:42:24Z</time>
      </trkpt>
      <trkpt lat="47.6979" lon="7.31492">
        <ele>306.7978516</ele>
        <time>2012-01-22T09:42:31Z</time>
      </trkpt>
      <trkpt lat="47.69777" lon="7.31474">
        <ele>310.1624756</ele>
        <time>2012-01-22T09:42:37Z</time>
      </trkpt>
      <trkpt lat="47.6976" lon="7.31453">
        <ele>316.4110107</ele>
        <time>2012-01-22T09:42:43Z</time>
      </trkpt>
      <trkpt lat="47.69743" lon="7.31426">
        <ele>318.8143311</ele>
        <time>2012-01-22T09:42:49Z</time>
      </trkpt>
      <trkpt lat="47.69735" lon="7.31412">
        <ele>319.7756348</ele>
        <time>2012-01-22T09:42:52Z</time>
      </trkpt>
      <trkpt lat="47.69728" lon="7.3139">
        <ele>320.2563477</ele>
        <time>2012-01-22T09:42:56Z</time>
      </trkpt>
      <trkpt lat="47.69723" lon="7.31365">
        <ele>319.2950439</ele>
        <time>2012-01-22T09:43:00Z</time>
      </trkpt>
      <trkpt lat="47.6972" lon="7.31337">
        <ele>318.3336182</ele>
        <time>2012-01-22T09:43:04Z</time>
      </trkpt>
      <trkpt lat="47.69725" lon="7.31308">
        <ele>321.2177734</ele>
        <time>2012-01-22T09:43:09Z</time>
      </trkpt>
      <trkpt lat="47.69739" lon="7.31299">
        <ele>322.1789551</ele>
        <time>2012-01-22T09:43:14Z</time>
      </trkpt>
      <trkpt lat="47.69747" lon="7.31283">
        <ele>324.5822754</ele>
        <time>2012-01-22T09:43:19Z</time>
      </trkpt>
      <trkpt lat="47.69747" lon="7.31279">
        <ele>326.0241699</ele>
        <time>2012-01-22T09:43:20Z</time>
      </trkpt>
      <trkpt lat="47.69748" lon="7.31245">
        <ele>327.9467773</ele>
        <time>2012-01-22T09:43:27Z</time>
      </trkpt>
      <trkpt lat="47.69749" lon="7.31211">
        <ele>324.1015625</ele>
        <time>2012-01-22T09:43:33Z</time>
      </trkpt>
      <trkpt lat="47.69751" lon="7.31187">
        <ele>321.6983643</ele>
        <time>2012-01-22T09:43:37Z</time>
      </trkpt>
      <trkpt lat="47.69753" lon="7.31161">
        <ele>317.8530273</ele>
        <time>2012-01-22T09:43:42Z</time>
      </trkpt>
      <trkpt lat="47.69752" lon="7.31136">
        <ele>318.3336182</ele>
        <time>2012-01-22T09:43:46Z</time>
      </trkpt>
      <trkpt lat="47.69756" lon="7.31101">
        <ele>320.2563477</ele>
        <time>2012-01-22T09:43:50Z</time>
      </trkpt>
      <trkpt lat="47.69762" lon="7.31062">
        <ele>319.7756348</ele>
        <time>2012-01-22T09:43:54Z</time>
      </trkpt>
      <trkpt lat="47.69769" lon="7.31012">
        <ele>319.2950439</ele>
        <time>2012-01-22T09:43:59Z</time>
      </trkpt>
      <trkpt lat="47.69772" lon="7.30994">
        <ele>317.8530273</ele>
        <time>2012-01-22T09:44:01Z</time>
      </trkpt>
      <trkpt lat="47.69784" lon="7.30937">
        <ele>314.9691162</ele>
        <time>2012-01-22T09:44:07Z</time>
      </trkpt>
      <trkpt lat="47.69786" lon="7.30929">
        <ele>313.5272217</ele>
        <time>2012-01-22T09:44:08Z</time>
      </trkpt>
      <trkpt lat="47.69786" lon="7.30909">
        <ele>311.6044922</ele>
        <time>2012-01-22T09:44:12Z</time>
      </trkpt>
      <trkpt lat="47.69787" lon="7.30903">
        <ele>307.7592773</ele>
        <time>2012-01-22T09:44:14Z</time>
      </trkpt>
      <trkpt lat="47.69787" lon="7.30894">
        <ele>300.0687256</ele>
        <time>2012-01-22T09:44:23Z</time>
      </trkpt>
      <trkpt lat="47.69789" lon="7.30893">
        <ele>300.0687256</ele>
        <time>2012-01-22T09:44:28Z</time>
      </trkpt>
      <trkpt lat="47.69796" lon="7.30901">
        <ele>299.1072998</ele>
        <time>2012-01-22T09:44:34Z</time>
      </trkpt>
      <trkpt lat="47.69803" lon="7.3091">
        <ele>299.1072998</ele>
        <time>2012-01-22T09:44:38Z</time>
      </trkpt>
      <trkpt lat="47.69816" lon="7.30924">
        <ele>296.7041016</ele>
        <time>2012-01-22T09:44:43Z</time>
      </trkpt>
      <trkpt lat="47.69826" lon="7.30935">
        <ele>295.2619629</ele>
        <time>2012-01-22T09:44:47Z</time>
      </trkpt>
      <trkpt lat="47.69841" lon="7.30955">
        <ele>293.8200684</ele>
        <time>2012-01-22T09:44:52Z</time>
      </trkpt>
      <trkpt lat="47.69856" lon="7.3097">
        <ele>294.3007812</ele>
        <time>2012-01-22T09:44:56Z</time>
      </trkpt>
      <trkpt lat="47.69868" lon="7.30986">
        <ele>294.7813721</ele>
        <time>2012-01-22T09:44:59Z</time>
      </trkpt>
      <trkpt lat="47.69882" lon="7.31">
        <ele>290.9361572</ele>
        <time>2012-01-22T09:45:03Z</time>
      </trkpt>
      <trkpt lat="47.69888" lon="7.31007">
        <ele>288.532959</ele>
        <time>2012-01-22T09:45:05Z</time>
      </trkpt>
      <trkpt lat="47.69896" lon="7.31017">
        <ele>287.5714111</ele>
        <time>2012-01-22T09:45:07Z</time>
      </trkpt>
      <trkpt lat="47.69903" lon="7.31027">
        <ele>286.1295166</ele>
        <time>2012-01-22T09:45:09Z</time>
      </trkpt>
      <trkpt lat="47.6992" lon="7.31043">
        <ele>282.7650146</ele>
        <time>2012-01-22T09:45:13Z</time>
      </trkpt>
      <trkpt lat="47.6993" lon="7.31052">
        <ele>284.6876221</ele>
        <time>2012-01-22T09:45:15Z</time>
      </trkpt>
      <trkpt lat="47.69957" lon="7.3107">
        <ele>284.6876221</ele>
        <time>2012-01-22T09:45:21Z</time>
      </trkpt>
      <trkpt lat="47.69967" lon="7.31076">
        <ele>284.2069092</ele>
        <time>2012-01-22T09:45:23Z</time>
      </trkpt>
      <trkpt lat="47.69986" lon="7.3109">
        <ele>285.1682129</ele>
        <time>2012-01-22T09:45:27Z</time>
      </trkpt>
      <trkpt lat="47.70004" lon="7.311">
        <ele>284.2069092</ele>
        <time>2012-01-22T09:45:31Z</time>
      </trkpt>
      <trkpt lat="47.7003" lon="7.31095">
        <ele>285.6488037</ele>
        <time>2012-01-22T09:45:36Z</time>
      </trkpt>
      <trkpt lat="47.70044" lon="7.31106">
        <ele>287.0908203</ele>
        <time>2012-01-22T09:45:39Z</time>
      </trkpt>
      <trkpt lat="47.70057" lon="7.31114">
        <ele>286.1295166</ele>
        <time>2012-01-22T09:45:42Z</time>
      </trkpt>
      <trkpt lat="47.70084" lon="7.31138">
        <ele>284.2069092</ele>
        <time>2012-01-22T09:45:48Z</time>
      </trkpt>
      <trkpt lat="47.70092" lon="7.31143">
        <ele>283.7261963</ele>
        <time>2012-01-22T09:45:50Z</time>
      </trkpt>
      <trkpt lat="47.70103" lon="7.31152">
        <ele>286.6102295</ele>
        <time>2012-01-22T09:45:53Z</time>
      </trkpt>
      <trkpt lat="47.70109" lon="7.31157">
        <ele>286.6102295</ele>
        <time>2012-01-22T09:45:55Z</time>
      </trkpt>
      <trkpt lat="47.70129" lon="7.31165">
        <ele>290.4555664</ele>
        <time>2012-01-22T09:46:00Z</time>
      </trkpt>
      <trkpt lat="47.70141" lon="7.31177">
        <ele>291.416748</ele>
        <time>2012-01-22T09:46:03Z</time>
      </trkpt>
      <trkpt lat="47.70162" lon="7.31188">
        <ele>292.3781738</ele>
        <time>2012-01-22T09:46:08Z</time>
      </trkpt>
      <trkpt lat="47.70171" lon="7.31192">
        <ele>289.9748535</ele>
        <time>2012-01-22T09:46:11Z</time>
      </trkpt>
      <trkpt lat="47.7018" lon="7.31196">
        <ele>286.6102295</ele>
        <time>2012-01-22T09:46:15Z</time>
      </trkpt>
      <trkpt lat="47.70189" lon="7.31202">
        <ele>284.2069092</ele>
        <time>2012-01-22T09:46:19Z</time>
      </trkpt>
      <trkpt lat="47.70194" lon="7.31222">
        <ele>286.6102295</ele>
        <time>2012-01-22T09:46:24Z</time>
      </trkpt>
      <trkpt lat="47.70199" lon="7.31241">
        <ele>286.6102295</ele>
        <time>2012-01-22T09:46:28Z</time>
      </trkpt>
      <trkpt lat="47.70211" lon="7.31256">
        <ele>288.532959</ele>
        <time>2012-01-22T09:46:32Z</time>
      </trkpt>
      <trkpt lat="47.7023" lon="7.31274">
        <ele>289.0135498</ele>
        <time>2012-01-22T09:46:38Z</time>
      </trkpt>
      <trkpt lat="47.70245" lon="7.31291">
        <ele>285.6488037</ele>
        <time>2012-01-22T09:46:43Z</time>
      </trkpt>
      <trkpt lat="47.70255" lon="7.31297">
        <ele>288.0522461</ele>
        <time>2012-01-22T09:46:46Z</time>
      </trkpt>
      <trkpt lat="47.70268" lon="7.31302">
        <ele>294.3007812</ele>
        <time>2012-01-22T09:46:50Z</time>
      </trkpt>
      <trkpt lat="47.70288" lon="7.31318">
        <ele>292.8587646</ele>
        <time>2012-01-22T09:46:56Z</time>
      </trkpt>
      <trkpt lat="47.70301" lon="7.31324">
        <ele>293.3393555</ele>
        <time>2012-01-22T09:47:00Z</time>
      </trkpt>
      <trkpt lat="47.70304" lon="7.31326">
        <ele>293.3393555</ele>
        <time>2012-01-22T09:47:01Z</time>
      </trkpt>
      <trkpt lat="47.70318" lon="7.31339">
        <ele>289.4941406</ele>
        <time>2012-01-22T09:47:07Z</time>
      </trkpt>
      <trkpt lat="47.70328" lon="7.3135">
        <ele>286.6102295</ele>
        <time>2012-01-22T09:47:13Z</time>
      </trkpt>
      <trkpt lat="47.70337" lon="7.3136">
        <ele>284.2069092</ele>
        <time>2012-01-22T09:47:18Z</time>
      </trkpt>
      <trkpt lat="47.70344" lon="7.31367">
        <ele>283.2456055</ele>
        <time>2012-01-22T09:47:23Z</time>
      </trkpt>
      <trkpt lat="47.70349" lon="7.31366">
        <ele>297.1846924</ele>
        <time>2012-01-22T09:47:37Z</time>
      </trkpt>
      <trkpt lat="47.70352" lon="7.31364">
        <ele>298.626709</ele>
        <time>2012-01-22T09:47:51Z</time>
      </trkpt>
      <trkpt lat="47.70353" lon="7.31362">
        <ele>299.1072998</ele>
        <time>2012-01-22T09:47:55Z</time>
      </trkpt>
      <trkpt lat="47.70354" lon="7.3136">
        <ele>303.9139404</ele>
        <time>2012-01-22T09:48:02Z</time>
      </trkpt>
      <trkpt lat="47.70356" lon="7.31365">
        <ele>305.355957</ele>
        <time>2012-01-22T09:48:10Z</time>
      </trkpt>
      <trkpt lat="47.7036" lon="7.31367">
        <ele>304.8752441</ele>
        <time>2012-01-22T09:48:14Z</time>
      </trkpt>
      <trkpt lat="47.70372" lon="7.31375">
        <ele>300.5493164</ele>
        <time>2012-01-22T09:48:20Z</time>
      </trkpt>
      <trkpt lat="47.70384" lon="7.31385">
        <ele>296.7041016</ele>
        <time>2012-01-22T09:48:25Z</time>
      </trkpt>
      <trkpt lat="47.704" lon="7.31396">
        <ele>293.3393555</ele>
        <time>2012-01-22T09:48:31Z</time>
      </trkpt>
      <trkpt lat="47.7042" lon="7.31409">
        <ele>294.3007812</ele>
        <time>2012-01-22T09:48:37Z</time>
      </trkpt>
      <trkpt lat="47.70435" lon="7.31417">
        <ele>294.3007812</ele>
        <time>2012-01-22T09:48:41Z</time>
      </trkpt>
      <trkpt lat="47.70447" lon="7.31423">
        <ele>291.8974609</ele>
        <time>2012-01-22T09:48:46Z</time>
      </trkpt>
      <trkpt lat="47.70462" lon="7.31429">
        <ele>289.9748535</ele>
        <time>2012-01-22T09:48:52Z</time>
      </trkpt>
      <trkpt lat="47.70471" lon="7.31435">
        <ele>290.4555664</ele>
        <time>2012-01-22T09:48:56Z</time>
      </trkpt>
      <trkpt lat="47.70472" lon="7.31436">
        <ele>290.4555664</ele>
        <time>2012-01-22T09:48:57Z</time>
      </trkpt>
      <trkpt lat="47.70473" lon="7.31444">
        <ele>293.3393555</ele>
        <time>2012-01-22T09:49:03Z</time>
      </trkpt>
      <trkpt lat="47.70473" lon="7.31446">
        <ele>302.9525146</ele>
        <time>2012-01-22T09:49:14Z</time>
      </trkpt>
      <trkpt lat="47.70471" lon="7.31446">
        <ele>303.9139404</ele>
        <time>2012-01-22T09:49:17Z</time>
      </trkpt>
      <trkpt lat="47.70461" lon="7.3145">
        <ele>305.8366699</ele>
        <time>2012-01-22T09:49:23Z</time>
      </trkpt>
      <trkpt lat="47.70456" lon="7.31451">
        <ele>305.8366699</ele>
        <time>2012-01-22T09:49:26Z</time>
      </trkpt>
      <trkpt lat="47.70455" lon="7.31444">
        <ele>303.9139404</ele>
        <time>2012-01-22T09:49:35Z</time>
      </trkpt>
      <trkpt lat="47.70456" lon="7.31439">
        <ele>304.3946533</ele>
        <time>2012-01-22T09:49:37Z</time>
      </trkpt>
      <trkpt lat="47.70457" lon="7.31433">
        <ele>304.3946533</ele>
        <time>2012-01-22T09:49:43Z</time>
      </trkpt>
      <trkpt lat="47.70457" lon="7.31432">
        <ele>309.6818848</ele>
        <time>2012-01-22T09:49:59Z</time>
      </trkpt>
      <trkpt lat="47.70455" lon="7.31424">
        <ele>303.9139404</ele>
        <time>2012-01-22T09:50:08Z</time>
      </trkpt>
      <trkpt lat="47.70453" lon="7.31421">
        <ele>302.9525146</ele>
        <time>2012-01-22T09:50:18Z</time>
      </trkpt>
      <trkpt lat="47.70453" lon="7.3142">
        <ele>291.416748</ele>
        <time>2012-01-22T09:50:34Z</time>
      </trkpt>
      <trkpt lat="47.70453" lon="7.3142">
        <ele>289.0135498</ele>
        <time>2012-01-22T09:50:37Z</time>
      </trkpt>
      <trkpt lat="47.70453" lon="7.31421">
        <ele>287.5714111</ele>
        <time>2012-01-22T09:50:46Z</time>
      </trkpt>
      <trkpt lat="47.70452" lon="7.31425">
        <ele>292.3781738</ele>
        <time>2012-01-22T09:50:58Z</time>
      </trkpt>
      <trkpt lat="47.7045" lon="7.31422">
        <ele>294.7813721</ele>
        <time>2012-01-22T09:51:06Z</time>
      </trkpt>
      <trkpt lat="47.70452" lon="7.31426">
        <ele>299.1072998</ele>
        <time>2012-01-22T09:51:19Z</time>
      </trkpt>
      <trkpt lat="47.70452" lon="7.31427">
        <ele>302.4719238</ele>
        <time>2012-01-22T09:51:29Z</time>
      </trkpt>
      <trkpt lat="47.70455" lon="7.31428">
        <ele>291.416748</ele>
        <time>2012-01-22T09:52:38Z</time>
      </trkpt>
      <trkpt lat="47.70455" lon="7.31428">
        <ele>291.416748</ele>
        <time>2012-01-22T09:52:39Z</time>
      </trkpt>
      <trkpt lat="47.70452" lon="7.31429">
        <ele>297.1846924</ele>
        <time>2012-01-22T09:53:08Z</time>
      </trkpt>
      <trkpt lat="47.70452" lon="7.31432">
        <ele>314.9691162</ele>
        <time>2012-01-22T09:53:56Z</time>
      </trkpt>
      <trkpt lat="47.70457" lon="7.31435">
        <ele>319.7756348</ele>
        <time>2012-01-22T09:54:21Z</time>
      </trkpt>
      <trkpt lat="47.70461" lon="7.31435">
        <ele>314.9691162</ele>
        <time>2012-01-22T09:54:36Z</time>
      </trkpt>
      <trkpt lat="47.70456" lon="7.31436">
        <ele>315.9304199</ele>
        <time>2012-01-22T09:54:57Z</time>
      </trkpt>
      <trkpt lat="47.70452" lon="7.31437">
        <ele>313.5272217</ele>
        <time>2012-01-22T09:55:22Z</time>
      </trkpt>
      <trkpt lat="47.70452" lon="7.31437">
        <ele>313.0465088</ele>
        <time>2012-01-22T09:55:23Z</time>
      </trkpt>
      <trkpt lat="47.70451" lon="7.31433">
        <ele>311.6044922</ele>
        <time>2012-01-22T09:56:26Z</time>
      </trkpt>
      <trkpt lat="47.70452" lon="7.31435">
        <ele>315.4498291</ele>
        <time>2012-01-22T09:56:44Z</time>
      </trkpt>
      <trkpt lat="47.70452" lon="7.31435">
        <ele>315.4498291</ele>
        <time>2012-01-22T09:56:45Z</time>
      </trkpt>
      <trkpt lat="47.70449" lon="7.31433">
        <ele>322.1789551</ele>
        <time>2012-01-22T09:57:10Z</time>
      </trkpt>
      <trkpt lat="47.70452" lon="7.31423">
        <ele>318.3336182</ele>
        <time>2012-01-22T09:57:29Z</time>
      </trkpt>
      <trkpt lat="47.70452" lon="7.31421">
        <ele>317.3724365</ele>
        <time>2012-01-22T09:57:34Z</time>
      </trkpt>
      <trkpt lat="47.70456" lon="7.31428">
        <ele>310.6430664</ele>
        <time>2012-01-22T09:58:05Z</time>
      </trkpt>
      <trkpt lat="47.70458" lon="7.31428">
        <ele>307.2785645</ele>
        <time>2012-01-22T09:58:14Z</time>
      </trkpt>
      <trkpt lat="47.70458" lon="7.3143">
        <ele>302.9525146</ele>
        <time>2012-01-22T09:58:23Z</time>
      </trkpt>
      <trkpt lat="47.70459" lon="7.31434">
        <ele>301.991333</ele>
        <time>2012-01-22T09:58:34Z</time>
      </trkpt>
      <trkpt lat="47.70472" lon="7.31436">
        <ele>293.8200684</ele>
        <time>2012-01-22T09:58:42Z</time>
      </trkpt>
      <trkpt lat="47.70486" lon="7.31445">
        <ele>292.3781738</ele>
        <time>2012-01-22T09:58:48Z</time>
      </trkpt>
      <trkpt lat="47.70503" lon="7.31442">
        <ele>293.8200684</ele>
        <time>2012-01-22T09:58:52Z</time>
      </trkpt>
      <trkpt lat="47.7052" lon="7.31427">
        <ele>294.7813721</ele>
        <time>2012-01-22T09:58:56Z</time>
      </trkpt>
      <trkpt lat="47.70534" lon="7.31417">
        <ele>292.8587646</ele>
        <time>2012-01-22T09:58:59Z</time>
      </trkpt>
      <trkpt lat="47.70546" lon="7.31411">
        <ele>291.416748</ele>
        <time>2012-01-22T09:59:01Z</time>
      </trkpt>
      <trkpt lat="47.70572" lon="7.31407">
        <ele>288.0522461</ele>
        <time>2012-01-22T09:59:05Z</time>
      </trkpt>
      <trkpt lat="47.70597" lon="7.31408">
        <ele>284.2069092</ele>
        <time>2012-01-22T09:59:09Z</time>
      </trkpt>
      <trkpt lat="47.70616" lon="7.31417">
        <ele>280.3616943</ele>
        <time>2012-01-22T09:59:14Z</time>
      </trkpt>
      <trkpt lat="47.7062" lon="7.3142">
        <ele>279.8808594</ele>
        <time>2012-01-22T09:59:16Z</time>
      </trkpt>
      <trkpt lat="47.70621" lon="7.31422">
        <ele>280.3616943</ele>
        <time>2012-01-22T09:59:18Z</time>
      </trkpt>
      <trkpt lat="47.70617" lon="7.31431">
        <ele>280.8424072</ele>
        <time>2012-01-22T09:59:23Z</time>
      </trkpt>
      <trkpt lat="47.70615" lon="7.31439">
        <ele>282.2843018</ele>
        <time>2012-01-22T09:59:26Z</time>
      </trkpt>
      <trkpt lat="47.70613" lon="7.31446">
        <ele>282.7650146</ele>
        <time>2012-01-22T09:59:30Z</time>
      </trkpt>
      <trkpt lat="47.7061" lon="7.31452">
        <ele>288.0522461</ele>
        <time>2012-01-22T09:59:34Z</time>
      </trkpt>
      <trkpt lat="47.70609" lon="7.31456">
        <ele>289.9748535</ele>
        <time>2012-01-22T09:59:35Z</time>
      </trkpt>
      <trkpt lat="47.70607" lon="7.31464">
        <ele>296.2235107</ele>
        <time>2012-01-22T09:59:40Z</time>
      </trkpt>
      <trkpt lat="47.70605" lon="7.31474">
        <ele>298.1461182</ele>
        <time>2012-01-22T09:59:46Z</time>
      </trkpt>
      <trkpt lat="47.70599" lon="7.31486">
        <ele>297.1846924</ele>
        <time>2012-01-22T09:59:53Z</time>
      </trkpt>
      <trkpt lat="47.70593" lon="7.31499">
        <ele>298.626709</ele>
        <time>2012-01-22T09:59:57Z</time>
      </trkpt>
      <trkpt lat="47.70588" lon="7.31515">
        <ele>299.5880127</ele>
        <time>2012-01-22T10:00:02Z</time>
      </trkpt>
      <trkpt lat="47.7058" lon="7.31534">
        <ele>304.3946533</ele>
        <time>2012-01-22T10:00:07Z</time>
      </trkpt>
      <trkpt lat="47.70574" lon="7.31554">
        <ele>308.720459</ele>
        <time>2012-01-22T10:00:12Z</time>
      </trkpt>
      <trkpt lat="47.70571" lon="7.31573">
        <ele>305.355957</ele>
        <time>2012-01-22T10:00:17Z</time>
      </trkpt>
      <trkpt lat="47.70565" lon="7.31599">
        <ele>308.720459</ele>
        <time>2012-01-22T10:00:24Z</time>
      </trkpt>
      <trkpt lat="47.70558" lon="7.31626">
        <ele>315.4498291</ele>
        <time>2012-01-22T10:00:32Z</time>
      </trkpt>
      <trkpt lat="47.70549" lon="7.31651">
        <ele>317.8530273</ele>
        <time>2012-01-22T10:00:40Z</time>
      </trkpt>
      <trkpt lat="47.70543" lon="7.31671">
        <ele>321.2177734</ele>
        <time>2012-01-22T10:00:47Z</time>
      </trkpt>
      <trkpt lat="47.70538" lon="7.31694">
        <ele>321.6983643</ele>
        <time>2012-01-22T10:00:54Z</time>
      </trkpt>
      <trkpt lat="47.70531" lon="7.3172">
        <ele>320.2563477</ele>
        <time>2012-01-22T10:01:03Z</time>
      </trkpt>
      <trkpt lat="47.70522" lon="7.31754">
        <ele>322.1789551</ele>
        <time>2012-01-22T10:01:14Z</time>
      </trkpt>
      <trkpt lat="47.70512" lon="7.31781">
        <ele>321.6983643</ele>
        <time>2012-01-22T10:01:23Z</time>
      </trkpt>
      <trkpt lat="47.70502" lon="7.3181">
        <ele>324.1015625</ele>
        <time>2012-01-22T10:01:32Z</time>
      </trkpt>
      <trkpt lat="47.70492" lon="7.3184">
        <ele>326.5048828</ele>
        <time>2012-01-22T10:01:41Z</time>
      </trkpt>
      <trkpt lat="47.70481" lon="7.31876">
        <ele>329.388916</ele>
        <time>2012-01-22T10:01:52Z</time>
      </trkpt>
      <trkpt lat="47.70472" lon="7.31902">
        <ele>331.3115234</ele>
        <time>2012-01-22T10:02:00Z</time>
      </trkpt>
      <trkpt lat="47.70461" lon="7.31934">
        <ele>333.2341309</ele>
        <time>2012-01-22T10:02:10Z</time>
      </trkpt>
      <trkpt lat="47.7045" lon="7.31961">
        <ele>335.6373291</ele>
        <time>2012-01-22T10:02:19Z</time>
      </trkpt>
      <trkpt lat="47.70439" lon="7.31984">
        <ele>337.5600586</ele>
        <time>2012-01-22T10:02:27Z</time>
      </trkpt>
      <trkpt lat="47.70426" lon="7.32011">
        <ele>339.482666</ele>
        <time>2012-01-22T10:02:36Z</time>
      </trkpt>
      <trkpt lat="47.70412" lon="7.32037">
        <ele>340.4440918</ele>
        <time>2012-01-22T10:02:45Z</time>
      </trkpt>
      <trkpt lat="47.70394" lon="7.3207">
        <ele>341.4052734</ele>
        <time>2012-01-22T10:02:56Z</time>
      </trkpt>
      <trkpt lat="47.70374" lon="7.32094">
        <ele>342.84729</ele>
        <time>2012-01-22T10:03:06Z</time>
      </trkpt>
      <trkpt lat="47.70358" lon="7.32098">
        <ele>344.2894287</ele>
        <time>2012-01-22T10:03:12Z</time>
      </trkpt>
      <trkpt lat="47.7035" lon="7.3209">
        <ele>342.3666992</ele>
        <time>2012-01-22T10:03:17Z</time>
      </trkpt>
      <trkpt lat="47.70346" lon="7.32079">
        <ele>341.4052734</ele>
        <time>2012-01-22T10:03:22Z</time>
      </trkpt>
      <trkpt lat="47.70337" lon="7.3205">
        <ele>340.4440918</ele>
        <time>2012-01-22T10:03:32Z</time>
      </trkpt>
      <trkpt lat="47.70329" lon="7.32025">
        <ele>339.482666</ele>
        <time>2012-01-22T10:03:40Z</time>
      </trkpt>
      <trkpt lat="47.70317" lon="7.31988">
        <ele>338.5214844</ele>
        <time>2012-01-22T10:03:50Z</time>
      </trkpt>
      <trkpt lat="47.70308" lon="7.3196">
        <ele>337.5600586</ele>
        <time>2012-01-22T10:03:58Z</time>
      </trkpt>
      <trkpt lat="47.70303" lon="7.31949">
        <ele>338.0407715</ele>
        <time>2012-01-22T10:04:03Z</time>
      </trkpt>
      <trkpt lat="47.70302" lon="7.31948">
        <ele>339.0020752</ele>
        <time>2012-01-22T10:04:10Z</time>
      </trkpt>
      <trkpt lat="47.703" lon="7.31948">
        <ele>340.9246826</ele>
        <time>2012-01-22T10:04:16Z</time>
      </trkpt>
      <trkpt lat="47.70299" lon="7.31947">
        <ele>343.3278809</ele>
        <time>2012-01-22T10:04:31Z</time>
      </trkpt>
      <trkpt lat="47.70298" lon="7.31947">
        <ele>344.2894287</ele>
        <time>2012-01-22T10:04:41Z</time>
      </trkpt>
      <trkpt lat="47.70298" lon="7.31947">
        <ele>344.2894287</ele>
        <time>2012-01-22T10:04:47Z</time>
      </trkpt>
      <trkpt lat="47.70298" lon="7.31947">
        <ele>344.2894287</ele>
        <time>2012-01-22T10:04:52Z</time>
      </trkpt>
      <trkpt lat="47.70297" lon="7.31946">
        <ele>344.2894287</ele>
        <time>2012-01-22T10:05:22Z</time>
      </trkpt>
      <trkpt lat="47.70297" lon="7.31947">
        <ele>340.9246826</ele>
        <time>2012-01-22T10:05:35Z</time>
      </trkpt>
      <trkpt lat="47.70298" lon="7.31946">
        <ele>340.4440918</ele>
        <time>2012-01-22T10:05:46Z</time>
      </trkpt>
      <trkpt lat="47.703" lon="7.31943">
        <ele>341.8859863</ele>
        <time>2012-01-22T10:06:44Z</time>
      </trkpt>
      <trkpt lat="47.70299" lon="7.31944">
        <ele>345.2506104</ele>
        <time>2012-01-22T10:07:01Z</time>
      </trkpt>
      <trkpt lat="47.70298" lon="7.31945">
        <ele>347.6539307</ele>
        <time>2012-01-22T10:07:11Z</time>
      </trkpt>
      <trkpt lat="47.70287" lon="7.31957">
        <ele>347.1732178</ele>
        <time>2012-01-22T10:07:17Z</time>
      </trkpt>
      <trkpt lat="47.70283" lon="7.31958">
        <ele>346.692627</ele>
        <time>2012-01-22T10:07:18Z</time>
      </trkpt>
      <trkpt lat="47.70271" lon="7.31948">
        <ele>345.2506104</ele>
        <time>2012-01-22T10:07:22Z</time>
      </trkpt>
      <trkpt lat="47.70269" lon="7.31943">
        <ele>345.2506104</ele>
        <time>2012-01-22T10:07:23Z</time>
      </trkpt>
      <trkpt lat="47.70255" lon="7.31908">
        <ele>343.8085938</ele>
        <time>2012-01-22T10:07:30Z</time>
      </trkpt>
      <trkpt lat="47.70253" lon="7.31906">
        <ele>343.8085938</ele>
        <time>2012-01-22T10:07:31Z</time>
      </trkpt>
      <trkpt lat="47.70236" lon="7.31911">
        <ele>341.4052734</ele>
        <time>2012-01-22T10:07:35Z</time>
      </trkpt>
      <trkpt lat="47.70202" lon="7.31941">
        <ele>334.6761475</ele>
        <time>2012-01-22T10:07:40Z</time>
      </trkpt>
      <trkpt lat="47.70165" lon="7.31973">
        <ele>327.9467773</ele>
        <time>2012-01-22T10:07:44Z</time>
      </trkpt>
      <trkpt lat="47.70119" lon="7.3201">
        <ele>320.7370605</ele>
        <time>2012-01-22T10:07:49Z</time>
      </trkpt>
      <trkpt lat="47.70103" lon="7.32035">
        <ele>317.3724365</ele>
        <time>2012-01-22T10:07:53Z</time>
      </trkpt>
      <trkpt lat="47.70105" lon="7.32056">
        <ele>316.4110107</ele>
        <time>2012-01-22T10:07:56Z</time>
      </trkpt>
      <trkpt lat="47.70108" lon="7.32062">
        <ele>316.4110107</ele>
        <time>2012-01-22T10:07:57Z</time>
      </trkpt>
      <trkpt lat="47.70114" lon="7.32072">
        <ele>316.4110107</ele>
        <time>2012-01-22T10:07:59Z</time>
      </trkpt>
      <trkpt lat="47.70129" lon="7.32106">
        <ele>317.8530273</ele>
        <time>2012-01-22T10:08:05Z</time>
      </trkpt>
      <trkpt lat="47.70126" lon="7.32131">
        <ele>317.3724365</ele>
        <time>2012-01-22T10:08:09Z</time>
      </trkpt>
      <trkpt lat="47.70122" lon="7.32136">
        <ele>316.8917236</ele>
        <time>2012-01-22T10:08:10Z</time>
      </trkpt>
      <trkpt lat="47.70094" lon="7.32179">
        <ele>314.9691162</ele>
        <time>2012-01-22T10:08:16Z</time>
      </trkpt>
      <trkpt lat="47.70059" lon="7.32224">
        <ele>313.5272217</ele>
        <time>2012-01-22T10:08:23Z</time>
      </trkpt>
      <trkpt lat="47.70049" lon="7.32233">
        <ele>313.5272217</ele>
        <time>2012-01-22T10:08:25Z</time>
      </trkpt>
      <trkpt lat="47.70015" lon="7.32265">
        <ele>314.0078125</ele>
        <time>2012-01-22T10:08:33Z</time>
      </trkpt>
      <trkpt lat="47.70004" lon="7.32276">
        <ele>314.4884033</ele>
        <time>2012-01-22T10:08:36Z</time>
      </trkpt>
      <trkpt lat="47.69997" lon="7.32284">
        <ele>314.4884033</ele>
        <time>2012-01-22T10:08:38Z</time>
      </trkpt>
      <trkpt lat="47.69961" lon="7.32316">
        <ele>314.4884033</ele>
        <time>2012-01-22T10:08:47Z</time>
      </trkpt>
      <trkpt lat="47.69932" lon="7.32336">
        <ele>316.4110107</ele>
        <time>2012-01-22T10:08:55Z</time>
      </trkpt>
      <trkpt lat="47.69916" lon="7.32353">
        <ele>318.8143311</ele>
        <time>2012-01-22T10:09:01Z</time>
      </trkpt>
      <trkpt lat="47.69897" lon="7.32383">
        <ele>322.659668</ele>
        <time>2012-01-22T10:09:09Z</time>
      </trkpt>
      <trkpt lat="47.69884" lon="7.32407">
        <ele>326.0241699</ele>
        <time>2012-01-22T10:09:15Z</time>
      </trkpt>
      <trkpt lat="47.6987" lon="7.32434">
        <ele>329.388916</ele>
        <time>2012-01-22T10:09:23Z</time>
      </trkpt>
      <trkpt lat="47.69864" lon="7.32448">
        <ele>331.3115234</ele>
        <time>2012-01-22T10:09:30Z</time>
      </trkpt>
      <trkpt lat="47.69867" lon="7.32465">
        <ele>331.7921143</ele>
        <time>2012-01-22T10:09:37Z</time>
      </trkpt>
      <trkpt lat="47.69874" lon="7.32483">
        <ele>332.2728271</ele>
        <time>2012-01-22T10:09:44Z</time>
      </trkpt>
      <trkpt lat="47.69882" lon="7.32507">
        <ele>332.75354</ele>
        <time>2012-01-22T10:09:52Z</time>
      </trkpt>
      <trkpt lat="47.69883" lon="7.32513">
        <ele>332.75354</ele>
        <time>2012-01-22T10:09:54Z</time>
      </trkpt>
      <trkpt lat="47.69884" lon="7.32521">
        <ele>332.75354</ele>
        <time>2012-01-22T10:09:57Z</time>
      </trkpt>
      <trkpt lat="47.69878" lon="7.3253">
        <ele>332.75354</ele>
        <time>2012-01-22T10:10:04Z</time>
      </trkpt>
      <trkpt lat="47.69866" lon="7.32538">
        <ele>331.3115234</ele>
        <time>2012-01-22T10:10:10Z</time>
      </trkpt>
      <trkpt lat="47.69851" lon="7.32548">
        <ele>328.9083252</ele>
        <time>2012-01-22T10:10:14Z</time>
      </trkpt>
      <trkpt lat="47.69828" lon="7.3257">
        <ele>325.0629883</ele>
        <time>2012-01-22T10:10:18Z</time>
      </trkpt>
      <trkpt lat="47.6979" lon="7.32606">
        <ele>318.8143311</ele>
        <time>2012-01-22T10:10:23Z</time>
      </trkpt>
      <trkpt lat="47.69753" lon="7.32633">
        <ele>313.5272217</ele>
        <time>2012-01-22T10:10:27Z</time>
      </trkpt>
      <trkpt lat="47.69705" lon="7.32678">
        <ele>308.720459</ele>
        <time>2012-01-22T10:10:32Z</time>
      </trkpt>
      <trkpt lat="47.69685" lon="7.32694">
        <ele>308.720459</ele>
        <time>2012-01-22T10:10:35Z</time>
      </trkpt>
      <trkpt lat="47.69668" lon="7.32708">
        <ele>308.720459</ele>
        <time>2012-01-22T10:10:39Z</time>
      </trkpt>
      <trkpt lat="47.69666" lon="7.3271">
        <ele>309.2011719</ele>
        <time>2012-01-22T10:10:40Z</time>
      </trkpt>
      <trkpt lat="47.69662" lon="7.32712">
        <ele>309.2011719</ele>
        <time>2012-01-22T10:10:42Z</time>
      </trkpt>
      <trkpt lat="47.69656" lon="7.32719">
        <ele>310.1624756</ele>
        <time>2012-01-22T10:10:49Z</time>
      </trkpt>
      <trkpt lat="47.69656" lon="7.32719">
        <ele>310.6430664</ele>
        <time>2012-01-22T10:10:55Z</time>
      </trkpt>
      <trkpt lat="47.69657" lon="7.32718">
        <ele>310.6430664</ele>
        <time>2012-01-22T10:11:11Z</time>
      </trkpt>
      <trkpt lat="47.69657" lon="7.32717">
        <ele>310.1624756</ele>
        <time>2012-01-22T10:11:16Z</time>
      </trkpt>
      <trkpt lat="47.69657" lon="7.3272">
        <ele>312.0852051</ele>
        <time>2012-01-22T10:11:30Z</time>
      </trkpt>
      <trkpt lat="47.69656" lon="7.32723">
        <ele>312.0852051</ele>
        <time>2012-01-22T10:11:32Z</time>
      </trkpt>
      <trkpt lat="47.6966" lon="7.32739">
        <ele>311.6044922</ele>
        <time>2012-01-22T10:11:39Z</time>
      </trkpt>
      <trkpt lat="47.69661" lon="7.3274">
        <ele>311.6044922</ele>
        <time>2012-01-22T10:11:41Z</time>
      </trkpt>
      <trkpt lat="47.69658" lon="7.3273">
        <ele>310.6430664</ele>
        <time>2012-01-22T10:11:49Z</time>
      </trkpt>
      <trkpt lat="47.69656" lon="7.32725">
        <ele>310.1624756</ele>
        <time>2012-01-22T10:11:55Z</time>
      </trkpt>
      <trkpt lat="47.69655" lon="7.32719">
        <ele>308.720459</ele>
        <time>2012-01-22T10:12:04Z</time>
      </trkpt>
      <trkpt lat="47.69649" lon="7.32705">
        <ele>307.2785645</ele>
        <time>2012-01-22T10:12:09Z</time>
      </trkpt>
      <trkpt lat="47.69638" lon="7.3267">
        <ele>305.8366699</ele>
        <time>2012-01-22T10:12:16Z</time>
      </trkpt>
      <trkpt lat="47.69622" lon="7.3263">
        <ele>303.9139404</ele>
        <time>2012-01-22T10:12:23Z</time>
      </trkpt>
      <trkpt lat="47.69613" lon="7.32602">
        <ele>301.991333</ele>
        <time>2012-01-22T10:12:27Z</time>
      </trkpt>
      <trkpt lat="47.69612" lon="7.32556">
        <ele>298.626709</ele>
        <time>2012-01-22T10:12:32Z</time>
      </trkpt>
      <trkpt lat="47.69611" lon="7.32525">
        <ele>297.1846924</ele>
        <time>2012-01-22T10:12:35Z</time>
      </trkpt>
      <trkpt lat="47.69595" lon="7.32475">
        <ele>294.7813721</ele>
        <time>2012-01-22T10:12:40Z</time>
      </trkpt>
      <trkpt lat="47.69562" lon="7.32423">
        <ele>291.8974609</ele>
        <time>2012-01-22T10:12:46Z</time>
      </trkpt>
      <trkpt lat="47.69534" lon="7.32384">
        <ele>290.4555664</ele>
        <time>2012-01-22T10:12:51Z</time>
      </trkpt>
      <trkpt lat="47.69493" lon="7.32333">
        <ele>288.0522461</ele>
        <time>2012-01-22T10:12:58Z</time>
      </trkpt>
      <trkpt lat="47.69454" lon="7.323">
        <ele>287.0908203</ele>
        <time>2012-01-22T10:13:04Z</time>
      </trkpt>
      <trkpt lat="47.69415" lon="7.32267">
        <ele>287.0908203</ele>
        <time>2012-01-22T10:13:11Z</time>
      </trkpt>
      <trkpt lat="47.69369" lon="7.32227">
        <ele>286.1295166</ele>
        <time>2012-01-22T10:13:19Z</time>
      </trkpt>
      <trkpt lat="47.69355" lon="7.3221">
        <ele>285.6488037</ele>
        <time>2012-01-22T10:13:22Z</time>
      </trkpt>
      <trkpt lat="47.69332" lon="7.32204">
        <ele>284.6876221</ele>
        <time>2012-01-22T10:13:26Z</time>
      </trkpt>
      <trkpt lat="47.69317" lon="7.32216">
        <ele>285.1682129</ele>
        <time>2012-01-22T10:13:29Z</time>
      </trkpt>
      <trkpt lat="47.69285" lon="7.32268">
        <ele>287.0908203</ele>
        <time>2012-01-22T10:13:38Z</time>
      </trkpt>
      <trkpt lat="47.69254" lon="7.3232">
        <ele>288.0522461</ele>
        <time>2012-01-22T10:13:47Z</time>
      </trkpt>
      <trkpt lat="47.69228" lon="7.32369">
        <ele>290.4555664</ele>
        <time>2012-01-22T10:13:55Z</time>
      </trkpt>
      <trkpt lat="47.69209" lon="7.32425">
        <ele>292.8587646</ele>
        <time>2012-01-22T10:14:03Z</time>
      </trkpt>
      <trkpt lat="47.69199" lon="7.32485">
        <ele>293.8200684</ele>
        <time>2012-01-22T10:14:11Z</time>
      </trkpt>
      <trkpt lat="47.69199" lon="7.32529">
        <ele>294.7813721</ele>
        <time>2012-01-22T10:14:17Z</time>
      </trkpt>
      <trkpt lat="47.69199" lon="7.32536">
        <ele>295.2619629</ele>
        <time>2012-01-22T10:14:18Z</time>
      </trkpt>
      <trkpt lat="47.69198" lon="7.32548">
        <ele>295.7426758</ele>
        <time>2012-01-22T10:14:20Z</time>
      </trkpt>
      <trkpt lat="47.69205" lon="7.32577">
        <ele>297.6654053</ele>
        <time>2012-01-22T10:14:25Z</time>
      </trkpt>
      <trkpt lat="47.69211" lon="7.326">
        <ele>297.1846924</ele>
        <time>2012-01-22T10:14:29Z</time>
      </trkpt>
      <trkpt lat="47.69213" lon="7.32653">
        <ele>297.1846924</ele>
        <time>2012-01-22T10:14:38Z</time>
      </trkpt>
      <trkpt lat="47.69213" lon="7.32688">
        <ele>297.1846924</ele>
        <time>2012-01-22T10:14:44Z</time>
      </trkpt>
      <trkpt lat="47.69213" lon="7.32739">
        <ele>297.6654053</ele>
        <time>2012-01-22T10:14:52Z</time>
      </trkpt>
      <trkpt lat="47.69214" lon="7.32768">
        <ele>297.6654053</ele>
        <time>2012-01-22T10:14:56Z</time>
      </trkpt>
      <trkpt lat="47.6922" lon="7.32794">
        <ele>297.6654053</ele>
        <time>2012-01-22T10:15:00Z</time>
      </trkpt>
      <trkpt lat="47.69233" lon="7.32826">
        <ele>299.5880127</ele>
        <time>2012-01-22T10:15:06Z</time>
      </trkpt>
      <trkpt lat="47.6924" lon="7.32863">
        <ele>299.5880127</ele>
        <time>2012-01-22T10:15:13Z</time>
      </trkpt>
      <trkpt lat="47.6924" lon="7.3287">
        <ele>299.1072998</ele>
        <time>2012-01-22T10:15:14Z</time>
      </trkpt>
      <trkpt lat="47.69235" lon="7.32919">
        <ele>296.7041016</ele>
        <time>2012-01-22T10:15:19Z</time>
      </trkpt>
      <trkpt lat="47.6923" lon="7.32941">
        <ele>296.2235107</ele>
        <time>2012-01-22T10:15:21Z</time>
      </trkpt>
      <trkpt lat="47.69228" lon="7.32963">
        <ele>296.2235107</ele>
        <time>2012-01-22T10:15:23Z</time>
      </trkpt>
      <trkpt lat="47.69233" lon="7.33001">
        <ele>297.1846924</ele>
        <time>2012-01-22T10:15:27Z</time>
      </trkpt>
      <trkpt lat="47.69241" lon="7.33025">
        <ele>297.6654053</ele>
        <time>2012-01-22T10:15:30Z</time>
      </trkpt>
      <trkpt lat="47.69245" lon="7.33042">
        <ele>298.1461182</ele>
        <time>2012-01-22T10:15:32Z</time>
      </trkpt>
      <trkpt lat="47.69263" lon="7.33112">
        <ele>300.0687256</ele>
        <time>2012-01-22T10:15:41Z</time>
      </trkpt>
      <trkpt lat="47.69281" lon="7.33177">
        <ele>301.0299072</ele>
        <time>2012-01-22T10:15:50Z</time>
      </trkpt>
      <trkpt lat="47.693" lon="7.3324">
        <ele>301.991333</ele>
        <time>2012-01-22T10:15:59Z</time>
      </trkpt>
      <trkpt lat="47.6932" lon="7.33312">
        <ele>302.9525146</ele>
        <time>2012-01-22T10:16:09Z</time>
      </trkpt>
      <trkpt lat="47.6934" lon="7.33384">
        <ele>304.3946533</ele>
        <time>2012-01-22T10:16:19Z</time>
      </trkpt>
      <trkpt lat="47.69353" lon="7.3344">
        <ele>305.8366699</ele>
        <time>2012-01-22T10:16:27Z</time>
      </trkpt>
      <trkpt lat="47.69362" lon="7.33482">
        <ele>305.8366699</ele>
        <time>2012-01-22T10:16:33Z</time>
      </trkpt>
      <trkpt lat="47.69372" lon="7.33526">
        <ele>306.3172607</ele>
        <time>2012-01-22T10:16:39Z</time>
      </trkpt>
      <trkpt lat="47.69389" lon="7.33603">
        <ele>308.720459</ele>
        <time>2012-01-22T10:16:50Z</time>
      </trkpt>
      <trkpt lat="47.694" lon="7.33657">
        <ele>310.6430664</ele>
        <time>2012-01-22T10:16:58Z</time>
      </trkpt>
      <trkpt lat="47.69412" lon="7.33716">
        <ele>312.5657959</ele>
        <time>2012-01-22T10:17:07Z</time>
      </trkpt>
      <trkpt lat="47.69423" lon="7.33762">
        <ele>313.5272217</ele>
        <time>2012-01-22T10:17:14Z</time>
      </trkpt>
      <trkpt lat="47.69442" lon="7.33833">
        <ele>315.9304199</ele>
        <time>2012-01-22T10:17:25Z</time>
      </trkpt>
      <trkpt lat="47.69448" lon="7.33852">
        <ele>316.8917236</ele>
        <time>2012-01-22T10:17:28Z</time>
      </trkpt>
      <trkpt lat="47.69452" lon="7.33873">
        <ele>317.3724365</ele>
        <time>2012-01-22T10:17:31Z</time>
      </trkpt>
      <trkpt lat="47.6947" lon="7.33947">
        <ele>320.7370605</ele>
        <time>2012-01-22T10:17:42Z</time>
      </trkpt>
      <trkpt lat="47.69483" lon="7.34009">
        <ele>322.1789551</ele>
        <time>2012-01-22T10:17:51Z</time>
      </trkpt>
      <trkpt lat="47.69489" lon="7.34051">
        <ele>322.1789551</ele>
        <time>2012-01-22T10:17:57Z</time>
      </trkpt>
      <trkpt lat="47.69493" lon="7.34086">
        <ele>322.659668</ele>
        <time>2012-01-22T10:18:02Z</time>
      </trkpt>
      <trkpt lat="47.69494" lon="7.34093">
        <ele>322.659668</ele>
        <time>2012-01-22T10:18:03Z</time>
      </trkpt>
      <trkpt lat="47.69502" lon="7.34156">
        <ele>324.1015625</ele>
        <time>2012-01-22T10:18:12Z</time>
      </trkpt>
      <trkpt lat="47.69506" lon="7.34206">
        <ele>325.5435791</ele>
        <time>2012-01-22T10:18:19Z</time>
      </trkpt>
      <trkpt lat="47.69515" lon="7.34269">
        <ele>326.9855957</ele>
        <time>2012-01-22T10:18:28Z</time>
      </trkpt>
      <trkpt lat="47.69531" lon="7.34329">
        <ele>328.9083252</ele>
        <time>2012-01-22T10:18:37Z</time>
      </trkpt>
      <trkpt lat="47.69547" lon="7.34373">
        <ele>331.3115234</ele>
        <time>2012-01-22T10:18:44Z</time>
      </trkpt>
      <trkpt lat="47.69565" lon="7.34426">
        <ele>332.2728271</ele>
        <time>2012-01-22T10:18:52Z</time>
      </trkpt>
      <trkpt lat="47.69568" lon="7.34433">
        <ele>333.2341309</ele>
        <time>2012-01-22T10:18:53Z</time>
      </trkpt>
      <trkpt lat="47.69581" lon="7.34479">
        <ele>334.6761475</ele>
        <time>2012-01-22T10:19:00Z</time>
      </trkpt>
      <trkpt lat="47.696" lon="7.34533">
        <ele>336.598877</ele>
        <time>2012-01-22T10:19:08Z</time>
      </trkpt>
      <trkpt lat="47.69631" lon="7.34608">
        <ele>340.4440918</ele>
        <time>2012-01-22T10:19:19Z</time>
      </trkpt>
      <trkpt lat="47.69652" lon="7.34656">
        <ele>341.8859863</ele>
        <time>2012-01-22T10:19:26Z</time>
      </trkpt>
      <trkpt lat="47.69672" lon="7.34696">
        <ele>342.3666992</ele>
        <time>2012-01-22T10:19:32Z</time>
      </trkpt>
      <trkpt lat="47.69698" lon="7.34756">
        <ele>344.2894287</ele>
        <time>2012-01-22T10:19:41Z</time>
      </trkpt>
      <trkpt lat="47.69714" lon="7.34796">
        <ele>344.7700195</ele>
        <time>2012-01-22T10:19:47Z</time>
      </trkpt>
      <trkpt lat="47.69722" lon="7.34816">
        <ele>345.7313232</ele>
        <time>2012-01-22T10:19:50Z</time>
      </trkpt>
      <trkpt lat="47.69728" lon="7.34829">
        <ele>346.2120361</ele>
        <time>2012-01-22T10:19:52Z</time>
      </trkpt>
      <trkpt lat="47.69752" lon="7.34887">
        <ele>347.1732178</ele>
        <time>2012-01-22T10:20:00Z</time>
      </trkpt>
      <trkpt lat="47.69772" lon="7.34937">
        <ele>350.5378418</ele>
        <time>2012-01-22T10:20:07Z</time>
      </trkpt>
      <trkpt lat="47.698" lon="7.35003">
        <ele>353.421875</ele>
        <time>2012-01-22T10:20:17Z</time>
      </trkpt>
      <trkpt lat="47.69823" lon="7.35058">
        <ele>354.8637695</ele>
        <time>2012-01-22T10:20:25Z</time>
      </trkpt>
      <trkpt lat="47.69844" lon="7.35105">
        <ele>356.3057861</ele>
        <time>2012-01-22T10:20:32Z</time>
      </trkpt>
      <trkpt lat="47.69863" lon="7.35144">
        <ele>357.2670898</ele>
        <time>2012-01-22T10:20:38Z</time>
      </trkpt>
      <trkpt lat="47.69885" lon="7.35192">
        <ele>358.7089844</ele>
        <time>2012-01-22T10:20:45Z</time>
      </trkpt>
      <trkpt lat="47.69907" lon="7.3524">
        <ele>360.151123</ele>
        <time>2012-01-22T10:20:52Z</time>
      </trkpt>
      <trkpt lat="47.69923" lon="7.35281">
        <ele>361.5931396</ele>
        <time>2012-01-22T10:20:58Z</time>
      </trkpt>
      <trkpt lat="47.69931" lon="7.35305">
        <ele>361.5931396</ele>
        <time>2012-01-22T10:21:02Z</time>
      </trkpt>
      <trkpt lat="47.69939" lon="7.35333">
        <ele>360.6317139</ele>
        <time>2012-01-22T10:21:07Z</time>
      </trkpt>
      <trkpt lat="47.69946" lon="7.35362">
        <ele>360.151123</ele>
        <time>2012-01-22T10:21:12Z</time>
      </trkpt>
      <trkpt lat="47.69947" lon="7.35369">
        <ele>359.6704102</ele>
        <time>2012-01-22T10:21:16Z</time>
      </trkpt>
      <trkpt lat="47.69946" lon="7.35368">
        <ele>360.151123</ele>
        <time>2012-01-22T10:21:24Z</time>
      </trkpt>
      <trkpt lat="47.69945" lon="7.35369">
        <ele>359.6704102</ele>
        <time>2012-01-22T10:21:38Z</time>
      </trkpt>
      <trkpt lat="47.69944" lon="7.35369">
        <ele>358.7089844</ele>
        <time>2012-01-22T10:21:45Z</time>
      </trkpt>
      <trkpt lat="47.69945" lon="7.35371">
        <ele>356.3057861</ele>
        <time>2012-01-22T10:22:11Z</time>
      </trkpt>
      <trkpt lat="47.69945" lon="7.35371">
        <ele>355.8251953</ele>
        <time>2012-01-22T10:22:23Z</time>
      </trkpt>
      <trkpt lat="47.69945" lon="7.35372">
        <ele>356.3057861</ele>
        <time>2012-01-22T10:22:38Z</time>
      </trkpt>
      <trkpt lat="47.69946" lon="7.35375">
        <ele>356.3057861</ele>
        <time>2012-01-22T10:22:52Z</time>
      </trkpt>
      <trkpt lat="47.69947" lon="7.35386">
        <ele>357.2670898</ele>
        <time>2012-01-22T10:22:58Z</time>
      </trkpt>
      <trkpt lat="47.69947" lon="7.35398">
        <ele>357.7478027</ele>
        <time>2012-01-22T10:23:02Z</time>
      </trkpt>
      <trkpt lat="47.69952" lon="7.35415">
        <ele>358.2283936</ele>
        <time>2012-01-22T10:23:07Z</time>
      </trkpt>
      <trkpt lat="47.69961" lon="7.35416">
        <ele>358.7089844</ele>
        <time>2012-01-22T10:23:11Z</time>
      </trkpt>
      <trkpt lat="47.69961" lon="7.35407">
        <ele>358.7089844</ele>
        <time>2012-01-22T10:23:14Z</time>
      </trkpt>
      <trkpt lat="47.69953" lon="7.35399">
        <ele>357.7478027</ele>
        <time>2012-01-22T10:23:19Z</time>
      </trkpt>
      <trkpt lat="47.69951" lon="7.35387">
        <ele>358.7089844</ele>
        <time>2012-01-22T10:23:25Z</time>
      </trkpt>
      <trkpt lat="47.69952" lon="7.35388">
        <ele>360.151123</ele>
        <time>2012-01-22T10:23:33Z</time>
      </trkpt>
      <trkpt lat="47.69953" lon="7.35392">
        <ele>363.5157471</ele>
        <time>2012-01-22T10:23:45Z</time>
      </trkpt>
      <trkpt lat="47.69953" lon="7.35393">
        <ele>363.5157471</ele>
        <time>2012-01-22T10:23:53Z</time>
      </trkpt>
      <trkpt lat="47.69954" lon="7.35393">
        <ele>363.0350342</ele>
        <time>2012-01-22T10:24:16Z</time>
      </trkpt>
      <trkpt lat="47.69953" lon="7.35394">
        <ele>363.9963379</ele>
        <time>2012-01-22T10:24:31Z</time>
      </trkpt>
      <trkpt lat="47.69953" lon="7.35395">
        <ele>364.4769287</ele>
        <time>2012-01-22T10:24:39Z</time>
      </trkpt>
      <trkpt lat="47.69954" lon="7.35394">
        <ele>362.5543213</ele>
        <time>2012-01-22T10:25:27Z</time>
      </trkpt>
      <trkpt lat="47.69955" lon="7.35394">
        <ele>360.6317139</ele>
        <time>2012-01-22T10:25:34Z</time>
      </trkpt>
      <trkpt lat="47.69956" lon="7.35392">
        <ele>359.6704102</ele>
        <time>2012-01-22T10:25:41Z</time>
      </trkpt>
      <trkpt lat="47.69956" lon="7.3539">
        <ele>357.7478027</ele>
        <time>2012-01-22T10:25:53Z</time>
      </trkpt>
      <trkpt lat="47.69954" lon="7.35388">
        <ele>356.786377</ele>
        <time>2012-01-22T10:25:59Z</time>
      </trkpt>
      <trkpt lat="47.69953" lon="7.35389">
        <ele>358.2283936</ele>
        <time>2012-01-22T10:26:07Z</time>
      </trkpt>
      <trkpt lat="47.69951" lon="7.35389">
        <ele>358.7089844</ele>
        <time>2012-01-22T10:26:22Z</time>
      </trkpt>
      <trkpt lat="47.69951" lon="7.35389">
        <ele>356.786377</ele>
        <time>2012-01-22T10:26:27Z</time>
      </trkpt>
      <trkpt lat="47.6995" lon="7.35385">
        <ele>357.2670898</ele>
        <time>2012-01-22T10:26:40Z</time>
      </trkpt>
      <trkpt lat="47.69951" lon="7.35386">
        <ele>358.2283936</ele>
        <time>2012-01-22T10:26:52Z</time>
      </trkpt>
      <trkpt lat="47.69953" lon="7.35386">
        <ele>360.151123</ele>
        <time>2012-01-22T10:27:02Z</time>
      </trkpt>
      <trkpt lat="47.69953" lon="7.35385">
        <ele>358.2283936</ele>
        <time>2012-01-22T10:27:09Z</time>
      </trkpt>
      <trkpt lat="47.69953" lon="7.35385">
        <ele>356.786377</ele>
        <time>2012-01-22T10:27:13Z</time>
      </trkpt>
      <trkpt lat="47.69953" lon="7.35385">
        <ele>356.3057861</ele>
        <time>2012-01-22T10:27:14Z</time>
      </trkpt>
      <trkpt lat="47.69952" lon="7.35386">
        <ele>354.3831787</ele>
        <time>2012-01-22T10:27:24Z</time>
      </trkpt>
      <trkpt lat="47.69952" lon="7.35386">
        <ele>352.9411621</ele>
        <time>2012-01-22T10:27:29Z</time>
      </trkpt>
      <trkpt lat="47.69951" lon="7.35386">
        <ele>353.9025879</ele>
        <time>2012-01-22T10:27:43Z</time>
      </trkpt>
      <trkpt lat="47.69952" lon="7.35389">
        <ele>354.3831787</ele>
        <time>2012-01-22T10:27:45Z</time>
      </trkpt>
      <trkpt lat="47.69956" lon="7.35416">
        <ele>357.2670898</ele>
        <time>2012-01-22T10:27:52Z</time>
      </trkpt>
      <trkpt lat="47.6996" lon="7.35444">
        <ele>358.7089844</ele>
        <time>2012-01-22T10:27:58Z</time>
      </trkpt>
      <trkpt lat="47.69964" lon="7.35489">
        <ele>360.6317139</ele>
        <time>2012-01-22T10:28:05Z</time>
      </trkpt>
      <trkpt lat="47.69965" lon="7.35549">
        <ele>359.6704102</ele>
        <time>2012-01-22T10:28:13Z</time>
      </trkpt>
      <trkpt lat="47.69962" lon="7.35595">
        <ele>359.1896973</ele>
        <time>2012-01-22T10:28:19Z</time>
      </trkpt>
      <trkpt lat="47.69948" lon="7.35657">
        <ele>356.3057861</ele>
        <time>2012-01-22T10:28:27Z</time>
      </trkpt>
      <trkpt lat="47.69939" lon="7.35696">
        <ele>356.3057861</ele>
        <time>2012-01-22T10:28:32Z</time>
      </trkpt>
      <trkpt lat="47.69926" lon="7.35747">
        <ele>354.8637695</ele>
        <time>2012-01-22T10:28:38Z</time>
      </trkpt>
      <trkpt lat="47.69936" lon="7.35775">
        <ele>354.3831787</ele>
        <time>2012-01-22T10:28:42Z</time>
      </trkpt>
      <trkpt lat="47.69948" lon="7.35781">
        <ele>353.9025879</ele>
        <time>2012-01-22T10:28:44Z</time>
      </trkpt>
      <trkpt lat="47.69993" lon="7.35793">
        <ele>348.6152344</ele>
        <time>2012-01-22T10:28:51Z</time>
      </trkpt>
      <trkpt lat="47.70048" lon="7.35803">
        <ele>343.8085938</ele>
        <time>2012-01-22T10:28:59Z</time>
      </trkpt>
      <trkpt lat="47.70061" lon="7.35804">
        <ele>343.3278809</ele>
        <time>2012-01-22T10:29:01Z</time>
      </trkpt>
      <trkpt lat="47.70082" lon="7.35808">
        <ele>343.3278809</ele>
        <time>2012-01-22T10:29:05Z</time>
      </trkpt>
      <trkpt lat="47.70108" lon="7.35823">
        <ele>342.3666992</ele>
        <time>2012-01-22T10:29:10Z</time>
      </trkpt>
      <trkpt lat="47.7013" lon="7.35841">
        <ele>343.3278809</ele>
        <time>2012-01-22T10:29:14Z</time>
      </trkpt>
      <trkpt lat="47.70152" lon="7.35854">
        <ele>343.3278809</ele>
        <time>2012-01-22T10:29:18Z</time>
      </trkpt>
      <trkpt lat="47.70158" lon="7.35857">
        <ele>344.2894287</ele>
        <time>2012-01-22T10:29:19Z</time>
      </trkpt>
      <trkpt lat="47.70176" lon="7.35869">
        <ele>346.2120361</ele>
        <time>2012-01-22T10:29:22Z</time>
      </trkpt>
      <trkpt lat="47.70185" lon="7.35889">
        <ele>347.6539307</ele>
        <time>2012-01-22T10:29:26Z</time>
      </trkpt>
      <trkpt lat="47.70181" lon="7.35902">
        <ele>348.6152344</ele>
        <time>2012-01-22T10:29:28Z</time>
      </trkpt>
      <trkpt lat="47.70165" lon="7.35952">
        <ele>351.0184326</ele>
        <time>2012-01-22T10:29:35Z</time>
      </trkpt>
      <trkpt lat="47.70148" lon="7.36">
        <ele>349.0958252</ele>
        <time>2012-01-22T10:29:41Z</time>
      </trkpt>
      <trkpt lat="47.70143" lon="7.36012">
        <ele>347.1732178</ele>
        <time>2012-01-22T10:29:44Z</time>
      </trkpt>
      <trkpt lat="47.70143" lon="7.36013">
        <ele>347.1732178</ele>
        <time>2012-01-22T10:29:45Z</time>
      </trkpt>
      <trkpt lat="47.70136" lon="7.36017">
        <ele>346.692627</ele>
        <time>2012-01-22T10:29:51Z</time>
      </trkpt>
      <trkpt lat="47.70126" lon="7.36022">
        <ele>346.2120361</ele>
        <time>2012-01-22T10:29:55Z</time>
      </trkpt>
      <trkpt lat="47.70124" lon="7.36036">
        <ele>345.7313232</ele>
        <time>2012-01-22T10:29:57Z</time>
      </trkpt>
      <trkpt lat="47.70125" lon="7.3608">
        <ele>343.8085938</ele>
        <time>2012-01-22T10:30:02Z</time>
      </trkpt>
      <trkpt lat="47.70128" lon="7.36105">
        <ele>342.84729</ele>
        <time>2012-01-22T10:30:06Z</time>
      </trkpt>
      <trkpt lat="47.70128" lon="7.36109">
        <ele>339.482666</ele>
        <time>2012-01-22T10:30:17Z</time>
      </trkpt>
      <trkpt lat="47.70124" lon="7.3611">
        <ele>327.9467773</ele>
        <time>2012-01-22T10:30:40Z</time>
      </trkpt>
      <trkpt lat="47.70125" lon="7.3611">
        <ele>326.0241699</ele>
        <time>2012-01-22T10:30:53Z</time>
      </trkpt>
      <trkpt lat="47.70125" lon="7.3611">
        <ele>327.4661865</ele>
        <time>2012-01-22T10:30:59Z</time>
      </trkpt>
      <trkpt lat="47.70126" lon="7.36111">
        <ele>327.4661865</ele>
        <time>2012-01-22T10:31:02Z</time>
      </trkpt>
      <trkpt lat="47.70128" lon="7.36128">
        <ele>328.9083252</ele>
        <time>2012-01-22T10:31:07Z</time>
      </trkpt>
      <trkpt lat="47.70132" lon="7.36163">
        <ele>328.4276123</ele>
        <time>2012-01-22T10:31:12Z</time>
      </trkpt>
      <trkpt lat="47.70135" lon="7.36195">
        <ele>327.9467773</ele>
        <time>2012-01-22T10:31:15Z</time>
      </trkpt>
      <trkpt lat="47.70133" lon="7.36264">
        <ele>327.9467773</ele>
        <time>2012-01-22T10:31:20Z</time>
      </trkpt>
      <trkpt lat="47.7013" lon="7.363">
        <ele>329.388916</ele>
        <time>2012-01-22T10:31:23Z</time>
      </trkpt>
      <trkpt lat="47.70127" lon="7.36341">
        <ele>329.8695068</ele>
        <time>2012-01-22T10:31:27Z</time>
      </trkpt>
      <trkpt lat="47.70125" lon="7.36407">
        <ele>330.8309326</ele>
        <time>2012-01-22T10:31:33Z</time>
      </trkpt>
      <trkpt lat="47.70126" lon="7.3644">
        <ele>331.7921143</ele>
        <time>2012-01-22T10:31:36Z</time>
      </trkpt>
      <trkpt lat="47.70139" lon="7.36509">
        <ele>331.7921143</ele>
        <time>2012-01-22T10:31:43Z</time>
      </trkpt>
      <trkpt lat="47.70157" lon="7.36574">
        <ele>331.7921143</ele>
        <time>2012-01-22T10:31:50Z</time>
      </trkpt>
      <trkpt lat="47.7016" lon="7.36583">
        <ele>331.7921143</ele>
        <time>2012-01-22T10:31:51Z</time>
      </trkpt>
      <trkpt lat="47.70167" lon="7.36621">
        <ele>332.75354</ele>
        <time>2012-01-22T10:31:55Z</time>
      </trkpt>
      <trkpt lat="47.70167" lon="7.36659">
        <ele>332.75354</ele>
        <time>2012-01-22T10:31:59Z</time>
      </trkpt>
      <trkpt lat="47.70156" lon="7.36736">
        <ele>335.1567383</ele>
        <time>2012-01-22T10:32:08Z</time>
      </trkpt>
      <trkpt lat="47.70146" lon="7.36786">
        <ele>337.5600586</ele>
        <time>2012-01-22T10:32:15Z</time>
      </trkpt>
      <trkpt lat="47.7014" lon="7.36838">
        <ele>340.9246826</ele>
        <time>2012-01-22T10:32:23Z</time>
      </trkpt>
      <trkpt lat="47.70139" lon="7.36868">
        <ele>342.84729</ele>
        <time>2012-01-22T10:32:28Z</time>
      </trkpt>
      <trkpt lat="47.70144" lon="7.36906">
        <ele>344.7700195</ele>
        <time>2012-01-22T10:32:35Z</time>
      </trkpt>
      <trkpt lat="47.70155" lon="7.36961">
        <ele>348.1346436</ele>
        <time>2012-01-22T10:32:45Z</time>
      </trkpt>
      <trkpt lat="47.70161" lon="7.37007">
        <ele>350.057251</ele>
        <time>2012-01-22T10:32:53Z</time>
      </trkpt>
      <trkpt lat="47.7017" lon="7.37052">
        <ele>352.4605713</ele>
        <time>2012-01-22T10:33:01Z</time>
      </trkpt>
      <trkpt lat="47.70177" lon="7.37086">
        <ele>354.3831787</ele>
        <time>2012-01-22T10:33:08Z</time>
      </trkpt>
      <trkpt lat="47.70177" lon="7.37128">
        <ele>354.3831787</ele>
        <time>2012-01-22T10:33:16Z</time>
      </trkpt>
      <trkpt lat="47.70174" lon="7.37185">
        <ele>353.9025879</ele>
        <time>2012-01-22T10:33:25Z</time>
      </trkpt>
      <trkpt lat="47.70171" lon="7.37246">
        <ele>352.4605713</ele>
        <time>2012-01-22T10:33:33Z</time>
      </trkpt>
      <trkpt lat="47.70167" lon="7.37321">
        <ele>351.4991455</ele>
        <time>2012-01-22T10:33:42Z</time>
      </trkpt>
      <trkpt lat="47.70165" lon="7.37372">
        <ele>350.5378418</ele>
        <time>2012-01-22T10:33:48Z</time>
      </trkpt>
      <trkpt lat="47.70164" lon="7.3739">
        <ele>350.5378418</ele>
        <time>2012-01-22T10:33:51Z</time>
      </trkpt>
      <trkpt lat="47.70162" lon="7.3742">
        <ele>350.5378418</ele>
        <time>2012-01-22T10:33:56Z</time>
      </trkpt>
      <trkpt lat="47.70157" lon="7.3746">
        <ele>351.4991455</ele>
        <time>2012-01-22T10:34:03Z</time>
      </trkpt>
      <trkpt lat="47.70152" lon="7.37511">
        <ele>353.9025879</ele>
        <time>2012-01-22T10:34:11Z</time>
      </trkpt>
      <trkpt lat="47.70149" lon="7.37554">
        <ele>356.786377</ele>
        <time>2012-01-22T10:34:18Z</time>
      </trkpt>
      <trkpt lat="47.70148" lon="7.37593">
        <ele>357.7478027</ele>
        <time>2012-01-22T10:34:26Z</time>
      </trkpt>
      <trkpt lat="47.70148" lon="7.37636">
        <ele>357.2670898</ele>
        <time>2012-01-22T10:34:34Z</time>
      </trkpt>
      <trkpt lat="47.70148" lon="7.3768">
        <ele>356.786377</ele>
        <time>2012-01-22T10:34:42Z</time>
      </trkpt>
      <trkpt lat="47.70149" lon="7.37711">
        <ele>357.2670898</ele>
        <time>2012-01-22T10:34:48Z</time>
      </trkpt>
      <trkpt lat="47.7015" lon="7.37738">
        <ele>356.786377</ele>
        <time>2012-01-22T10:34:53Z</time>
      </trkpt>
      <trkpt lat="47.70156" lon="7.37758">
        <ele>355.8251953</ele>
        <time>2012-01-22T10:34:57Z</time>
      </trkpt>
      <trkpt lat="47.70166" lon="7.37782">
        <ele>354.3831787</ele>
        <time>2012-01-22T10:35:02Z</time>
      </trkpt>
      <trkpt lat="47.70168" lon="7.37788">
        <ele>353.9025879</ele>
        <time>2012-01-22T10:35:03Z</time>
      </trkpt>
      <trkpt lat="47.70179" lon="7.378">
        <ele>352.4605713</ele>
        <time>2012-01-22T10:35:08Z</time>
      </trkpt>
      <trkpt lat="47.7018" lon="7.37814">
        <ele>351.9798584</ele>
        <time>2012-01-22T10:35:12Z</time>
      </trkpt>
      <trkpt lat="47.70182" lon="7.3783">
        <ele>351.4991455</ele>
        <time>2012-01-22T10:35:17Z</time>
      </trkpt>
      <trkpt lat="47.70182" lon="7.37841">
        <ele>352.4605713</ele>
        <time>2012-01-22T10:35:20Z</time>
      </trkpt>
      <trkpt lat="47.70185" lon="7.37866">
        <ele>352.4605713</ele>
        <time>2012-01-22T10:35:25Z</time>
      </trkpt>
      <trkpt lat="47.70188" lon="7.37889">
        <ele>353.421875</ele>
        <time>2012-01-22T10:35:29Z</time>
      </trkpt>
      <trkpt lat="47.70187" lon="7.37904">
        <ele>353.421875</ele>
        <time>2012-01-22T10:35:32Z</time>
      </trkpt>
      <trkpt lat="47.70191" lon="7.3793">
        <ele>352.9411621</ele>
        <time>2012-01-22T10:35:37Z</time>
      </trkpt>
      <trkpt lat="47.70194" lon="7.37956">
        <ele>351.0184326</ele>
        <time>2012-01-22T10:35:40Z</time>
      </trkpt>
      <trkpt lat="47.70196" lon="7.37995">
        <ele>347.6539307</ele>
        <time>2012-01-22T10:35:44Z</time>
      </trkpt>
      <trkpt lat="47.70197" lon="7.38042">
        <ele>342.3666992</ele>
        <time>2012-01-22T10:35:50Z</time>
      </trkpt>
      <trkpt lat="47.70197" lon="7.38048">
        <ele>341.8859863</ele>
        <time>2012-01-22T10:35:51Z</time>
      </trkpt>
      <trkpt lat="47.70202" lon="7.38092">
        <ele>339.482666</ele>
        <time>2012-01-22T10:35:56Z</time>
      </trkpt>
      <trkpt lat="47.70205" lon="7.38137">
        <ele>339.0020752</ele>
        <time>2012-01-22T10:36:00Z</time>
      </trkpt>
      <trkpt lat="47.70209" lon="7.38172">
        <ele>338.0407715</ele>
        <time>2012-01-22T10:36:04Z</time>
      </trkpt>
      <trkpt lat="47.7022" lon="7.38183">
        <ele>337.0794678</ele>
        <time>2012-01-22T10:36:08Z</time>
      </trkpt>
      <trkpt lat="47.70224" lon="7.38182">
        <ele>336.1181641</ele>
        <time>2012-01-22T10:36:09Z</time>
      </trkpt>
      <trkpt lat="47.70254" lon="7.38183">
        <ele>332.75354</ele>
        <time>2012-01-22T10:36:17Z</time>
      </trkpt>
      <trkpt lat="47.70265" lon="7.38183">
        <ele>331.3115234</ele>
        <time>2012-01-22T10:36:22Z</time>
      </trkpt>
      <trkpt lat="47.70267" lon="7.38185">
        <ele>332.2728271</ele>
        <time>2012-01-22T10:36:36Z</time>
      </trkpt>
      <trkpt lat="47.70271" lon="7.38183">
        <ele>333.2341309</ele>
        <time>2012-01-22T10:36:52Z</time>
      </trkpt>
      <trkpt lat="47.70278" lon="7.38183">
        <ele>334.6761475</ele>
        <time>2012-01-22T10:37:14Z</time>
      </trkpt>
      <trkpt lat="47.70297" lon="7.38182">
        <ele>334.6761475</ele>
        <time>2012-01-22T10:37:19Z</time>
      </trkpt>
      <trkpt lat="47.70323" lon="7.3818">
        <ele>333.7147217</ele>
        <time>2012-01-22T10:37:24Z</time>
      </trkpt>
      <trkpt lat="47.70353" lon="7.38169">
        <ele>331.7921143</ele>
        <time>2012-01-22T10:37:28Z</time>
      </trkpt>
      <trkpt lat="47.70387" lon="7.38157">
        <ele>329.8695068</ele>
        <time>2012-01-22T10:37:33Z</time>
      </trkpt>
      <trkpt lat="47.70401" lon="7.38153">
        <ele>328.4276123</ele>
        <time>2012-01-22T10:37:37Z</time>
      </trkpt>
      <trkpt lat="47.70409" lon="7.38151">
        <ele>327.4661865</ele>
        <time>2012-01-22T10:37:39Z</time>
      </trkpt>
      <trkpt lat="47.70428" lon="7.38153">
        <ele>323.1403809</ele>
        <time>2012-01-22T10:37:44Z</time>
      </trkpt>
      <trkpt lat="47.70433" lon="7.38163">
        <ele>321.2177734</ele>
        <time>2012-01-22T10:37:48Z</time>
      </trkpt>
      <trkpt lat="47.70432" lon="7.38194">
        <ele>320.2563477</ele>
        <time>2012-01-22T10:37:54Z</time>
      </trkpt>
      <trkpt lat="47.70429" lon="7.38229">
        <ele>319.2950439</ele>
        <time>2012-01-22T10:37:59Z</time>
      </trkpt>
      <trkpt lat="47.70436" lon="7.38251">
        <ele>317.8530273</ele>
        <time>2012-01-22T10:38:04Z</time>
      </trkpt>
      <trkpt lat="47.70442" lon="7.38251">
        <ele>317.8530273</ele>
        <time>2012-01-22T10:38:06Z</time>
      </trkpt>
      <trkpt lat="47.70464" lon="7.38245">
        <ele>317.8530273</ele>
        <time>2012-01-22T10:38:12Z</time>
      </trkpt>
      <trkpt lat="47.70483" lon="7.38241">
        <ele>316.4110107</ele>
        <time>2012-01-22T10:38:16Z</time>
      </trkpt>
      <trkpt lat="47.70495" lon="7.38251">
        <ele>314.4884033</ele>
        <time>2012-01-22T10:38:20Z</time>
      </trkpt>
      <trkpt lat="47.70498" lon="7.38264">
        <ele>314.0078125</ele>
        <time>2012-01-22T10:38:22Z</time>
      </trkpt>
      <trkpt lat="47.70508" lon="7.38325">
        <ele>310.1624756</ele>
        <time>2012-01-22T10:38:29Z</time>
      </trkpt>
      <trkpt lat="47.70521" lon="7.38383">
        <ele>307.2785645</ele>
        <time>2012-01-22T10:38:36Z</time>
      </trkpt>
      <trkpt lat="47.70525" lon="7.38397">
        <ele>306.7978516</ele>
        <time>2012-01-22T10:38:38Z</time>
      </trkpt>
      <trkpt lat="47.70535" lon="7.38408">
        <ele>306.3172607</ele>
        <time>2012-01-22T10:38:42Z</time>
      </trkpt>
      <trkpt lat="47.70543" lon="7.38403">
        <ele>306.3172607</ele>
        <time>2012-01-22T10:38:46Z</time>
      </trkpt>
      <trkpt lat="47.70563" lon="7.38389">
        <ele>305.8366699</ele>
        <time>2012-01-22T10:38:52Z</time>
      </trkpt>
      <trkpt lat="47.70591" lon="7.38373">
        <ele>306.3172607</ele>
        <time>2012-01-22T10:38:59Z</time>
      </trkpt>
      <trkpt lat="47.70605" lon="7.38366">
        <ele>306.3172607</ele>
        <time>2012-01-22T10:39:02Z</time>
      </trkpt>
      <trkpt lat="47.70625" lon="7.38362">
        <ele>304.8752441</ele>
        <time>2012-01-22T10:39:06Z</time>
      </trkpt>
      <trkpt lat="47.70634" lon="7.38379">
        <ele>303.9139404</ele>
        <time>2012-01-22T10:39:09Z</time>
      </trkpt>
      <trkpt lat="47.70641" lon="7.38398">
        <ele>303.9139404</ele>
        <time>2012-01-22T10:39:12Z</time>
      </trkpt>
      <trkpt lat="47.70671" lon="7.38463">
        <ele>304.3946533</ele>
        <time>2012-01-22T10:39:23Z</time>
      </trkpt>
      <trkpt lat="47.70689" lon="7.38509">
        <ele>304.3946533</ele>
        <time>2012-01-22T10:39:29Z</time>
      </trkpt>
      <trkpt lat="47.70717" lon="7.38576">
        <ele>304.8752441</ele>
        <time>2012-01-22T10:39:37Z</time>
      </trkpt>
      <trkpt lat="47.70736" lon="7.38629">
        <ele>305.8366699</ele>
        <time>2012-01-22T10:39:43Z</time>
      </trkpt>
      <trkpt lat="47.70763" lon="7.38707">
        <ele>306.7978516</ele>
        <time>2012-01-22T10:39:51Z</time>
      </trkpt>
      <trkpt lat="47.70793" lon="7.38797">
        <ele>308.720459</ele>
        <time>2012-01-22T10:40:00Z</time>
      </trkpt>
      <trkpt lat="47.70804" lon="7.38824">
        <ele>308.720459</ele>
        <time>2012-01-22T10:40:03Z</time>
      </trkpt>
      <trkpt lat="47.70844" lon="7.3888">
        <ele>308.720459</ele>
        <time>2012-01-22T10:40:10Z</time>
      </trkpt>
      <trkpt lat="47.70888" lon="7.38931">
        <ele>307.2785645</ele>
        <time>2012-01-22T10:40:17Z</time>
      </trkpt>
      <trkpt lat="47.70936" lon="7.38985">
        <ele>305.8366699</ele>
        <time>2012-01-22T10:40:24Z</time>
      </trkpt>
      <trkpt lat="47.7099" lon="7.39039">
        <ele>303.4332275</ele>
        <time>2012-01-22T10:40:31Z</time>
      </trkpt>
      <trkpt lat="47.71046" lon="7.39097">
        <ele>301.0299072</ele>
        <time>2012-01-22T10:40:38Z</time>
      </trkpt>
      <trkpt lat="47.711" lon="7.39163">
        <ele>298.626709</ele>
        <time>2012-01-22T10:40:45Z</time>
      </trkpt>
      <trkpt lat="47.71132" lon="7.39214">
        <ele>298.1461182</ele>
        <time>2012-01-22T10:40:50Z</time>
      </trkpt>
      <trkpt lat="47.7116" lon="7.39257">
        <ele>298.1461182</ele>
        <time>2012-01-22T10:40:54Z</time>
      </trkpt>
      <trkpt lat="47.71198" lon="7.39336">
        <ele>297.6654053</ele>
        <time>2012-01-22T10:41:01Z</time>
      </trkpt>
      <trkpt lat="47.71211" lon="7.39372">
        <ele>297.1846924</ele>
        <time>2012-01-22T10:41:04Z</time>
      </trkpt>
      <trkpt lat="47.71221" lon="7.39441">
        <ele>295.2619629</ele>
        <time>2012-01-22T10:41:09Z</time>
      </trkpt>
      <trkpt lat="47.71227" lon="7.39527">
        <ele>290.9361572</ele>
        <time>2012-01-22T10:41:15Z</time>
      </trkpt>
      <trkpt lat="47.71242" lon="7.39614">
        <ele>287.0908203</ele>
        <time>2012-01-22T10:41:21Z</time>
      </trkpt>
      <trkpt lat="47.71264" lon="7.39699">
        <ele>284.2069092</ele>
        <time>2012-01-22T10:41:27Z</time>
      </trkpt>
      <trkpt lat="47.71267" lon="7.3971">
        <ele>282.7650146</ele>
        <time>2012-01-22T10:41:29Z</time>
      </trkpt>
      <trkpt lat="47.71271" lon="7.39717">
        <ele>283.2456055</ele>
        <time>2012-01-22T10:41:31Z</time>
      </trkpt>
      <trkpt lat="47.71272" lon="7.39724">
        <ele>283.2456055</ele>
        <time>2012-01-22T10:41:33Z</time>
      </trkpt>
      <trkpt lat="47.71281" lon="7.39745">
        <ele>282.2843018</ele>
        <time>2012-01-22T10:41:38Z</time>
      </trkpt>
      <trkpt lat="47.71284" lon="7.39757">
        <ele>282.2843018</ele>
        <time>2012-01-22T10:41:40Z</time>
      </trkpt>
      <trkpt lat="47.71288" lon="7.39783">
        <ele>281.8035889</ele>
        <time>2012-01-22T10:41:45Z</time>
      </trkpt>
      <trkpt lat="47.7129" lon="7.398">
        <ele>282.2843018</ele>
        <time>2012-01-22T10:41:51Z</time>
      </trkpt>
      <trkpt lat="47.71288" lon="7.398">
        <ele>283.2456055</ele>
        <time>2012-01-22T10:41:59Z</time>
      </trkpt>
      <trkpt lat="47.71287" lon="7.398">
        <ele>283.2456055</ele>
        <time>2012-01-22T10:42:00Z</time>
      </trkpt>
      <trkpt lat="47.71286" lon="7.39791">
        <ele>283.2456055</ele>
        <time>2012-01-22T10:42:05Z</time>
      </trkpt>
      <trkpt lat="47.71287" lon="7.39782">
        <ele>283.2456055</ele>
        <time>2012-01-22T10:42:09Z</time>
      </trkpt>
      <trkpt lat="47.71286" lon="7.39774">
        <ele>284.2069092</ele>
        <time>2012-01-22T10:42:13Z</time>
      </trkpt>
      <trkpt lat="47.71286" lon="7.39772">
        <ele>284.2069092</ele>
        <time>2012-01-22T10:42:17Z</time>
      </trkpt>
      <trkpt lat="47.71288" lon="7.39771">
        <ele>288.532959</ele>
        <time>2012-01-22T10:42:30Z</time>
      </trkpt>
      <trkpt lat="47.71291" lon="7.39773">
        <ele>287.0908203</ele>
        <time>2012-01-22T10:42:41Z</time>
      </trkpt>
      <trkpt lat="47.7129" lon="7.39775">
        <ele>286.1295166</ele>
        <time>2012-01-22T10:42:57Z</time>
      </trkpt>
      <trkpt lat="47.71291" lon="7.3978">
        <ele>284.6876221</ele>
        <time>2012-01-22T10:43:00Z</time>
      </trkpt>
      <trkpt lat="47.71292" lon="7.39799">
        <ele>282.2843018</ele>
        <time>2012-01-22T10:43:06Z</time>
      </trkpt>
      <trkpt lat="47.71291" lon="7.39826">
        <ele>281.322998</ele>
        <time>2012-01-22T10:43:12Z</time>
      </trkpt>
      <trkpt lat="47.7129" lon="7.39853">
        <ele>282.2843018</ele>
        <time>2012-01-22T10:43:17Z</time>
      </trkpt>
      <trkpt lat="47.71288" lon="7.39882">
        <ele>283.2456055</ele>
        <time>2012-01-22T10:43:22Z</time>
      </trkpt>
      <trkpt lat="47.71282" lon="7.39919">
        <ele>283.2456055</ele>
        <time>2012-01-22T10:43:28Z</time>
      </trkpt>
      <trkpt lat="47.71281" lon="7.39955">
        <ele>284.2069092</ele>
        <time>2012-01-22T10:43:34Z</time>
      </trkpt>
      <trkpt lat="47.71281" lon="7.39962">
        <ele>284.6876221</ele>
        <time>2012-01-22T10:43:35Z</time>
      </trkpt>
      <trkpt lat="47.71283" lon="7.40007">
        <ele>285.1682129</ele>
        <time>2012-01-22T10:43:41Z</time>
      </trkpt>
      <trkpt lat="47.71292" lon="7.40054">
        <ele>286.1295166</ele>
        <time>2012-01-22T10:43:47Z</time>
      </trkpt>
      <trkpt lat="47.71299" lon="7.40079">
        <ele>286.1295166</ele>
        <time>2012-01-22T10:43:50Z</time>
      </trkpt>
      <trkpt lat="47.71301" lon="7.40107">
        <ele>284.6876221</ele>
        <time>2012-01-22T10:43:53Z</time>
      </trkpt>
      <trkpt lat="47.71319" lon="7.40168">
        <ele>282.7650146</ele>
        <time>2012-01-22T10:43:59Z</time>
      </trkpt>
      <trkpt lat="47.71336" lon="7.40219">
        <ele>278.9196777</ele>
        <time>2012-01-22T10:44:03Z</time>
      </trkpt>
      <trkpt lat="47.71352" lon="7.40279">
        <ele>274.1130371</ele>
        <time>2012-01-22T10:44:07Z</time>
      </trkpt>
      <trkpt lat="47.71368" lon="7.40366">
        <ele>267.3839111</ele>
        <time>2012-01-22T10:44:12Z</time>
      </trkpt>
      <trkpt lat="47.71384" lon="7.40432">
        <ele>263.0578613</ele>
        <time>2012-01-22T10:44:16Z</time>
      </trkpt>
      <trkpt lat="47.71379" lon="7.40484">
        <ele>258.2513428</ele>
        <time>2012-01-22T10:44:20Z</time>
      </trkpt>
      <trkpt lat="47.71372" lon="7.40495">
        <ele>257.2900391</ele>
        <time>2012-01-22T10:44:21Z</time>
      </trkpt>
      <trkpt lat="47.71341" lon="7.40549">
        <ele>255.3673096</ele>
        <time>2012-01-22T10:44:26Z</time>
      </trkpt>
      <trkpt lat="47.71333" lon="7.40573">
        <ele>255.3673096</ele>
        <time>2012-01-22T10:44:28Z</time>
      </trkpt>
      <trkpt lat="47.71325" lon="7.40639">
        <ele>255.8480225</ele>
        <time>2012-01-22T10:44:33Z</time>
      </trkpt>
      <trkpt lat="47.71325" lon="7.40726">
        <ele>255.8480225</ele>
        <time>2012-01-22T10:44:40Z</time>
      </trkpt>
      <trkpt lat="47.71326" lon="7.40794">
        <ele>255.3673096</ele>
        <time>2012-01-22T10:44:46Z</time>
      </trkpt>
      <trkpt lat="47.71327" lon="7.4087">
        <ele>254.8865967</ele>
        <time>2012-01-22T10:44:52Z</time>
      </trkpt>
      <trkpt lat="47.7133" lon="7.40952">
        <ele>255.3673096</ele>
        <time>2012-01-22T10:44:58Z</time>
      </trkpt>
      <trkpt lat="47.71339" lon="7.41066">
        <ele>255.3673096</ele>
        <time>2012-01-22T10:45:06Z</time>
      </trkpt>
      <trkpt lat="47.7135" lon="7.4121">
        <ele>254.8865967</ele>
        <time>2012-01-22T10:45:16Z</time>
      </trkpt>
      <trkpt lat="47.71361" lon="7.4137">
        <ele>254.8865967</ele>
        <time>2012-01-22T10:45:27Z</time>
      </trkpt>
      <trkpt lat="47.7137" lon="7.41501">
        <ele>253.925415</ele>
        <time>2012-01-22T10:45:36Z</time>
      </trkpt>
      <trkpt lat="47.71372" lon="7.41515">
        <ele>254.4060059</ele>
        <time>2012-01-22T10:45:37Z</time>
      </trkpt>
      <trkpt lat="47.71392" lon="7.41582">
        <ele>254.4060059</ele>
        <time>2012-01-22T10:45:42Z</time>
      </trkpt>
      <trkpt lat="47.7144" lon="7.41704">
        <ele>253.925415</ele>
        <time>2012-01-22T10:45:52Z</time>
      </trkpt>
      <trkpt lat="47.71463" lon="7.41779">
        <ele>252.9639893</ele>
        <time>2012-01-22T10:45:58Z</time>
      </trkpt>
      <trkpt lat="47.71476" lon="7.41855">
        <ele>252.9639893</ele>
        <time>2012-01-22T10:46:04Z</time>
      </trkpt>
      <trkpt lat="47.71487" lon="7.41921">
        <ele>253.925415</ele>
        <time>2012-01-22T10:46:10Z</time>
      </trkpt>
      <trkpt lat="47.71488" lon="7.41931">
        <ele>253.925415</ele>
        <time>2012-01-22T10:46:11Z</time>
      </trkpt>
      <trkpt lat="47.71488" lon="7.41961">
        <ele>253.925415</ele>
        <time>2012-01-22T10:46:14Z</time>
      </trkpt>
      <trkpt lat="47.71496" lon="7.42007">
        <ele>254.8865967</ele>
        <time>2012-01-22T10:46:19Z</time>
      </trkpt>
      <trkpt lat="47.71503" lon="7.42072">
        <ele>256.3287354</ele>
        <time>2012-01-22T10:46:26Z</time>
      </trkpt>
      <trkpt lat="47.71509" lon="7.4211">
        <ele>257.2900391</ele>
        <time>2012-01-22T10:46:30Z</time>
      </trkpt>
      <trkpt lat="47.71515" lon="7.42138">
        <ele>257.2900391</ele>
        <time>2012-01-22T10:46:33Z</time>
      </trkpt>
      <trkpt lat="47.71523" lon="7.42166">
        <ele>257.770752</ele>
        <time>2012-01-22T10:46:36Z</time>
      </trkpt>
      <trkpt lat="47.71542" lon="7.42176">
        <ele>257.2900391</ele>
        <time>2012-01-22T10:46:39Z</time>
      </trkpt>
      <trkpt lat="47.71549" lon="7.42175">
        <ele>257.2900391</ele>
        <time>2012-01-22T10:46:40Z</time>
      </trkpt>
      <trkpt lat="47.7161" lon="7.42162">
        <ele>256.8093262</ele>
        <time>2012-01-22T10:46:49Z</time>
      </trkpt>
      <trkpt lat="47.71654" lon="7.42154">
        <ele>257.2900391</ele>
        <time>2012-01-22T10:46:55Z</time>
      </trkpt>
      <trkpt lat="47.71706" lon="7.42143">
        <ele>257.770752</ele>
        <time>2012-01-22T10:47:02Z</time>
      </trkpt>
      <trkpt lat="47.71757" lon="7.42134">
        <ele>257.2900391</ele>
        <time>2012-01-22T10:47:09Z</time>
      </trkpt>
      <trkpt lat="47.71798" lon="7.42125">
        <ele>257.770752</ele>
        <time>2012-01-22T10:47:15Z</time>
      </trkpt>
      <trkpt lat="47.71846" lon="7.42116">
        <ele>257.770752</ele>
        <time>2012-01-22T10:47:22Z</time>
      </trkpt>
      <trkpt lat="47.71899" lon="7.42105">
        <ele>256.8093262</ele>
        <time>2012-01-22T10:47:30Z</time>
      </trkpt>
      <trkpt lat="47.71947" lon="7.42096">
        <ele>256.8093262</ele>
        <time>2012-01-22T10:47:37Z</time>
      </trkpt>
      <trkpt lat="47.72007" lon="7.42084">
        <ele>256.8093262</ele>
        <time>2012-01-22T10:47:46Z</time>
      </trkpt>
      <trkpt lat="47.72059" lon="7.42074">
        <ele>256.8093262</ele>
        <time>2012-01-22T10:47:54Z</time>
      </trkpt>
      <trkpt lat="47.72111" lon="7.42065">
        <ele>256.8093262</ele>
        <time>2012-01-22T10:48:02Z</time>
      </trkpt>
      <trkpt lat="47.72172" lon="7.42052">
        <ele>255.8480225</ele>
        <time>2012-01-22T10:48:12Z</time>
      </trkpt>
      <trkpt lat="47.72214" lon="7.42041">
        <ele>255.8480225</ele>
        <time>2012-01-22T10:48:19Z</time>
      </trkpt>
      <trkpt lat="47.72276" lon="7.42031">
        <ele>256.8093262</ele>
        <time>2012-01-22T10:48:29Z</time>
      </trkpt>
      <trkpt lat="47.72312" lon="7.42023">
        <ele>256.8093262</ele>
        <time>2012-01-22T10:48:35Z</time>
      </trkpt>
      <trkpt lat="47.72351" lon="7.42016">
        <ele>256.8093262</ele>
        <time>2012-01-22T10:48:42Z</time>
      </trkpt>
      <trkpt lat="47.72355" lon="7.42015">
        <ele>256.8093262</ele>
        <time>2012-01-22T10:48:43Z</time>
      </trkpt>
      <trkpt lat="47.7236" lon="7.42015">
        <ele>255.8480225</ele>
        <time>2012-01-22T10:48:45Z</time>
      </trkpt>
      <trkpt lat="47.72362" lon="7.42017">
        <ele>254.8865967</ele>
        <time>2012-01-22T10:48:49Z</time>
      </trkpt>
      <trkpt lat="47.72367" lon="7.42037">
        <ele>252.9639893</ele>
        <time>2012-01-22T10:48:54Z</time>
      </trkpt>
      <trkpt lat="47.72384" lon="7.42046">
        <ele>252.9639893</ele>
        <time>2012-01-22T10:48:58Z</time>
      </trkpt>
      <trkpt lat="47.72423" lon="7.42049">
        <ele>254.4060059</ele>
        <time>2012-01-22T10:49:05Z</time>
      </trkpt>
      <trkpt lat="47.72469" lon="7.42055">
        <ele>254.4060059</ele>
        <time>2012-01-22T10:49:13Z</time>
      </trkpt>
      <trkpt lat="47.72516" lon="7.42061">
        <ele>253.4447021</ele>
        <time>2012-01-22T10:49:21Z</time>
      </trkpt>
      <trkpt lat="47.72549" lon="7.42065">
        <ele>252.9639893</ele>
        <time>2012-01-22T10:49:27Z</time>
      </trkpt>
      <trkpt lat="47.72585" lon="7.4207">
        <ele>252.9639893</ele>
        <time>2012-01-22T10:49:33Z</time>
      </trkpt>
      <trkpt lat="47.72638" lon="7.42077">
        <ele>252.4833984</ele>
        <time>2012-01-22T10:49:42Z</time>
      </trkpt>
      <trkpt lat="47.72689" lon="7.42082">
        <ele>253.4447021</ele>
        <time>2012-01-22T10:49:51Z</time>
      </trkpt>
      <trkpt lat="47.7272" lon="7.42084">
        <ele>254.4060059</ele>
        <time>2012-01-22T10:49:57Z</time>
      </trkpt>
      <trkpt lat="47.72734" lon="7.42095">
        <ele>252.4833984</ele>
        <time>2012-01-22T10:50:01Z</time>
      </trkpt>
      <trkpt lat="47.72734" lon="7.421">
        <ele>252.0028076</ele>
        <time>2012-01-22T10:50:02Z</time>
      </trkpt>
      <trkpt lat="47.72728" lon="7.42144">
        <ele>253.4447021</ele>
        <time>2012-01-22T10:50:09Z</time>
      </trkpt>
      <trkpt lat="47.72723" lon="7.42196">
        <ele>254.8865967</ele>
        <time>2012-01-22T10:50:17Z</time>
      </trkpt>
      <trkpt lat="47.72729" lon="7.42215">
        <ele>255.3673096</ele>
        <time>2012-01-22T10:50:22Z</time>
      </trkpt>
      <trkpt lat="47.72753" lon="7.42225">
        <ele>254.8865967</ele>
        <time>2012-01-22T10:50:28Z</time>
      </trkpt>
      <trkpt lat="47.72792" lon="7.42239">
        <ele>255.3673096</ele>
        <time>2012-01-22T10:50:35Z</time>
      </trkpt>
      <trkpt lat="47.72821" lon="7.42249">
        <ele>255.8480225</ele>
        <time>2012-01-22T10:50:41Z</time>
      </trkpt>
      <trkpt lat="47.72829" lon="7.42262">
        <ele>255.8480225</ele>
        <time>2012-01-22T10:50:45Z</time>
      </trkpt>
      <trkpt lat="47.72828" lon="7.42297">
        <ele>257.2900391</ele>
        <time>2012-01-22T10:50:51Z</time>
      </trkpt>
      <trkpt lat="47.72825" lon="7.4233">
        <ele>257.770752</ele>
        <time>2012-01-22T10:50:56Z</time>
      </trkpt>
      <trkpt lat="47.72824" lon="7.42358">
        <ele>258.2513428</ele>
        <time>2012-01-22T10:51:01Z</time>
      </trkpt>
      <trkpt lat="47.72817" lon="7.42367">
        <ele>258.2513428</ele>
        <time>2012-01-22T10:51:05Z</time>
      </trkpt>
      <trkpt lat="47.72814" lon="7.42366">
        <ele>257.770752</ele>
        <time>2012-01-22T10:51:06Z</time>
      </trkpt>
      <trkpt lat="47.72789" lon="7.42356">
        <ele>257.770752</ele>
        <time>2012-01-22T10:51:13Z</time>
      </trkpt>
      <trkpt lat="47.72782" lon="7.42355">
        <ele>258.2513428</ele>
        <time>2012-01-22T10:51:17Z</time>
      </trkpt>
      <trkpt lat="47.72781" lon="7.42355">
        <ele>257.2900391</ele>
        <time>2012-01-22T10:51:24Z</time>
      </trkpt>
      <trkpt lat="47.72782" lon="7.42356">
        <ele>257.2900391</ele>
        <time>2012-01-22T10:51:30Z</time>
      </trkpt>
      <trkpt lat="47.7278" lon="7.42356">
        <ele>253.925415</ele>
        <time>2012-01-22T10:52:03Z</time>
      </trkpt>
      <trkpt lat="47.72778" lon="7.42357">
        <ele>250.560791</ele>
        <time>2012-01-22T10:52:12Z</time>
      </trkpt>
      <trkpt lat="47.72779" lon="7.42358">
        <ele>248.1575928</ele>
        <time>2012-01-22T10:52:23Z</time>
      </trkpt>
      <trkpt lat="47.7278" lon="7.42358">
        <ele>248.6381836</ele>
        <time>2012-01-22T10:52:34Z</time>
      </trkpt>
      <trkpt lat="47.72781" lon="7.42358">
        <ele>250.0802002</ele>
        <time>2012-01-22T10:52:39Z</time>
      </trkpt>
      <trkpt lat="47.72783" lon="7.4236">
        <ele>250.560791</ele>
        <time>2012-01-22T10:52:46Z</time>
      </trkpt>
      <trkpt lat="47.72785" lon="7.42361">
        <ele>249.5994873</ele>
        <time>2012-01-22T10:52:48Z</time>
      </trkpt>
      <trkpt lat="47.72799" lon="7.42369">
        <ele>249.1187744</ele>
        <time>2012-01-22T10:52:55Z</time>
      </trkpt>
      <trkpt lat="47.72804" lon="7.42361">
        <ele>249.5994873</ele>
        <time>2012-01-22T10:52:59Z</time>
      </trkpt>
      <trkpt lat="47.728" lon="7.42359">
        <ele>250.0802002</ele>
        <time>2012-01-22T10:53:01Z</time>
      </trkpt>
      <trkpt lat="47.72781" lon="7.42363">
        <ele>250.560791</ele>
        <time>2012-01-22T10:53:10Z</time>
      </trkpt>
      <trkpt lat="47.7278" lon="7.42361">
        <ele>251.0413818</ele>
        <time>2012-01-22T10:53:11Z</time>
      </trkpt>
      <trkpt lat="47.72779" lon="7.42361">
        <ele>251.5220947</ele>
        <time>2012-01-22T10:53:18Z</time>
      </trkpt>
      <trkpt lat="47.72779" lon="7.42362">
        <ele>251.5220947</ele>
        <time>2012-01-22T10:53:24Z</time>
      </trkpt>
      <trkpt lat="47.72779" lon="7.42363">
        <ele>251.0413818</ele>
        <time>2012-01-22T10:53:29Z</time>
      </trkpt>
      <trkpt lat="47.72781" lon="7.42367">
        <ele>251.0413818</ele>
        <time>2012-01-22T10:53:34Z</time>
      </trkpt>
      <trkpt lat="47.72785" lon="7.42369">
        <ele>251.0413818</ele>
        <time>2012-01-22T10:53:37Z</time>
      </trkpt>
      <trkpt lat="47.72791" lon="7.42369">
        <ele>250.560791</ele>
        <time>2012-01-22T10:53:41Z</time>
      </trkpt>
      <trkpt lat="47.72793" lon="7.42363">
        <ele>251.5220947</ele>
        <time>2012-01-22T10:53:46Z</time>
      </trkpt>
      <trkpt lat="47.72787" lon="7.42362">
        <ele>252.0028076</ele>
        <time>2012-01-22T10:53:50Z</time>
      </trkpt>
      <trkpt lat="47.72784" lon="7.42363">
        <ele>252.0028076</ele>
        <time>2012-01-22T10:53:52Z</time>
      </trkpt>
      <trkpt lat="47.72781" lon="7.42361">
        <ele>252.0028076</ele>
        <time>2012-01-22T10:54:00Z</time>
      </trkpt>
      <trkpt lat="47.72777" lon="7.42356">
        <ele>251.0413818</ele>
        <time>2012-01-22T10:54:07Z</time>
      </trkpt>
      <trkpt lat="47.72777" lon="7.42354">
        <ele>250.0802002</ele>
        <time>2012-01-22T10:54:12Z</time>
      </trkpt>
      <trkpt lat="47.72785" lon="7.42353">
        <ele>253.4447021</ele>
        <time>2012-01-22T10:54:28Z</time>
      </trkpt>
      <trkpt lat="47.72788" lon="7.42353">
        <ele>255.8480225</ele>
        <time>2012-01-22T10:54:35Z</time>
      </trkpt>
      <trkpt lat="47.72791" lon="7.42353">
        <ele>259.2126465</ele>
        <time>2012-01-22T10:54:45Z</time>
      </trkpt>
      <trkpt lat="47.72792" lon="7.42354">
        <ele>263.5385742</ele>
        <time>2012-01-22T10:54:54Z</time>
      </trkpt>
      <trkpt lat="47.72794" lon="7.42355">
        <ele>268.3450928</ele>
        <time>2012-01-22T10:55:08Z</time>
      </trkpt>
      <trkpt lat="47.72797" lon="7.42354">
        <ele>270.7484131</ele>
        <time>2012-01-22T10:55:17Z</time>
      </trkpt>
      <trkpt lat="47.72797" lon="7.42352">
        <ele>267.864502</ele>
        <time>2012-01-22T10:55:35Z</time>
      </trkpt>
      <trkpt lat="47.72799" lon="7.4235">
        <ele>266.4224854</ele>
        <time>2012-01-22T10:55:52Z</time>
      </trkpt>
      <trkpt lat="47.72791" lon="7.4235">
        <ele>262.0965576</ele>
        <time>2012-01-22T10:56:11Z</time>
      </trkpt>
      <trkpt lat="47.72792" lon="7.42353">
        <ele>266.9031982</ele>
        <time>2012-01-22T10:56:36Z</time>
      </trkpt>
      <trkpt lat="47.72793" lon="7.42351">
        <ele>266.4224854</ele>
        <time>2012-01-22T10:56:49Z</time>
      </trkpt>
      <trkpt lat="47.72791" lon="7.4235">
        <ele>265.9418945</ele>
        <time>2012-01-22T10:56:59Z</time>
      </trkpt>
      <trkpt lat="47.72791" lon="7.42351">
        <ele>268.3450928</ele>
        <time>2012-01-22T10:57:11Z</time>
      </trkpt>
      <trkpt lat="47.72794" lon="7.42352">
        <ele>271.229126</ele>
        <time>2012-01-22T10:57:33Z</time>
      </trkpt>
      <trkpt lat="47.72794" lon="7.42352">
        <ele>273.1518555</ele>
        <time>2012-01-22T10:57:43Z</time>
      </trkpt>
      <trkpt lat="47.72794" lon="7.42353">
        <ele>273.1518555</ele>
        <time>2012-01-22T10:58:04Z</time>
      </trkpt>
      <trkpt lat="47.7279" lon="7.42355">
        <ele>262.0965576</ele>
        <time>2012-01-22T10:58:36Z</time>
      </trkpt>
      <trkpt lat="47.72787" lon="7.42356">
        <ele>260.1739502</ele>
        <time>2012-01-22T10:58:41Z</time>
      </trkpt>
      <trkpt lat="47.72781" lon="7.42358">
        <ele>252.9639893</ele>
        <time>2012-01-22T10:59:58Z</time>
      </trkpt>
      <trkpt lat="47.7278" lon="7.42359">
        <ele>251.0413818</ele>
        <time>2012-01-22T11:00:03Z</time>
      </trkpt>
      <trkpt lat="47.72774" lon="7.42362">
        <ele>246.2348633</ele>
        <time>2012-01-22T11:00:15Z</time>
      </trkpt>
      <trkpt lat="47.72773" lon="7.42364">
        <ele>244.7928467</ele>
        <time>2012-01-22T11:00:24Z</time>
      </trkpt>
      <trkpt lat="47.72772" lon="7.42365">
        <ele>245.2734375</ele>
        <time>2012-01-22T11:00:31Z</time>
      </trkpt>
      <trkpt lat="47.7277" lon="7.42365">
        <ele>244.7928467</ele>
        <time>2012-01-22T11:02:14Z</time>
      </trkpt>
      <trkpt lat="47.72773" lon="7.42363">
        <ele>249.1187744</ele>
        <time>2012-01-22T11:03:56Z</time>
      </trkpt>
      <trkpt lat="47.72769" lon="7.42365">
        <ele>242.3896484</ele>
        <time>2012-01-22T11:04:15Z</time>
      </trkpt>
      <trkpt lat="47.7277" lon="7.42365">
        <ele>243.3508301</ele>
        <time>2012-01-22T11:04:25Z</time>
      </trkpt>
      <trkpt lat="47.72769" lon="7.42365">
        <ele>240.9476318</ele>
        <time>2012-01-22T11:04:34Z</time>
      </trkpt>
      <trkpt lat="47.72769" lon="7.42365">
        <ele>243.3508301</ele>
        <time>2012-01-22T11:04:46Z</time>
      </trkpt>
      <trkpt lat="47.72775" lon="7.42363">
        <ele>250.560791</ele>
        <time>2012-01-22T11:05:02Z</time>
      </trkpt>
      <trkpt lat="47.72772" lon="7.42364">
        <ele>244.7928467</ele>
        <time>2012-01-22T11:05:15Z</time>
      </trkpt>
      <trkpt lat="47.7277" lon="7.42363">
        <ele>240.467041</ele>
        <time>2012-01-22T11:05:24Z</time>
      </trkpt>
      <trkpt lat="47.72769" lon="7.42364">
        <ele>237.5828857</ele>
        <time>2012-01-22T11:05:44Z</time>
      </trkpt>
      <trkpt lat="47.72769" lon="7.42364">
        <ele>239.0249023</ele>
        <time>2012-01-22T11:06:05Z</time>
      </trkpt>
      <trkpt lat="47.72769" lon="7.42362">
        <ele>237.5828857</ele>
        <time>2012-01-22T11:06:27Z</time>
      </trkpt>
      <trkpt lat="47.72782" lon="7.42358">
        <ele>250.0802002</ele>
        <time>2012-01-22T11:07:05Z</time>
      </trkpt>
      <trkpt lat="47.72784" lon="7.4236">
        <ele>255.8480225</ele>
        <time>2012-01-22T11:07:36Z</time>
      </trkpt>
      <trkpt lat="47.72784" lon="7.42359">
        <ele>254.8865967</ele>
        <time>2012-01-22T11:07:37Z</time>
      </trkpt>
      <trkpt lat="47.72784" lon="7.4237">
        <ele>264.4998779</ele>
        <time>2012-01-22T11:08:27Z</time>
      </trkpt>
      <trkpt lat="47.72781" lon="7.4237">
        <ele>260.654541</ele>
        <time>2012-01-22T11:08:33Z</time>
      </trkpt>
      <trkpt lat="47.72779" lon="7.42366">
        <ele>258.7319336</ele>
        <time>2012-01-22T11:08:39Z</time>
      </trkpt>
      <trkpt lat="47.72776" lon="7.42357">
        <ele>248.1575928</ele>
        <time>2012-01-22T11:08:48Z</time>
      </trkpt>
      <trkpt lat="47.72773" lon="7.42355">
        <ele>241.4282227</ele>
        <time>2012-01-22T11:08:55Z</time>
      </trkpt>
      <trkpt lat="47.72774" lon="7.42356">
        <ele>245.7541504</ele>
        <time>2012-01-22T11:09:02Z</time>
      </trkpt>
      <trkpt lat="47.72777" lon="7.42356">
        <ele>251.0413818</ele>
        <time>2012-01-22T11:09:10Z</time>
      </trkpt>
      <trkpt lat="47.72777" lon="7.4236">
        <ele>240.9476318</ele>
        <time>2012-01-22T11:09:26Z</time>
      </trkpt>
      <trkpt lat="47.72777" lon="7.42363">
        <ele>241.4282227</ele>
        <time>2012-01-22T11:09:34Z</time>
      </trkpt>
      <trkpt lat="47.72778" lon="7.42367">
        <ele>246.7154541</ele>
        <time>2012-01-22T11:09:45Z</time>
      </trkpt>
      <trkpt lat="47.7278" lon="7.42369">
        <ele>253.4447021</ele>
        <time>2012-01-22T11:09:53Z</time>
      </trkpt>
      <trkpt lat="47.7278" lon="7.42371">
        <ele>256.8093262</ele>
        <time>2012-01-22T11:09:59Z</time>
      </trkpt>
      <trkpt lat="47.7278" lon="7.42373">
        <ele>257.770752</ele>
        <time>2012-01-22T11:10:02Z</time>
      </trkpt>
      <trkpt lat="47.72779" lon="7.42375">
        <ele>259.6933594</ele>
        <time>2012-01-22T11:10:10Z</time>
      </trkpt>
      <trkpt lat="47.72777" lon="7.42377">
        <ele>259.6933594</ele>
        <time>2012-01-22T11:10:17Z</time>
      </trkpt>
      <trkpt lat="47.72781" lon="7.42374">
        <ele>260.1739502</ele>
        <time>2012-01-22T11:10:24Z</time>
      </trkpt>
      <trkpt lat="47.7278" lon="7.42372">
        <ele>256.3287354</ele>
        <time>2012-01-22T11:10:34Z</time>
      </trkpt>
      <trkpt lat="47.72781" lon="7.42369">
        <ele>251.0413818</ele>
        <time>2012-01-22T11:10:46Z</time>
      </trkpt>
      <trkpt lat="47.72781" lon="7.42368">
        <ele>249.5994873</ele>
        <time>2012-01-22T11:10:54Z</time>
      </trkpt>
      <trkpt lat="47.72781" lon="7.42369">
        <ele>252.4833984</ele>
        <time>2012-01-22T11:11:04Z</time>
      </trkpt>
      <trkpt lat="47.72785" lon="7.42366">
        <ele>257.2900391</ele>
        <time>2012-01-22T11:11:15Z</time>
      </trkpt>
      <trkpt lat="47.72781" lon="7.42369">
        <ele>256.3287354</ele>
        <time>2012-01-22T11:11:34Z</time>
      </trkpt>
      <trkpt lat="47.72779" lon="7.4237">
        <ele>257.770752</ele>
        <time>2012-01-22T11:11:43Z</time>
      </trkpt>
      <trkpt lat="47.72779" lon="7.42365">
        <ele>255.3673096</ele>
        <time>2012-01-22T11:11:52Z</time>
      </trkpt>
      <trkpt lat="47.72781" lon="7.42364">
        <ele>253.4447021</ele>
        <time>2012-01-22T11:12:02Z</time>
      </trkpt>
      <trkpt lat="47.72783" lon="7.42362">
        <ele>253.4447021</ele>
        <time>2012-01-22T11:12:04Z</time>
      </trkpt>
      <trkpt lat="47.72785" lon="7.42355">
        <ele>250.0802002</ele>
        <time>2012-01-22T11:12:11Z</time>
      </trkpt>
      <trkpt lat="47.72785" lon="7.42354">
        <ele>249.1187744</ele>
        <time>2012-01-22T11:12:18Z</time>
      </trkpt>
      <trkpt lat="47.72784" lon="7.42356">
        <ele>247.1960449</ele>
        <time>2012-01-22T11:12:35Z</time>
      </trkpt>
      <trkpt lat="47.72782" lon="7.42357">
        <ele>247.6767578</ele>
        <time>2012-01-22T11:12:38Z</time>
      </trkpt>
      <trkpt lat="47.7278" lon="7.42355">
        <ele>248.1575928</ele>
        <time>2012-01-22T11:12:43Z</time>
      </trkpt>
      <trkpt lat="47.72781" lon="7.42355">
        <ele>247.1960449</ele>
        <time>2012-01-22T11:12:50Z</time>
      </trkpt>
      <trkpt lat="47.7278" lon="7.42356">
        <ele>246.7154541</ele>
        <time>2012-01-22T11:12:59Z</time>
      </trkpt>
      <trkpt lat="47.72779" lon="7.42356">
        <ele>245.7541504</ele>
        <time>2012-01-22T11:13:08Z</time>
      </trkpt>
      <trkpt lat="47.72781" lon="7.42354">
        <ele>243.831543</ele>
        <time>2012-01-22T11:13:31Z</time>
      </trkpt>
      <trkpt lat="47.72782" lon="7.42355">
        <ele>243.3508301</ele>
        <time>2012-01-22T11:13:37Z</time>
      </trkpt>
      <trkpt lat="47.7278" lon="7.42355">
        <ele>242.8702393</ele>
        <time>2012-01-22T11:13:43Z</time>
      </trkpt>
      <trkpt lat="47.72779" lon="7.42355">
        <ele>242.8702393</ele>
        <time>2012-01-22T11:13:52Z</time>
      </trkpt>
      <trkpt lat="47.72779" lon="7.42356">
        <ele>242.8702393</ele>
        <time>2012-01-22T11:14:12Z</time>
      </trkpt>
      <trkpt lat="47.72779" lon="7.42357">
        <ele>242.3896484</ele>
        <time>2012-01-22T11:14:58Z</time>
      </trkpt>
      <trkpt lat="47.72786" lon="7.4236">
        <ele>241.9089355</ele>
        <time>2012-01-22T11:15:06Z</time>
      </trkpt>
      <trkpt lat="47.72788" lon="7.4236">
        <ele>241.9089355</ele>
        <time>2012-01-22T11:15:07Z</time>
      </trkpt>
      <trkpt lat="47.728" lon="7.42366">
        <ele>241.9089355</ele>
        <time>2012-01-22T11:15:15Z</time>
      </trkpt>
      <trkpt lat="47.72816" lon="7.42368">
        <ele>241.9089355</ele>
        <time>2012-01-22T11:15:24Z</time>
      </trkpt>
      <trkpt lat="47.72822" lon="7.42368">
        <ele>243.3508301</ele>
        <time>2012-01-22T11:15:29Z</time>
      </trkpt>
      <trkpt lat="47.72824" lon="7.42367">
        <ele>243.3508301</ele>
        <time>2012-01-22T11:15:31Z</time>
      </trkpt>
      <trkpt lat="47.72826" lon="7.42362">
        <ele>243.831543</ele>
        <time>2012-01-22T11:15:34Z</time>
      </trkpt>
      <trkpt lat="47.72827" lon="7.42346">
        <ele>243.3508301</ele>
        <time>2012-01-22T11:15:39Z</time>
      </trkpt>
      <trkpt lat="47.72827" lon="7.42317">
        <ele>242.8702393</ele>
        <time>2012-01-22T11:15:46Z</time>
      </trkpt>
      <trkpt lat="47.72828" lon="7.42279">
        <ele>242.3896484</ele>
        <time>2012-01-22T11:15:54Z</time>
      </trkpt>
      <trkpt lat="47.7283" lon="7.42233">
        <ele>241.9089355</ele>
        <time>2012-01-22T11:16:03Z</time>
      </trkpt>
      <trkpt lat="47.72831" lon="7.42197">
        <ele>240.9476318</ele>
        <time>2012-01-22T11:16:11Z</time>
      </trkpt>
      <trkpt lat="47.72831" lon="7.42166">
        <ele>239.9862061</ele>
        <time>2012-01-22T11:16:18Z</time>
      </trkpt>
      <trkpt lat="47.72834" lon="7.42115">
        <ele>239.9862061</ele>
        <time>2012-01-22T11:16:26Z</time>
      </trkpt>
      <trkpt lat="47.72842" lon="7.42059">
        <ele>239.9862061</ele>
        <time>2012-01-22T11:16:34Z</time>
      </trkpt>
      <trkpt lat="47.7285" lon="7.42016">
        <ele>241.4282227</ele>
        <time>2012-01-22T11:16:40Z</time>
      </trkpt>
      <trkpt lat="47.72861" lon="7.41944">
        <ele>242.8702393</ele>
        <time>2012-01-22T11:16:50Z</time>
      </trkpt>
      <trkpt lat="47.72863" lon="7.41894">
        <ele>242.3896484</ele>
        <time>2012-01-22T11:16:57Z</time>
      </trkpt>
      <trkpt lat="47.72866" lon="7.4188">
        <ele>242.8702393</ele>
        <time>2012-01-22T11:16:59Z</time>
      </trkpt>
      <trkpt lat="47.72874" lon="7.41821">
        <ele>244.3122559</ele>
        <time>2012-01-22T11:17:07Z</time>
      </trkpt>
      <trkpt lat="47.7288" lon="7.41751">
        <ele>244.3122559</ele>
        <time>2012-01-22T11:17:17Z</time>
      </trkpt>
      <trkpt lat="47.72882" lon="7.41717">
        <ele>244.3122559</ele>
        <time>2012-01-22T11:17:22Z</time>
      </trkpt>
      <trkpt lat="47.7288" lon="7.41683">
        <ele>244.7928467</ele>
        <time>2012-01-22T11:17:28Z</time>
      </trkpt>
      <trkpt lat="47.7288" lon="7.41672">
        <ele>244.3122559</ele>
        <time>2012-01-22T11:17:32Z</time>
      </trkpt>
      <trkpt lat="47.72881" lon="7.4167">
        <ele>244.7928467</ele>
        <time>2012-01-22T11:17:37Z</time>
      </trkpt>
      <trkpt lat="47.72871" lon="7.41657">
        <ele>244.7928467</ele>
        <time>2012-01-22T11:17:42Z</time>
      </trkpt>
      <trkpt lat="47.72863" lon="7.41656">
        <ele>245.2734375</ele>
        <time>2012-01-22T11:17:44Z</time>
      </trkpt>
      <trkpt lat="47.72842" lon="7.41662">
        <ele>244.7928467</ele>
        <time>2012-01-22T11:17:50Z</time>
      </trkpt>
      <trkpt lat="47.72813" lon="7.41677">
        <ele>243.3508301</ele>
        <time>2012-01-22T11:17:58Z</time>
      </trkpt>
      <trkpt lat="47.72786" lon="7.41694">
        <ele>243.3508301</ele>
        <time>2012-01-22T11:18:04Z</time>
      </trkpt>
      <trkpt lat="47.72746" lon="7.41711">
        <ele>243.831543</ele>
        <time>2012-01-22T11:18:12Z</time>
      </trkpt>
      <trkpt lat="47.72699" lon="7.4173">
        <ele>243.831543</ele>
        <time>2012-01-22T11:18:21Z</time>
      </trkpt>
      <trkpt lat="47.72657" lon="7.41742">
        <ele>242.3896484</ele>
        <time>2012-01-22T11:18:29Z</time>
      </trkpt>
      <trkpt lat="47.72594" lon="7.41748">
        <ele>242.3896484</ele>
        <time>2012-01-22T11:18:40Z</time>
      </trkpt>
      <trkpt lat="47.72535" lon="7.4176">
        <ele>242.3896484</ele>
        <time>2012-01-22T11:18:51Z</time>
      </trkpt>
      <trkpt lat="47.72479" lon="7.41773">
        <ele>242.3896484</ele>
        <time>2012-01-22T11:19:01Z</time>
      </trkpt>
      <trkpt lat="47.7243" lon="7.41781">
        <ele>242.3896484</ele>
        <time>2012-01-22T11:19:10Z</time>
      </trkpt>
      <trkpt lat="47.72381" lon="7.4179">
        <ele>241.9089355</ele>
        <time>2012-01-22T11:19:19Z</time>
      </trkpt>
      <trkpt lat="47.72332" lon="7.41798">
        <ele>241.4282227</ele>
        <time>2012-01-22T11:19:28Z</time>
      </trkpt>
      <trkpt lat="47.723" lon="7.41804">
        <ele>241.4282227</ele>
        <time>2012-01-22T11:19:34Z</time>
      </trkpt>
      <trkpt lat="47.72281" lon="7.41794">
        <ele>241.4282227</ele>
        <time>2012-01-22T11:19:38Z</time>
      </trkpt>
      <trkpt lat="47.72277" lon="7.41779">
        <ele>241.4282227</ele>
        <time>2012-01-22T11:19:40Z</time>
      </trkpt>
      <trkpt lat="47.72269" lon="7.417">
        <ele>240.467041</ele>
        <time>2012-01-22T11:19:50Z</time>
      </trkpt>
      <trkpt lat="47.72262" lon="7.41645">
        <ele>240.467041</ele>
        <time>2012-01-22T11:19:57Z</time>
      </trkpt>
      <trkpt lat="47.72254" lon="7.4159">
        <ele>240.9476318</ele>
        <time>2012-01-22T11:20:04Z</time>
      </trkpt>
      <trkpt lat="47.72235" lon="7.41537">
        <ele>241.9089355</ele>
        <time>2012-01-22T11:20:12Z</time>
      </trkpt>
      <trkpt lat="47.7221" lon="7.41501">
        <ele>242.3896484</ele>
        <time>2012-01-22T11:20:19Z</time>
      </trkpt>
      <trkpt lat="47.72179" lon="7.41475">
        <ele>242.3896484</ele>
        <time>2012-01-22T11:20:26Z</time>
      </trkpt>
      <trkpt lat="47.72132" lon="7.41439">
        <ele>242.3896484</ele>
        <time>2012-01-22T11:20:37Z</time>
      </trkpt>
      <trkpt lat="47.72103" lon="7.41397">
        <ele>242.8702393</ele>
        <time>2012-01-22T11:20:45Z</time>
      </trkpt>
      <trkpt lat="47.72068" lon="7.41338">
        <ele>242.8702393</ele>
        <time>2012-01-22T11:20:56Z</time>
      </trkpt>
      <trkpt lat="47.72039" lon="7.41292">
        <ele>243.3508301</ele>
        <time>2012-01-22T11:21:05Z</time>
      </trkpt>
      <trkpt lat="47.72002" lon="7.41234">
        <ele>243.3508301</ele>
        <time>2012-01-22T11:21:16Z</time>
      </trkpt>
      <trkpt lat="47.71964" lon="7.41176">
        <ele>243.831543</ele>
        <time>2012-01-22T11:21:27Z</time>
      </trkpt>
      <trkpt lat="47.71928" lon="7.41134">
        <ele>243.831543</ele>
        <time>2012-01-22T11:21:36Z</time>
      </trkpt>
      <trkpt lat="47.7189" lon="7.41106">
        <ele>243.831543</ele>
        <time>2012-01-22T11:21:45Z</time>
      </trkpt>
      <trkpt lat="47.71849" lon="7.41081">
        <ele>243.831543</ele>
        <time>2012-01-22T11:21:54Z</time>
      </trkpt>
      <trkpt lat="47.71799" lon="7.41052">
        <ele>243.831543</ele>
        <time>2012-01-22T11:22:05Z</time>
      </trkpt>
      <trkpt lat="47.71762" lon="7.41023">
        <ele>244.3122559</ele>
        <time>2012-01-22T11:22:14Z</time>
      </trkpt>
      <trkpt lat="47.71735" lon="7.4099">
        <ele>244.3122559</ele>
        <time>2012-01-22T11:22:21Z</time>
      </trkpt>
      <trkpt lat="47.71701" lon="7.40938">
        <ele>244.3122559</ele>
        <time>2012-01-22T11:22:31Z</time>
      </trkpt>
      <trkpt lat="47.71662" lon="7.40876">
        <ele>244.3122559</ele>
        <time>2012-01-22T11:22:43Z</time>
      </trkpt>
      <trkpt lat="47.71631" lon="7.40812">
        <ele>244.3122559</ele>
        <time>2012-01-22T11:22:54Z</time>
      </trkpt>
      <trkpt lat="47.71613" lon="7.40763">
        <ele>244.7928467</ele>
        <time>2012-01-22T11:23:02Z</time>
      </trkpt>
      <trkpt lat="47.71598" lon="7.40719">
        <ele>244.7928467</ele>
        <time>2012-01-22T11:23:09Z</time>
      </trkpt>
      <trkpt lat="47.71573" lon="7.4067">
        <ele>244.7928467</ele>
        <time>2012-01-22T11:23:18Z</time>
      </trkpt>
      <trkpt lat="47.71544" lon="7.40634">
        <ele>244.7928467</ele>
        <time>2012-01-22T11:23:26Z</time>
      </trkpt>
      <trkpt lat="47.71504" lon="7.40591">
        <ele>244.3122559</ele>
        <time>2012-01-22T11:23:36Z</time>
      </trkpt>
      <trkpt lat="47.71475" lon="7.40555">
        <ele>244.3122559</ele>
        <time>2012-01-22T11:23:44Z</time>
      </trkpt>
      <trkpt lat="47.71446" lon="7.40521">
        <ele>244.7928467</ele>
        <time>2012-01-22T11:23:52Z</time>
      </trkpt>
      <trkpt lat="47.71438" lon="7.40505">
        <ele>244.7928467</ele>
        <time>2012-01-22T11:23:55Z</time>
      </trkpt>
      <trkpt lat="47.71435" lon="7.40474">
        <ele>244.3122559</ele>
        <time>2012-01-22T11:24:00Z</time>
      </trkpt>
      <trkpt lat="47.71437" lon="7.4046">
        <ele>244.3122559</ele>
        <time>2012-01-22T11:24:02Z</time>
      </trkpt>
      <trkpt lat="47.71446" lon="7.40438">
        <ele>244.3122559</ele>
        <time>2012-01-22T11:24:06Z</time>
      </trkpt>
      <trkpt lat="47.71486" lon="7.40397">
        <ele>244.3122559</ele>
        <time>2012-01-22T11:24:16Z</time>
      </trkpt>
      <trkpt lat="47.71525" lon="7.40352">
        <ele>244.7928467</ele>
        <time>2012-01-22T11:24:26Z</time>
      </trkpt>
      <trkpt lat="47.71528" lon="7.40347">
        <ele>244.7928467</ele>
        <time>2012-01-22T11:24:27Z</time>
      </trkpt>
      <trkpt lat="47.71559" lon="7.40293">
        <ele>245.2734375</ele>
        <time>2012-01-22T11:24:37Z</time>
      </trkpt>
      <trkpt lat="47.71573" lon="7.40249">
        <ele>245.2734375</ele>
        <time>2012-01-22T11:24:44Z</time>
      </trkpt>
      <trkpt lat="47.71581" lon="7.40194">
        <ele>246.2348633</ele>
        <time>2012-01-22T11:24:52Z</time>
      </trkpt>
      <trkpt lat="47.71587" lon="7.40139">
        <ele>247.1960449</ele>
        <time>2012-01-22T11:25:00Z</time>
      </trkpt>
      <trkpt lat="47.71592" lon="7.40091">
        <ele>248.1575928</ele>
        <time>2012-01-22T11:25:07Z</time>
      </trkpt>
      <trkpt lat="47.71596" lon="7.40029">
        <ele>249.1187744</ele>
        <time>2012-01-22T11:25:16Z</time>
      </trkpt>
      <trkpt lat="47.71598" lon="7.39956">
        <ele>250.0802002</ele>
        <time>2012-01-22T11:25:27Z</time>
      </trkpt>
      <trkpt lat="47.71599" lon="7.39943">
        <ele>250.0802002</ele>
        <time>2012-01-22T11:25:29Z</time>
      </trkpt>
      <trkpt lat="47.71606" lon="7.39923">
        <ele>250.0802002</ele>
        <time>2012-01-22T11:25:33Z</time>
      </trkpt>
      <trkpt lat="47.71614" lon="7.39905">
        <ele>250.0802002</ele>
        <time>2012-01-22T11:25:37Z</time>
      </trkpt>
      <trkpt lat="47.7161" lon="7.39889">
        <ele>250.0802002</ele>
        <time>2012-01-22T11:25:40Z</time>
      </trkpt>
      <trkpt lat="47.71604" lon="7.39857">
        <ele>250.560791</ele>
        <time>2012-01-22T11:25:46Z</time>
      </trkpt>
      <trkpt lat="47.71596" lon="7.39821">
        <ele>250.0802002</ele>
        <time>2012-01-22T11:25:53Z</time>
      </trkpt>
      <trkpt lat="47.71584" lon="7.39781">
        <ele>250.560791</ele>
        <time>2012-01-22T11:26:00Z</time>
      </trkpt>
      <trkpt lat="47.71591" lon="7.39749">
        <ele>250.0802002</ele>
        <time>2012-01-22T11:26:05Z</time>
      </trkpt>
      <trkpt lat="47.71605" lon="7.39735">
        <ele>250.560791</ele>
        <time>2012-01-22T11:26:09Z</time>
      </trkpt>
      <trkpt lat="47.71609" lon="7.39733">
        <ele>250.560791</ele>
        <time>2012-01-22T11:26:10Z</time>
      </trkpt>
      <trkpt lat="47.71646" lon="7.3972">
        <ele>251.5220947</ele>
        <time>2012-01-22T11:26:19Z</time>
      </trkpt>
      <trkpt lat="47.71666" lon="7.39699">
        <ele>252.4833984</ele>
        <time>2012-01-22T11:26:25Z</time>
      </trkpt>
      <trkpt lat="47.71691" lon="7.39676">
        <ele>252.9639893</ele>
        <time>2012-01-22T11:26:32Z</time>
      </trkpt>
      <trkpt lat="47.71698" lon="7.3967">
        <ele>253.4447021</ele>
        <time>2012-01-22T11:26:34Z</time>
      </trkpt>
      <trkpt lat="47.71706" lon="7.39647">
        <ele>253.925415</ele>
        <time>2012-01-22T11:26:39Z</time>
      </trkpt>
      <trkpt lat="47.71705" lon="7.39642">
        <ele>253.925415</ele>
        <time>2012-01-22T11:26:40Z</time>
      </trkpt>
      <trkpt lat="47.71707" lon="7.3962">
        <ele>253.4447021</ele>
        <time>2012-01-22T11:26:44Z</time>
      </trkpt>
      <trkpt lat="47.71724" lon="7.39602">
        <ele>254.8865967</ele>
        <time>2012-01-22T11:26:50Z</time>
      </trkpt>
      <trkpt lat="47.71731" lon="7.3958">
        <ele>256.3287354</ele>
        <time>2012-01-22T11:26:55Z</time>
      </trkpt>
      <trkpt lat="47.71727" lon="7.39552">
        <ele>257.770752</ele>
        <time>2012-01-22T11:27:01Z</time>
      </trkpt>
      <trkpt lat="47.71723" lon="7.39512">
        <ele>261.1352539</ele>
        <time>2012-01-22T11:27:10Z</time>
      </trkpt>
      <trkpt lat="47.71716" lon="7.39478">
        <ele>262.5771484</ele>
        <time>2012-01-22T11:27:19Z</time>
      </trkpt>
      <trkpt lat="47.71715" lon="7.39472">
        <ele>263.0578613</ele>
        <time>2012-01-22T11:27:21Z</time>
      </trkpt>
      <trkpt lat="47.71721" lon="7.39461">
        <ele>263.5385742</ele>
        <time>2012-01-22T11:27:26Z</time>
      </trkpt>
      <trkpt lat="47.71723" lon="7.3946">
        <ele>263.0578613</ele>
        <time>2012-01-22T11:27:34Z</time>
      </trkpt>
      <trkpt lat="47.71722" lon="7.3946">
        <ele>262.5771484</ele>
        <time>2012-01-22T11:27:44Z</time>
      </trkpt>
      <trkpt lat="47.71722" lon="7.3946">
        <ele>262.5771484</ele>
        <time>2012-01-22T11:27:52Z</time>
      </trkpt>
      <trkpt lat="47.71722" lon="7.3946">
        <ele>262.0965576</ele>
        <time>2012-01-22T11:27:54Z</time>
      </trkpt>
    </trkseg>
  </trk>
</gpx>